[[{"header":{"parameterUnit":"m.s-1","parameterCategory":1,"la1":31.0,"la2":29.5877,"lo1":-88.7671,"lo2":-86.6584,"dy":0.0162,"dx":0.0185,"nx":115,"ny":88,"refTime":"2023-06-01T06:00:00:Z","depth":0,"parameterNumber":2,"parameterNumberName":"U-component_of_WINDS"},"data":[0.0,0.0,0.0,0.0,0.0,0.0,0.0,0.0,0.0,0.0,0.0,0.0,0.0,0.0,0.0,0.0,0.0,0.0,0.0,0.0,0.0,0.0,0.0,0.0,0.0,0.0,0.0,0.0,0.0,0.0,0.0,0.0,0.0,0.0,0.0,0.0,0.0,0.0,0.0,0.0,0.0,0.0,0.0,0.0,0.0,0.0,0.0,0.0,0.0,0.0,0.0,0.0,0.0,0.0,0.0,0.0,0.0,0.0,0.0,0.0,0.0,0.0,0.0,0.0,0.0,0.0,0.0,0.0,0.0,0.0,0.0,0.0,0.0,0.0,0.0,0.0,0.0,0.0,0.0,0.0,0.0,0.0,0.0,0.0,0.0,0.0,0.0,0.0,0.0,0.0,0.0,0.0,0.0,0.0,0.0,0.0,0.0,0.0,0.0,0.0,0.0,0.0,0.0,0.0,0.0,0.0,0.0,0.0,0.0,0.0,0.0,0.0,0.0,0.0,0.0,0.0,0.0,0.0,0.0,0.0,0.0,0.0,0.0,0.0,0.0,0.0,0.0,0.0,0.0,0.0,0.0,0.0,0.0,0.0,0.0,0.0,0.0,0.0,0.0,0.0,0.0,0.0,0.0,0.0,0.0,0.0,0.0,0.0,0.0,0.0,0.0,0.0,0.0,0.0,0.0,0.0,0.0,0.0,0.0,0.0,0.0,0.0,0.0,0.0,0.0,0.0,0.0,0.0,0.0,0.0,0.0,0.0,0.0,0.0,0.0,0.0,0.0,0.0,0.0,0.0,0.0,0.0,0.0,0.0,0.0,0.0,0.0,0.0,0.0,0.0,0.0,0.0,0.0,0.0,0.0,0.0,0.0,0.0,0.0,0.0,0.0,0.0,0.0,0.0,0.0,0.0,0.0,0.0,0.0,0.0,0.0,0.0,0.0,0.0,0.0,0.0,0.0,0.0,0.0,0.0,0.0,0.0,0.0,0.0,0.0,0.0,0.0,0.0,0.0,0.0,0.0,0.0,0.0,0.0,0.0,0.0,0.0,0.0,0.0,0.0,0.0,0.0,0.0,0.0,0.0,0.0,0.0,0.0,0.0,0.0,0.0,0.0,0.0,0.0,0.0,0.0,0.0,0.0,0.0,0.0,0.0,0.0,0.0,0.0,0.0,0.0,0.0,0.0,0.0,0.0,0.0,0.0,0.0,0.0,0.0,0.0,0.0,0.0,0.0,0.0,0.0,0.0,0.0,0.0,0.0,0.0,0.0,0.0,0.0,0.0,0.0,0.0,0.0,0.0,0.0,0.0,0.0,0.0,0.0,0.0,0.0,0.0,0.0,0.0,0.0,0.0,0.0,0.0,0.0,0.0,0.0,0.0,0.0,0.0,0.0,0.0,0.0,0.0,0.0,0.0,0.0,0.0,0.0,0.0,0.0,0.0,0.0,0.0,0.0,0.0,0.0,0.0,0.0,0.0,0.0,0.0,0.0,0.0,0.0,0.0,0.0,0.0,0.0,0.0,0.0,0.0,0.0,0.0,0.0,0.0,0.0,0.0,0.0,0.0,0.0,0.0,0.0,0.0,0.0,0.0,0.0,0.0,0.0,0.0,0.0,0.0,0.0,0.0,0.0,0.0,0.0,0.0,0.0,0.0,0.0,0.0,0.0,0.0,0.0,0.0,0.0,0.0,0.0,0.0,0.0,0.0,0.0,0.0,0.0,0.0,0.0,0.0,0.0,0.0,0.0,0.0,0.0,0.0,0.0,0.0,0.0,0.0,0.0,0.0,0.0,0.0,0.0,0.0,0.0,0.0,0.0,0.0,0.0,0.0,0.0,0.0,0.0,0.0,0.0,0.0,0.0,0.0,0.0,0.0,0.0,0.0,0.0,0.0,0.0,0.0,0.0,0.0,0.0,0.0,0.0,0.0,0.0,0.0,0.0,0.0,0.0,0.0,0.0,0.0,0.0,0.0,0.0,0.0,0.0,0.0,0.0,0.0,0.0,0.0,0.0,0.0,0.0,0.0,0.0,0.0,0.0,0.0,0.0,0.0,0.0,0.0,0.0,0.0,0.0,0.0,0.0,0.0,0.0,0.0,0.0,0.0,0.0,0.0,0.0,0.0,0.0,0.0,0.0,0.0,0.0,0.0,0.0,0.0,0.0,0.0,0.0,0.0,0.0,0.0,0.0,0.0,0.0,0.0,0.0,0.0,0.0,0.0,0.0,0.0,0.0,0.0,0.0,0.0,0.0,0.0,0.0,0.0,0.0,0.0,0.0,0.0,0.0,0.0,0.0,0.0,0.0,0.0,0.0,0.0,0.0,0.0,0.0,0.0,0.0,0.0,0.0,0.0,0.0,0.0,0.0,0.0,0.0,0.0,0.0,0.0,0.0,0.0,0.0,0.0,0.0,0.0,0.0,0.0,0.0,0.0,0.0,0.0,0.0,0.0,0.0,0.0,0.0,0.0,0.0,0.0,0.0,0.0,0.0,0.0,0.0,0.0,0.0,0.0,0.0,0.0,0.0,0.0,0.0,0.0,0.0,0.0,0.0,0.0,0.0,0.0,0.0,0.0,0.0,0.0,0.0,0.0,0.0,0.0,0.0,0.0,0.0,0.0,0.0,0.0,0.0,0.0,0.0,0.0,0.0,0.0,0.0,0.0,0.0,0.0,0.0,0.0,0.0,0.0,0.0,0.0,0.0,0.0,0.0,0.0,0.0,0.0,0.0,0.0,0.0,0.0,0.0,0.0,0.0,0.0,0.0,0.0,0.0,0.0,0.0,0.0,0.0,0.0,0.0,0.0,0.0,0.0,0.0,0.0,0.0,0.0,0.0,0.0,0.0,0.0,0.0,0.0,0.0,0.0,0.0,0.0,0.0,0.0,0.0,0.0,0.0,0.0,0.0,0.0,0.0,0.0,0.0,0.0,0.0,0.0,0.0,0.0,0.0,0.0,0.0,0.0,0.0,0.0,0.0,0.0,0.0,0.0,0.0,0.0,0.0,0.0,0.0,0.0,0.0,0.0,0.0,0.0,0.0,0.0,0.0,0.0,0.0,0.0,0.0,0.0,0.0,0.0,0.0,0.0,0.0,0.0,0.0,0.0,0.0,0.0,0.0,0.0,0.0,0.0,0.0,0.0,0.0,0.0,0.0,0.0,0.0,0.0,0.0,0.0,0.0,0.0,0.0,0.0,0.0,0.0,0.0,0.0,0.0,0.0,0.0,0.0,0.0,0.0,0.0,0.0,0.0,0.0,0.0,0.0,0.0,0.0,0.0,0.0,0.0,0.0,0.0,0.0,0.0,0.0,0.0,0.0,0.0,0.0,0.0,0.0,0.0,0.0,0.0,0.0,0.0,0.0,0.0,0.0,0.0,0.0,0.0,0.0,0.0,0.0,0.0,0.0,0.0,0.0,0.0,0.0,0.0,0.0,0.0,0.0,0.0,0.0,0.0,0.0,0.0,0.0,0.0,0.0,0.0,0.0,0.0,0.0,0.0,0.0,0.0,0.0,0.0,0.0,0.0,0.0,0.0,0.0,0.0,0.0,0.0,0.0,0.0,0.0,0.0,0.0,0.0,0.0,0.0,0.0,0.0,0.0,0.0,0.0,0.0,0.0,0.0,0.0,0.0,0.0,0.0,0.0,0.0,0.0,0.0,0.0,0.0,0.0,0.0,0.0,0.0,0.0,0.0,0.0,0.0,0.0,0.0,0.0,0.0,0.0,0.0,0.0,0.0,0.0,0.0,0.0,0.0,0.0,0.0,0.0,0.0,0.0,0.0,0.0,0.0,0.0,0.0,0.0,0.0,0.0,0.0,0.0,0.0,0.0,0.0,0.0,0.0,0.0,0.0,0.0,0.0,0.0,0.0,0.0,0.0,0.0,0.0,0.0,0.0,0.0,0.0,0.0,0.0,0.0,0.0,0.0,0.0,0.0,0.0,0.0,0.0,0.0,0.0,0.0,0.0,0.0,0.0,0.0,0.0,0.0,0.0,0.0,0.0,0.0,0.0,0.0,0.0,0.0,0.0,0.0,0.0,0.0,0.0,0.0,0.0,0.0,0.0,0.0,0.0,0.0,0.0,0.0,0.0,0.0,0.0,0.0,0.0,0.0,0.0,0.0,0.0,0.0,0.0,0.0,0.0,0.0,0.0,0.0,0.0,0.0,0.0,0.0,0.0,0.0,0.0,0.0,0.0,0.0,0.0,0.0,0.0,0.0,0.0,0.0,0.0,0.0,0.0,0.0,0.0,0.0,0.0,0.0,0.0,0.0,2.0497,0.0,0.0,0.0,0.0,0.0,0.0,0.0,0.0,0.0,0.0,0.0,0.0,0.0,0.0,0.0,0.0,0.0,0.0,0.0,0.0,0.0,0.0,0.0,0.0,0.0,0.0,0.0,0.0,0.0,0.0,0.0,0.0,0.0,0.0,0.0,0.0,0.0,0.0,0.0,0.0,0.0,0.0,0.0,0.0,0.0,0.0,0.0,0.0,0.0,0.0,0.0,0.0,0.0,0.0,0.0,0.0,0.0,0.0,0.0,0.0,0.0,0.0,0.0,0.0,0.0,0.0,0.0,0.0,0.0,0.0,0.0,0.0,0.0,0.0,0.0,0.0,0.0,0.0,0.0,0.0,0.0,0.0,0.0,0.0,0.0,0.0,0.0,0.0,0.0,0.0,0.0,0.0,0.0,0.0,0.0,0.0,0.0,0.0,0.0,0.0,0.0,0.0,0.0,0.0,0.0,0.0,0.0,0.0,0.0,0.0,2.0575,2.0506,2.0506,2.048,2.0449,0.0,0.0,0.0,0.0,0.0,0.0,0.0,0.0,0.0,0.0,0.0,0.0,0.0,0.0,0.0,0.0,0.0,0.0,0.0,0.0,0.0,0.0,0.0,0.0,0.0,0.0,0.0,0.0,0.0,0.0,0.0,0.0,0.0,0.0,0.0,0.0,0.0,0.0,0.0,0.0,0.0,0.0,0.0,0.0,0.0,0.0,0.0,0.0,0.0,0.0,0.0,0.0,0.0,0.0,0.0,0.0,0.0,0.0,0.0,0.0,0.0,0.0,0.0,0.0,0.0,0.0,0.0,0.0,0.0,0.0,0.0,0.0,0.0,0.0,0.0,0.0,0.0,0.0,0.0,0.0,0.0,0.0,0.0,0.0,0.0,0.0,0.0,0.0,0.0,0.0,0.0,0.0,0.0,0.0,0.0,0.0,0.0,0.0,0.0,0.0,0.0,0.0,0.0,0.0,0.0,0.0,0.0,0.0,0.0,0.0,0.0,0.0,2.0784,2.0638,2.038,0.0,0.0,0.0,0.0,0.0,0.0,0.0,0.0,0.0,0.0,0.0,0.0,0.0,0.0,0.0,0.0,0.0,0.0,0.0,0.0,0.0,0.0,0.0,0.0,0.0,0.0,0.0,0.0,0.0,0.0,0.0,0.0,0.0,0.0,0.0,0.0,0.0,0.0,0.0,0.0,0.0,0.0,0.0,0.0,0.0,0.0,0.0,0.0,0.0,0.0,0.0,0.0,0.0,0.0,0.0,0.0,0.0,0.0,0.0,0.0,0.0,0.0,0.0,0.0,0.0,0.0,0.0,0.0,0.0,0.0,0.0,0.0,0.0,0.0,0.0,0.0,0.0,0.0,0.0,0.0,0.0,0.0,0.0,0.0,0.0,0.0,0.0,0.0,0.0,0.0,0.0,0.0,0.0,0.0,0.0,0.0,0.0,0.0,0.0,0.0,0.0,0.0,0.0,0.0,0.0,0.0,0.0,0.0,0.0,0.0,2.1678,2.1687,2.1619,0.0,2.0379,0.0,0.0,0.0,0.0,0.0,0.0,0.0,0.0,0.0,0.0,0.0,0.0,0.0,0.0,0.0,0.0,0.0,0.0,0.0,0.0,0.0,0.0,0.0,0.0,0.0,0.0,0.0,0.0,0.0,0.0,0.0,0.0,0.0,0.0,0.0,0.0,0.0,0.0,0.0,0.0,0.0,0.0,0.0,0.0,0.0,0.0,0.0,0.0,0.0,0.0,0.0,0.0,0.0,0.0,0.0,0.0,0.0,0.0,0.0,0.0,0.0,0.0,0.0,0.0,0.0,0.0,0.0,0.0,0.0,0.0,0.0,0.0,0.0,0.0,0.0,0.0,0.0,0.0,0.0,0.0,0.0,0.0,0.0,0.0,0.0,0.0,0.0,0.0,0.0,0.0,0.0,0.0,0.0,0.0,0.0,0.0,0.0,0.0,0.0,0.0,0.0,0.0,0.0,0.0,0.0,0.0,0.0,0.0,0.0,0.0,2.2037,2.2503,2.1928,2.1436,0.0,0.0,0.0,0.0,0.0,0.0,0.0,0.0,0.0,0.0,0.0,0.0,0.0,0.0,0.0,0.0,0.0,0.0,0.0,0.0,0.0,0.0,0.0,0.0,0.0,0.0,0.0,0.0,0.0,0.0,0.0,0.0,0.0,0.0,0.0,0.0,0.0,0.0,0.0,0.0,0.0,0.0,0.0,0.0,0.0,0.0,0.0,0.0,0.0,0.0,0.0,0.0,0.0,0.0,0.0,0.0,0.0,0.0,0.0,0.0,0.0,0.0,0.0,0.0,0.0,0.0,0.0,0.0,0.0,0.0,0.0,0.0,0.0,0.0,0.0,0.0,0.0,0.0,0.0,0.0,0.0,0.0,0.0,0.0,0.0,0.0,0.0,0.0,0.0,0.0,0.0,0.0,0.0,0.0,0.0,0.0,0.0,0.0,0.0,0.0,0.0,0.0,0.0,0.0,0.0,0.0,0.0,0.0,0.0,0.0,2.2263,2.276,2.3273,2.2643,2.2049,2.1504,0.0,0.0,0.0,0.0,0.0,0.0,0.0,0.0,0.0,0.0,0.0,0.0,0.0,0.0,0.0,0.0,0.0,0.0,0.0,0.0,0.0,0.0,0.0,0.0,0.0,0.0,0.0,0.0,0.0,0.0,0.0,0.0,0.0,0.0,0.0,0.0,0.0,0.0,0.0,0.0,0.0,0.0,0.0,0.0,0.0,0.0,0.0,0.0,0.0,0.0,0.0,0.0,0.0,0.0,0.0,0.0,0.0,0.0,0.0,0.0,0.0,0.0,0.0,0.0,0.0,0.0,0.0,0.0,0.0,0.0,0.0,0.0,0.0,0.0,0.0,0.0,0.0,0.0,0.0,0.0,0.0,0.0,0.0,0.0,0.0,0.0,0.0,0.0,0.0,0.0,0.0,0.0,0.0,0.0,0.0,0.0,0.0,0.0,0.0,0.0,0.0,0.0,0.0,0.0,0.0,0.0,0.0,0.0,2.1877,2.3372,2.4183,2.4145,2.4028,2.3206,0.0,0.0,0.0,0.0,0.0,0.0,0.0,0.0,0.0,0.0,0.0,0.0,0.0,0.0,0.0,0.0,0.0,0.0,0.0,0.0,0.0,0.0,0.0,0.0,0.0,0.0,0.0,0.0,0.0,0.0,0.0,0.0,0.0,0.0,0.0,0.0,0.0,0.0,0.0,0.0,0.0,0.0,0.0,0.0,0.0,0.0,0.0,0.0,0.0,0.0,0.0,0.0,0.0,0.0,0.0,0.0,0.0,0.0,0.0,0.0,0.0,0.0,0.0,0.0,0.0,0.0,0.0,0.0,0.0,0.0,0.0,0.0,0.0,0.0,0.0,0.0,0.0,0.0,0.0,0.0,0.0,0.0,0.0,0.0,0.0,0.0,0.0,0.0,0.0,0.0,0.0,0.0,0.0,0.0,0.0,0.0,0.0,0.0,0.0,0.0,0.0,0.0,0.0,0.0,0.0,0.0,0.0,0.0,0.0,2.3385,2.4494,2.5033,2.4965,2.4396,2.3515,0.0,0.0,0.0,0.0,0.0,0.0,0.0,0.0,0.0,0.0,0.0,0.0,0.0,0.0,0.0,0.0,0.0,0.0,0.0,0.0,0.0,0.0,0.0,0.0,0.0,0.0,0.0,0.0,0.0,0.0,0.0,0.0,0.0,0.0,0.0,0.0,0.0,0.0,0.0,0.0,0.0,0.0,0.0,0.0,0.0,0.0,0.0,0.0,0.0,0.0,0.0,0.0,0.0,0.0,0.0,0.0,0.0,0.0,0.0,0.0,0.0,0.0,0.0,0.0,0.0,0.0,0.0,0.0,0.0,0.0,0.0,0.0,0.0,0.0,0.0,0.0,0.0,0.0,0.0,0.0,0.0,0.0,0.0,0.0,0.0,0.0,0.0,0.0,0.0,0.0,0.0,0.0,0.0,0.0,0.0,0.0,0.0,0.0,0.0,0.0,0.0,0.0,0.0,0.0,0.0,0.0,0.0,0.0,0.0,2.4667,0.0,2.5472,2.5385,2.4793,2.4015,0.0,0.0,0.0,0.0,0.0,0.0,0.0,0.0,0.0,0.0,0.0,0.0,0.0,0.0,0.0,0.0,0.0,0.0,0.0,0.0,0.0,0.0,0.0,0.0,0.0,0.0,0.0,0.0,0.0,0.0,0.0,0.0,0.0,0.0,0.0,0.0,0.0,0.0,0.0,0.0,0.0,0.0,0.0,0.0,0.0,0.0,0.0,0.0,0.0,0.0,0.0,0.0,0.0,0.0,0.0,0.0,0.0,0.0,0.0,0.0,0.0,0.0,0.0,0.0,0.0,0.0,0.0,0.0,0.0,0.0,0.0,0.0,0.0,0.0,0.0,0.0,0.0,0.0,0.0,0.0,0.0,0.0,0.0,0.0,0.0,0.0,0.0,0.0,0.0,0.0,0.0,0.0,0.0,0.0,0.0,0.0,0.0,0.0,0.0,0.0,0.0,0.0,0.0,0.0,0.0,0.0,0.0,0.0,2.3918,2.5504,2.5536,2.5459,2.5398,2.5244,2.4758,0.0,0.0,0.0,0.0,0.0,0.0,0.0,0.0,0.0,0.0,0.0,0.0,0.0,0.0,0.0,0.0,0.0,0.0,0.0,0.0,0.0,0.0,0.0,0.0,0.0,0.0,0.0,0.0,0.0,0.0,0.0,0.0,0.0,0.0,0.0,0.0,0.0,0.0,0.0,0.0,0.0,0.0,0.0,0.0,0.0,0.0,0.0,0.0,0.0,0.0,0.0,0.0,0.0,0.0,0.0,0.0,0.0,0.0,0.0,0.0,0.0,0.0,0.0,0.0,0.0,0.0,0.0,0.0,0.0,0.0,0.0,0.0,0.0,0.0,0.0,0.0,0.0,0.0,0.0,0.0,0.0,0.0,0.0,0.0,0.0,0.0,0.0,0.0,0.0,0.0,0.0,0.0,0.0,0.0,0.0,0.0,0.0,0.0,0.0,0.0,0.0,0.0,0.0,0.0,0.0,0.0,0.0,0.0,0.0,2.5582,2.5549,2.5479,2.5398,2.5282,2.4804,0.0,0.0,0.0,0.0,0.0,0.0,0.0,0.0,0.0,0.0,0.0,0.0,0.0,0.0,0.0,0.0,0.0,0.0,0.0,0.0,0.0,0.0,0.0,0.0,0.0,0.0,0.0,0.0,0.0,0.0,0.0,0.0,0.0,0.0,0.0,0.0,0.0,0.0,0.0,0.0,0.0,0.0,0.0,0.0,0.0,0.0,0.0,0.0,0.0,0.0,0.0,0.0,0.0,0.0,0.0,0.0,0.0,0.0,0.0,0.0,0.0,0.0,0.0,0.0,0.0,0.0,0.0,0.0,0.0,0.0,0.0,0.0,0.0,0.0,0.0,0.0,0.0,0.0,0.0,0.0,0.0,0.0,0.0,0.0,0.0,0.0,0.0,0.0,0.0,0.0,0.0,0.0,0.0,0.0,0.0,0.0,0.0,0.0,0.0,0.0,0.0,0.0,0.0,0.0,0.0,0.0,0.0,0.0,0.0,2.6022,2.5975,2.5923,2.5851,2.5732,2.526,2.4338,0.0,0.0,0.0,0.0,0.0,0.0,0.0,0.0,0.0,0.0,0.0,0.0,0.0,0.0,0.0,0.0,0.0,0.0,0.0,0.0,0.0,0.0,0.0,0.0,0.0,0.0,0.0,0.0,0.0,0.0,0.0,0.0,0.0,0.0,0.0,0.0,0.0,0.0,0.0,0.0,0.0,0.0,0.0,0.0,0.0,0.0,0.0,0.0,0.0,0.0,0.0,0.0,0.0,0.0,0.0,0.0,0.0,0.0,0.0,0.0,0.0,0.0,0.0,0.0,0.0,0.0,0.0,0.0,0.0,0.0,0.0,0.0,0.0,0.0,0.0,0.0,0.0,0.0,0.0,0.0,0.0,0.0,0.0,0.0,0.0,0.0,0.0,0.0,0.0,0.0,0.0,0.0,0.0,0.0,0.0,0.0,0.0,0.0,0.0,0.0,0.0,0.0,0.0,0.0,0.0,0.0,0.0,0.0,2.6857,2.6858,2.6783,2.6602,2.6507,2.602,0.0,0.0,0.0,0.0,0.0,0.0,0.0,0.0,0.0,0.0,0.0,0.0,0.0,0.0,0.0,0.0,0.0,0.0,0.0,0.0,0.0,0.0,0.0,0.0,0.0,0.0,0.0,0.0,0.0,0.0,0.0,0.0,0.0,0.0,0.0,0.0,0.0,0.0,0.0,0.0,0.0,0.0,0.0,0.0,0.0,0.0,0.0,0.0,0.0,0.0,0.0,0.0,0.0,0.0,0.0,0.0,0.0,0.0,0.0,0.0,0.0,0.0,0.0,0.0,0.0,0.0,0.0,0.0,0.0,0.0,0.0,0.0,0.0,0.0,0.0,0.0,0.0,0.0,0.0,0.0,0.0,0.0,0.0,0.0,0.0,0.0,0.0,0.0,0.0,0.0,0.0,0.0,0.0,0.0,0.0,0.0,0.0,0.0,0.0,0.0,0.0,0.0,0.0,0.0,0.0,0.0,0.0,0.0,0.0,2.775,2.8321,2.7961,2.666,2.6485,2.5983,0.0,0.0,0.0,0.0,0.0,0.0,0.0,0.0,0.0,0.0,0.0,0.0,0.0,0.0,0.0,0.0,0.0,0.0,0.0,0.0,0.0,0.0,0.0,0.0,0.0,0.0,0.0,0.0,0.0,0.0,0.0,0.0,0.0,0.0,0.0,0.0,0.0,0.0,0.0,0.0,0.0,0.0,0.0,0.0,0.0,0.0,0.0,0.0,0.0,0.0,0.0,0.0,0.0,0.0,0.0,0.0,0.0,0.0,0.0,0.0,0.0,0.0,0.0,0.0,0.0,0.0,0.0,0.0,0.0,0.0,0.0,0.0,0.0,0.0,0.0,0.0,0.0,0.0,0.0,0.0,0.0,0.0,0.0,0.0,0.0,0.0,0.0,0.0,0.0,0.0,0.0,0.0,0.0,0.0,0.0,0.0,0.0,0.0,0.0,0.0,0.0,0.0,0.0,0.0,0.0,0.0,0.0,0.0,2.7298,2.8094,2.8869,2.8781,2.773,2.7206,2.6314,0.0,0.0,0.0,0.0,0.0,0.0,0.0,0.0,0.0,0.0,0.0,0.0,0.0,0.0,0.0,0.0,0.0,0.0,0.0,0.0,0.0,0.0,0.0,0.0,0.0,0.0,0.0,0.0,0.0,0.0,0.0,0.0,0.0,0.0,0.0,0.0,0.0,0.0,0.0,0.0,0.0,0.0,0.0,0.0,0.0,0.0,0.0,0.0,0.0,0.0,0.0,0.0,0.0,0.0,0.0,0.0,0.0,0.0,0.0,0.0,0.0,0.0,0.0,0.0,0.0,0.0,0.0,0.0,0.0,0.0,0.0,0.0,0.0,0.0,0.0,0.0,0.0,0.0,0.0,0.0,0.0,0.0,0.0,0.0,0.0,0.0,0.0,0.0,0.0,0.0,0.0,0.0,0.0,0.0,0.0,0.0,0.0,0.0,0.0,0.0,0.0,0.0,0.0,0.0,0.0,0.0,0.0,0.0,2.7391,2.8087,2.8985,2.9367,2.9178,2.8226,2.6861,0.0,0.0,0.0,0.0,0.0,0.0,0.0,0.0,0.0,0.0,0.0,0.0,0.0,0.0,0.0,0.0,0.0,0.0,0.0,0.0,0.0,0.0,0.0,0.0,0.0,0.0,0.0,0.0,0.0,0.0,0.0,0.0,0.0,0.0,0.0,0.0,0.0,0.0,0.0,0.0,0.0,0.0,0.0,0.0,0.0,0.0,0.0,0.0,0.0,0.0,0.0,0.0,0.0,0.0,0.0,0.0,0.0,0.0,0.0,0.0,0.0,0.0,0.0,0.0,0.0,0.0,0.0,0.0,0.0,0.0,0.0,0.0,0.0,0.0,0.0,0.0,0.0,0.0,0.0,0.0,0.0,0.0,0.0,0.0,0.0,0.0,0.0,0.0,0.0,0.0,0.0,0.0,0.0,0.0,0.0,0.0,0.0,0.0,0.0,0.0,0.0,0.0,0.0,0.0,0.0,0.0,0.0,0.0,2.8009,2.8196,2.9574,2.9967,2.9236,2.823,2.7166,0.0,0.0,0.0,0.0,0.0,0.0,0.0,0.0,0.0,0.0,0.0,0.0,0.0,0.0,0.0,0.0,0.0,0.0,0.0,0.0,0.0,0.0,0.0,0.0,0.0,0.0,0.0,0.0,0.0,0.0,0.0,0.0,0.0,0.0,0.0,0.0,0.0,0.0,0.0,0.0,0.0,0.0,0.0,0.0,0.0,0.0,0.0,0.0,1.5918,0.0,0.0,0.0,0.0,0.0,0.0,0.0,0.0,0.0,0.0,0.0,0.0,0.0,0.0,0.0,0.0,0.0,0.0,0.0,0.0,0.0,0.0,0.0,0.0,0.0,0.0,0.0,0.0,0.0,0.0,0.0,0.0,0.0,0.0,0.0,0.0,0.0,0.0,0.0,0.0,0.0,0.0,0.0,0.0,0.0,0.0,0.0,0.0,0.0,0.0,0.0,0.0,0.0,0.0,0.0,0.0,0.0,0.0,0.0,2.8197,2.8251,2.9797,3.0388,2.9786,2.8459,2.7292,0.0,0.0,0.0,0.0,0.0,0.0,0.0,0.0,0.0,0.0,0.0,0.0,0.0,0.0,0.0,0.0,0.0,0.0,0.0,0.0,0.0,0.0,0.0,0.0,0.0,0.0,0.0,0.0,0.0,0.0,0.0,0.0,0.0,0.0,0.0,0.0,0.0,0.0,0.0,0.0,0.0,0.0,0.0,0.0,0.0,0.0,0.0,0.0,0.0,0.0,0.0,0.0,0.0,0.0,0.0,0.0,0.0,0.0,0.0,0.0,0.0,0.0,0.0,0.0,0.0,0.0,0.0,0.0,0.0,0.0,0.0,0.0,0.0,0.0,0.0,0.0,0.0,0.0,0.0,0.0,0.0,0.0,0.0,0.0,0.0,0.0,0.0,0.0,0.0,0.0,0.0,0.0,0.0,0.0,0.0,0.0,0.0,0.0,0.0,0.0,0.0,0.0,0.0,0.0,0.0,0.0,0.0,2.7354,2.8189,2.8252,2.9842,3.0642,3.05,2.8762,2.7397,2.6491,0.0,0.0,0.0,0.0,0.0,0.0,0.0,0.0,0.0,0.0,0.0,0.0,0.0,0.0,0.0,0.0,0.0,0.0,0.0,0.0,0.0,0.0,0.0,0.0,0.0,0.0,0.0,0.0,0.0,0.0,0.0,0.0,0.0,0.0,0.0,0.0,0.0,0.0,1.8074,1.8912,0.0,0.0,0.0,0.0,0.0,0.0,0.0,0.0,1.7619,0.0,0.0,0.0,0.0,0.0,0.0,0.0,0.0,0.0,0.0,0.0,0.0,0.0,0.0,0.0,0.0,0.0,0.0,0.0,0.0,0.0,0.0,0.0,0.0,0.0,0.0,0.0,0.0,0.0,0.0,0.0,0.0,0.0,0.0,0.0,0.0,0.0,0.0,0.0,0.0,0.0,0.0,0.0,0.0,0.0,0.0,0.0,0.0,0.0,0.0,0.0,0.0,0.0,0.0,0.0,0.0,2.5687,2.7403,2.8268,2.824,2.9827,3.0671,3.0552,2.8821,2.7739,2.7275,0.0,0.0,0.0,0.0,0.0,0.0,0.0,0.0,0.0,0.0,0.0,0.0,0.0,0.0,0.0,0.0,0.0,0.0,0.0,0.0,0.0,0.0,0.0,0.0,0.0,0.0,0.0,0.0,0.0,0.0,0.0,0.0,0.0,0.0,0.0,0.0,0.0,0.0,0.0,1.9647,1.9639,0.0,0.0,0.0,0.0,0.0,0.0,0.0,0.0,1.7735,0.0,0.0,0.0,0.0,0.0,0.0,0.0,0.0,0.0,0.0,0.0,0.0,0.0,0.0,0.0,0.0,0.0,0.0,0.0,0.0,0.0,0.0,0.0,0.0,0.0,0.0,0.0,0.0,0.0,0.0,0.0,0.0,0.0,0.0,0.0,0.0,0.0,0.0,0.0,0.0,0.0,0.0,0.0,0.0,0.0,0.0,0.0,0.0,0.0,0.0,0.0,0.0,0.0,0.0,0.0,2.5696,2.7427,2.8271,2.8244,2.9839,3.0678,3.0563,2.885,2.78,0.0,0.0,0.0,0.0,0.0,0.0,0.0,0.0,0.0,0.0,0.0,0.0,0.0,0.0,0.0,0.0,0.0,0.0,0.0,0.0,0.0,0.0,0.0,0.0,0.0,0.0,0.0,0.0,0.0,0.0,0.0,0.0,0.0,0.0,0.0,0.0,0.0,0.0,0.0,0.0,1.9975,1.9854,1.9762,0.0,0.0,0.0,0.0,0.0,0.0,1.876,1.825,0.0,0.0,0.0,0.0,0.0,0.0,0.0,0.0,0.0,0.0,0.0,0.0,0.0,0.0,0.0,0.0,0.0,0.0,0.0,0.0,0.0,0.0,0.0,0.0,0.0,0.0,0.0,0.0,0.0,0.0,0.0,0.0,0.0,0.0,0.0,0.0,0.0,0.0,0.0,0.0,0.0,0.0,0.0,0.0,0.0,0.0,0.0,0.0,0.0,0.0,0.0,0.0,0.0,0.0,0.0,2.5934,2.7507,2.8369,2.8521,2.9927,3.0665,3.0574,2.885,2.7811,0.0,0.0,0.0,0.0,0.0,0.0,0.0,0.0,0.0,0.0,0.0,0.0,0.0,0.0,0.0,0.0,0.0,0.0,0.0,0.0,0.0,0.0,0.0,0.0,0.0,0.0,0.0,0.0,0.0,0.0,0.0,0.0,0.0,0.0,0.0,0.0,0.0,0.0,0.0,0.0,0.0,2.0045,1.9869,1.9797,0.0,0.0,0.0,0.0,1.9391,1.9101,0.0,0.0,0.0,0.0,0.0,0.0,0.0,0.0,0.0,0.0,0.0,0.0,0.0,0.0,0.0,0.0,0.0,0.0,0.0,0.0,0.0,0.0,0.0,0.0,0.0,0.0,0.0,0.0,0.0,0.0,0.0,0.0,0.0,0.0,0.0,0.0,0.0,0.0,0.0,0.0,0.0,0.0,0.0,0.0,0.0,0.0,0.0,0.0,0.0,0.0,0.0,0.0,0.0,0.0,0.0,0.0,2.6772,2.7811,2.8655,2.9347,3.0224,3.0672,3.0587,2.8849,2.78,0.0,0.0,0.0,0.0,0.0,0.0,0.0,0.0,0.0,0.0,0.0,0.0,0.0,0.0,0.0,0.0,0.0,0.0,0.0,0.0,0.0,0.0,0.0,0.0,0.0,0.0,0.0,0.0,0.0,0.0,0.0,0.0,0.0,0.0,0.0,0.0,0.0,0.0,0.0,0.0,0.0,2.0065,2.008,2.0025,1.9919,0.0,0.0,1.9705,1.9574,1.9376,0.0,0.0,0.0,0.0,0.0,0.0,0.0,0.0,0.0,0.0,0.0,0.0,0.0,0.0,0.0,0.0,0.0,0.0,0.0,0.0,0.0,0.0,0.0,0.0,0.0,0.0,0.0,0.0,0.0,0.0,0.0,0.0,0.0,0.0,0.0,0.0,0.0,0.0,0.0,0.0,0.0,0.0,0.0,0.0,0.0,0.0,0.0,0.0,0.0,0.0,0.0,0.0,0.0,0.0,0.0,2.438,2.6921,2.7864,2.8691,2.948,3.0277,3.0665,3.0602,2.8859,2.783,0.0,0.0,0.0,0.0,0.0,0.0,0.0,0.0,0.0,0.0,0.0,0.0,0.0,0.0,0.0,0.0,0.0,0.0,0.0,0.0,0.0,0.0,0.0,0.0,0.0,0.0,0.0,0.0,0.0,0.0,0.0,0.0,0.0,0.0,0.0,0.0,0.0,0.0,0.0,0.0,0.0,0.0,2.0254,2.0235,0.0,0.0,0.0,1.9904,1.9741,0.0,0.0,0.0,0.0,0.0,0.0,0.0,0.0,0.0,0.0,0.0,0.0,0.0,0.0,0.0,0.0,0.0,0.0,0.0,0.0,0.0,0.0,0.0,0.0,0.0,0.0,0.0,0.0,0.0,0.0,0.0,0.0,0.0,0.0,0.0,0.0,0.0,0.0,0.0,0.0,0.0,0.0,0.0,0.0,0.0,0.0,0.0,0.0,0.0,0.0,0.0,0.0,0.0,0.0,0.0,0.0,0.0,2.7286,2.7939,2.8785,2.9808,3.0389,3.0678,3.0593,2.9072,0.0,0.0,0.0,0.0,0.0,0.0,0.0,0.0,0.0,0.0,0.0,0.0,0.0,0.0,0.0,0.0,0.0,0.0,0.0,0.0,0.0,0.0,0.0,0.0,0.0,0.0,0.0,1.8631,0.0,0.0,0.0,0.0,0.0,0.0,0.0,0.0,0.0,0.0,0.0,0.0,0.0,0.0,2.0485,2.069,2.0705,2.0671,0.0,0.0,2.0299,1.997,1.9777,1.9487,0.0,0.0,0.0,0.0,0.0,0.0,0.0,0.0,0.0,0.0,0.0,0.0,0.0,0.0,0.0,0.0,0.0,0.0,0.0,0.0,0.0,0.0,0.0,0.0,0.0,0.0,0.0,0.0,0.0,0.0,0.0,0.0,0.0,0.0,0.0,0.0,0.0,0.0,0.0,0.0,0.0,0.0,0.0,0.0,0.0,0.0,0.0,0.0,0.0,0.0,0.0,0.0,0.0,0.0,2.5588,2.8106,2.8212,2.9016,3.0626,3.0689,3.0671,3.0582,2.9631,2.8702,0.0,0.0,0.0,0.0,0.0,0.0,0.0,0.0,0.0,0.0,0.0,0.0,0.0,0.0,0.0,0.0,0.0,0.0,0.0,0.0,0.0,0.0,0.0,0.0,0.0,0.0,0.0,0.0,0.0,0.0,0.0,0.0,0.0,0.0,0.0,0.0,0.0,0.0,0.0,0.0,0.0,2.0761,2.1416,2.153,2.153,0.0,2.1408,2.1069,2.0362,1.9975,1.9669,1.9413,0.0,0.0,0.0,0.0,0.0,0.0,0.0,0.0,0.0,0.0,0.0,0.0,0.0,0.0,0.0,0.0,0.0,0.0,0.0,0.0,0.0,0.0,0.0,0.0,0.0,0.0,0.0,0.0,0.0,0.0,0.0,0.0,0.0,0.0,0.0,0.0,0.0,0.0,0.0,0.0,0.0,0.0,0.0,0.0,0.0,0.0,0.0,0.0,0.0,0.0,0.0,0.0,0.0,2.5683,2.8254,2.8226,2.9032,3.0701,3.0736,3.0664,3.0613,2.968,2.876,0.0,0.0,0.0,0.0,0.0,0.0,0.0,0.0,0.0,0.0,0.0,0.0,0.0,0.0,0.0,0.0,0.0,0.0,0.0,0.0,0.0,0.0,0.0,0.0,0.0,0.0,0.0,0.0,2.1056,2.1284,2.1744,0.0,0.0,0.0,0.0,0.0,0.0,0.0,0.0,0.0,0.0,2.1521,2.1805,2.2201,0.0,0.0,2.1628,2.1253,2.0397,2.001,1.9741,1.945,1.8561,0.0,0.0,0.0,0.0,0.0,0.0,0.0,0.0,0.0,0.0,0.0,0.0,0.0,0.0,0.0,0.0,0.0,0.0,0.0,0.0,0.0,0.0,0.0,0.0,0.0,0.0,0.0,0.0,0.0,0.0,0.0,0.0,0.0,0.0,0.0,0.0,0.0,0.0,0.0,0.0,0.0,0.0,0.0,0.0,0.0,0.0,0.0,0.0,0.0,0.0,0.0,0.0,2.6225,2.8285,2.8493,2.9297,3.0769,3.073,3.0664,3.0585,2.9941,2.9166,0.0,0.0,0.0,0.0,0.0,0.0,0.0,0.0,0.0,0.0,0.0,0.0,0.0,0.0,0.0,0.0,0.0,0.0,0.0,0.0,0.0,0.0,0.0,0.0,0.0,0.0,0.0,0.0,2.1576,2.1608,2.1807,0.0,0.0,0.0,0.0,0.0,0.0,0.0,0.0,0.0,0.0,2.2186,2.2585,2.3064,2.3108,2.2353,2.2083,2.1592,2.0531,2.008,1.9777,1.9508,0.0,0.0,0.0,0.0,0.0,0.0,0.0,0.0,0.0,0.0,0.0,0.0,0.0,0.0,0.0,0.0,0.0,0.0,0.0,0.0,0.0,0.0,0.0,0.0,0.0,0.0,0.0,2.134,0.0,0.0,2.0249,0.0,0.0,0.0,0.0,0.0,0.0,0.0,0.0,0.0,0.0,0.0,0.0,0.0,0.0,0.0,0.0,0.0,0.0,0.0,0.0,0.0,0.0,2.7365,2.8301,2.9051,2.9877,3.0764,3.0736,3.0664,3.0602,3.052,3.0046,2.9156,0.0,0.0,0.0,0.0,0.0,0.0,0.0,0.0,0.0,0.0,0.0,0.0,0.0,0.0,0.0,0.0,0.0,0.0,0.0,0.0,0.0,0.0,0.0,0.0,0.0,0.0,2.1729,2.2071,2.2147,0.0,0.0,0.0,0.0,0.0,0.0,0.0,0.0,0.0,0.0,2.2061,2.2607,2.3955,2.4143,2.3919,2.3072,2.288,2.2263,2.0761,2.0216,1.9919,0.0,0.0,0.0,0.0,0.0,0.0,0.0,0.0,0.0,0.0,0.0,0.0,0.0,0.0,0.0,0.0,0.0,0.0,0.0,0.0,0.0,0.0,0.0,0.0,0.0,0.0,0.0,2.2129,2.2102,0.0,0.0,0.0,0.0,0.0,0.0,0.0,0.0,0.0,0.0,0.0,2.6738,2.7089,0.0,0.0,0.0,0.0,0.0,0.0,0.0,0.0,0.0,0.0,0.0,0.0,2.742,2.8216,2.9071,2.9912,3.0714,3.0697,3.0665,3.061,3.0586,3.0085,2.9087,0.0,0.0,0.0,0.0,0.0,0.0,0.0,0.0,0.0,0.0,0.0,0.0,0.0,0.0,0.0,0.0,0.0,0.0,0.0,0.0,0.0,0.0,0.0,0.0,0.0,2.2106,0.0,0.0,0.0,0.0,0.0,0.0,0.0,0.0,0.0,0.0,0.0,2.2118,2.2312,2.3221,2.4035,2.447,2.4883,2.482,0.0,0.0,0.0,0.0,0.0,0.0,0.0,0.0,0.0,0.0,0.0,0.0,0.0,0.0,1.7444,1.6319,1.5492,1.4943,1.4737,0.0,0.0,0.0,0.0,0.0,0.0,0.0,0.0,0.0,0.0,0.0,0.0,0.0,0.0,2.3348,2.3284,2.2787,0.0,0.0,0.0,0.0,0.0,0.0,0.0,0.0,2.6853,2.744,2.7989,2.8055,2.8099,0.0,2.8194,2.7043,0.0,0.0,0.0,0.0,0.0,0.0,0.0,0.0,2.7819,2.8653,2.9507,3.019,3.0664,3.0697,3.0665,3.0637,3.0604,3.0115,2.9075,2.7917,2.6975,0.0,0.0,0.0,0.0,0.0,0.0,0.0,0.0,0.0,0.0,0.0,0.0,0.0,0.0,0.0,0.0,0.0,0.0,0.0,0.0,0.0,0.0,0.0,2.2641,0.0,0.0,0.0,0.0,0.0,0.0,0.0,0.0,0.0,2.1936,2.2508,2.3047,2.3258,2.4159,2.4863,2.5036,0.0,0.0,0.0,0.0,0.0,0.0,0.0,2.1264,2.0602,2.0561,2.0487,2.0096,2.0063,1.9998,1.9836,0.0,0.0,1.7913,1.7015,1.6442,1.6156,1.5776,1.5365,1.496,1.513,1.5365,0.0,0.0,0.0,0.0,0.0,0.0,0.0,0.0,2.5616,2.496,0.0,2.3417,0.0,0.0,0.0,0.0,2.5397,2.6233,0.0,0.0,2.7941,2.801,2.8144,2.8189,2.8198,2.8255,2.8363,2.8353,2.8252,2.7471,0.0,0.0,0.0,0.0,0.0,0.0,2.868,2.9537,3.038,3.0817,3.082,3.0821,3.0794,3.0797,3.0692,3.0201,2.9248,2.9056,2.8204,2.6556,2.6336,0.0,0.0,0.0,0.0,0.0,0.0,0.0,0.0,0.0,0.0,0.0,0.0,0.0,0.0,0.0,0.0,0.0,0.0,0.0,0.0,2.3059,0.0,0.0,0.0,0.0,0.0,0.0,0.0,0.0,0.0,0.0,2.2865,2.3408,2.408,2.472,0.0,0.0,0.0,0.0,2.5419,2.4588,2.4275,2.3798,2.2881,2.2399,2.2041,2.1831,0.0,0.0,2.0839,2.0599,2.0399,2.0124,2.0366,2.0267,1.9285,1.8686,1.8248,1.7879,1.7398,1.7051,1.6761,1.6332,1.6081,2.8631,0.0,0.0,0.0,0.0,2.7255,2.7219,2.7201,2.6766,2.6556,2.6585,2.6174,0.0,0.0,0.0,0.0,0.0,0.0,2.7923,2.8752,2.8797,2.9494,3.0693,3.0714,3.1069,3.1728,3.1184,3.0925,3.0915,2.9547,2.8532,2.7945,0.0,0.0,0.0,0.0,2.9552,3.0429,3.1237,3.1941,3.2551,3.2551,3.2543,3.2485,3.1824,3.1313,3.0959,2.9748,2.8802,2.8198,2.7565,0.0,0.0,0.0,0.0,0.0,0.0,0.0,0.0,0.0,0.0,0.0,0.0,0.0,0.0,0.0,0.0,0.0,0.0,0.0,2.3399,2.3454,2.3412,0.0,0.0,0.0,0.0,0.0,0.0,0.0,0.0,0.0,2.4646,2.4796,2.498,0.0,0.0,2.5886,2.5905,2.5864,2.5652,2.518,2.5013,0.0,2.349,2.3111,2.2723,2.207,2.1932,2.193,2.2044,2.1936,2.1696,2.1375,2.1732,2.1833,2.1166,2.0074,1.9195,1.8731,1.824,1.7781,1.7443,1.7255,1.7269,2.9438,2.9363,2.8536,2.8181,2.8182,2.8108,2.8127,2.809,2.7772,2.7658,2.7708,2.7455,2.7333,2.7361,2.7426,0.0,0.0,0.0,2.9231,3.0112,3.0475,3.1253,3.2224,3.2287,3.2609,3.3139,3.2737,3.253,3.2576,3.1585,3.085,3.0272,0.0,0.0,2.9273,2.978,3.0604,3.1797,3.2283,3.2772,3.3291,3.3283,3.3254,3.3203,3.2647,3.2155,3.1737,3.0709,2.9771,2.8989,2.8433,2.7684,0.0,0.0,0.0,0.0,0.0,0.0,0.0,0.0,0.0,0.0,0.0,2.1295,2.21,0.0,0.0,0.0,2.3616,2.3919,2.4251,2.4455,0.0,0.0,0.0,0.0,0.0,0.0,0.0,2.5064,2.5385,2.5711,2.5966,2.5966,2.5849,2.5663,2.6012,2.6225,2.601,0.0,2.5824,2.5508,2.5317,2.498,2.4218,2.3807,2.3386,2.2641,2.2699,2.2817,2.2933,2.2985,2.2901,2.2665,2.2729,2.2722,2.2271,2.1302,2.0476,2.0065,1.9547,1.9059,1.8604,1.8385,1.8344,3.0066,3.0723,2.9997,2.9698,2.9698,2.9716,2.9698,2.9642,2.8913,2.8634,2.8632,2.79,2.7633,2.7697,2.7759,0.0,2.9197,3.0032,3.0847,3.1725,3.2532,3.2974,3.3075,3.3172,3.3246,3.3306,3.3382,3.3388,3.3395,3.3388,3.3385,3.33,3.0272,2.9468,3.093,3.1008,3.1817,3.3453,3.3426,3.3427,3.3505,3.349,3.346,3.3436,3.3341,3.2918,3.2058,3.1879,3.103,2.9413,2.9181,2.8649,2.768,0.0,0.0,0.0,0.0,0.0,0.0,0.0,0.0,0.0,0.0,0.0,0.0,0.0,0.0,0.0,2.4972,0.0,2.5143,2.5778,0.0,0.0,0.0,2.5737,2.5534,2.5324,2.5467,2.6109,0.0,0.0,2.6791,2.6792,2.664,2.6365,2.633,2.6225,2.6046,2.5954,2.5824,2.5616,2.5317,2.506,2.486,2.4539,2.4122,2.3585,2.3756,2.3826,2.3631,2.3752,2.3895,2.3585,2.3398,2.3151,2.2736,2.2372,2.2095,2.1637,2.1008,2.0435,1.9878,1.9426,1.9055,3.1343,3.1511,3.1325,3.1334,3.1397,3.1355,3.1374,3.1397,3.1147,3.1075,3.114,3.0993,3.0959,3.1036,3.1162,3.1343,3.1602,3.1939,3.2225,3.2465,3.276,3.3269,3.3917,3.3998,3.4395,3.501,3.4503,3.4224,3.4266,3.37,3.3378,3.3359,3.2594,3.238,3.2767,3.2795,3.3288,3.4311,3.4294,3.4581,3.5189,3.5205,3.5189,3.5169,3.4542,3.407,3.379,3.3111,3.2254,3.1141,3.0963,3.0174,2.8668,2.8274,0.0,0.0,0.0,0.0,0.0,0.0,0.0,0.0,0.0,2.3188,2.4003,0.0,2.5116,0.0,2.5886,2.6243,2.6155,2.6191,0.0,0.0,2.5978,2.6027,2.6436,2.6342,2.6423,2.6899,2.6891,2.6882,2.6892,2.6876,2.6742,2.6503,2.645,2.6364,2.6046,2.5954,2.5787,2.554,2.531,2.5179,2.5404,2.5461,2.5183,2.4828,2.4644,2.452,2.4304,2.4105,2.3886,2.3695,2.3753,2.369,2.3305,2.3241,2.2992,2.2449,2.1397,2.0469,2.0006,1.9556,1.9199,3.1936,3.2252,3.2252,3.2521,3.2887,3.2162,3.1868,3.1908,3.1886,3.1908,3.1952,3.2037,3.212,3.2182,3.2298,3.2372,3.2444,3.2942,3.3214,3.3299,3.3748,3.426,3.473,3.4821,3.5145,3.5637,3.5252,3.5104,3.5106,3.4705,3.4507,3.4565,3.455,3.4558,3.4537,3.4168,3.4384,3.5168,3.5176,3.5379,3.5791,3.5795,3.5807,3.5791,3.5346,3.4874,3.4449,3.3954,3.3252,3.2312,3.1834,3.1103,3.0065,2.9217,2.8574,0.0,0.0,0.0,0.0,0.0,0.0,0.0,0.0,0.0,0.0,0.0,2.6283,2.6191,2.6816,2.7172,2.7105,2.7232,2.7332,2.7272,2.7094,2.7111,2.736,2.7247,2.7204,2.7303,2.7244,2.7255,2.7418,2.7402,2.7402,2.7477,2.7456,2.7231,2.6607,2.6414,2.6341,2.6301,2.611,2.5894,2.588,2.5743,2.5615,2.5269,2.5116,2.502,2.4897,2.4779,2.4565,2.4352,2.4341,2.4182,2.3743,2.356,2.3258,2.2628,2.1813,2.1033,2.0453,2.0025,1.9702,3.2317,3.2964,3.2945,3.342,3.3988,3.2646,3.2098,3.2098,3.2098,3.2162,3.2206,3.2334,3.24,3.2422,3.2541,3.2638,3.2767,3.3577,3.4004,3.4181,3.4929,3.5335,3.5398,3.5509,3.5584,3.5593,3.5737,3.5799,3.5807,3.5851,3.5926,3.6005,3.6015,3.601,3.5974,3.5229,3.5208,3.5869,3.5891,3.5872,3.5818,3.5791,3.5823,3.5807,3.5801,3.5454,3.469,3.4584,3.4135,3.3215,3.2428,3.1892,3.1599,3.0194,2.9298,0.0,2.8316,0.0,0.0,0.0,0.0,0.0,0.0,0.0,0.0,2.721,2.7269,2.7233,2.7781,2.812,2.7974,2.8479,2.8761,2.8637,2.8484,2.8336,2.8251,2.8081,2.7924,2.7805,2.765,2.7717,2.8152,2.8186,2.8318,2.8535,2.8561,2.8265,2.7547,2.718,2.7157,2.7476,2.727,2.6823,2.6291,2.6027,2.5881,2.5623,2.556,2.5512,2.5512,2.5488,2.5397,2.5203,2.4824,2.4421,2.4008,2.3569,2.3163,2.2469,2.2063,2.1592,2.1026,2.0568,2.0281,3.3647,3.3776,3.3758,3.3869,3.3986,3.3722,3.3642,3.3751,3.3751,3.378,3.3846,3.3938,3.3982,3.4067,3.4175,3.4297,3.4356,3.4586,3.4755,3.4899,3.5117,3.5254,3.533,3.546,3.5554,3.5601,3.5679,3.5743,3.5801,3.5855,3.5931,3.6016,3.6011,3.6015,3.6005,0.0,0.0,0.0,3.5897,3.5885,3.5898,3.5885,3.5891,3.5891,3.583,0.0,3.5568,3.5505,3.5048,3.4193,3.387,0.0,0.0,0.0,0.0,0.0,0.0,0.0,0.0,0.0,0.0,0.0,2.8332,2.7982,2.7347,2.7753,2.8297,2.8871,2.8971,2.8935,2.8868,2.8814,2.8785,2.8761,2.8536,2.8578,2.8984,2.8947,2.8986,2.9338,2.9343,2.9194,2.9042,2.8954,2.8897,2.8787,2.8678,2.871,2.873,2.8158,2.772,2.749,2.7557,2.7364,2.69,2.7085,2.713,2.6878,2.6483,2.627,2.6101,2.5755,2.5439,2.5244,2.4892,2.4447,2.3995,2.3509,2.2957,2.2359,2.1999,2.1561,2.1031,2.0658,2.0205,3.3895,3.3895,3.3895,3.3921,0.0,3.3965,3.3998,3.408,3.4136,3.4184,3.4245,3.4316,3.4404,3.445,3.4602,3.4708,3.4809,3.487,3.4983,3.5092,3.5141,3.5239,3.5315,3.5427,3.5528,3.5596,3.5667,3.5727,3.5795,3.5866,3.5914,3.5946,3.5986,3.6015,3.6013,3.6021,3.5978,3.588,3.5894,3.5883,3.5885,3.5898,3.5892,3.5885,3.5852,0.0,0.0,0.0,0.0,0.0,0.0,0.0,0.0,3.3102,0.0,3.211,3.168,3.1236,3.0757,3.0304,3.0236,3.0573,3.0579,3.0002,2.864,2.8783,2.9081,2.9415,2.9638,2.9787,2.9761,2.9881,2.997,2.9937,2.971,2.9671,2.9792,2.9745,2.9691,2.9754,2.9793,2.9798,2.9793,2.9809,2.978,2.9777,2.9789,2.9709,2.9584,2.9009,2.8444,2.8263,2.8212,2.8062,2.7616,2.7633,2.769,2.7284,2.6922,2.6592,2.634,2.5907,2.5522,2.5174,2.4835,2.4447,2.3865,2.3378,2.2884,2.2371,2.1949,2.1498,2.0914,2.0518,2.0129,3.378,3.378,3.3762,3.3807,3.3842,3.387,3.3905,3.3998,3.4068,0.0,0.0,3.4269,3.434,3.4427,3.4517,3.4645,3.4788,3.4849,3.4964,3.5075,3.5162,3.5226,3.5285,3.5412,3.5495,3.5591,3.5654,3.5728,3.5803,3.5864,3.5889,3.5912,3.5957,3.6011,3.6016,3.6005,3.5981,3.5919,3.5914,3.5924,3.5917,3.5897,3.5891,3.5892,3.5892,3.5872,3.5826,3.5799,3.5736,3.5609,3.4979,3.4558,3.443,3.3763,3.3263,3.3056,3.3053,3.2934,3.2737,3.2688,3.2607,3.2597,3.2476,3.1784,3.0336,3.0114,3.0018,2.994,3.0346,3.0618,3.06,3.0931,3.1182,3.1075,3.0928,3.0747,3.0617,3.0561,3.0445,3.0225,3.028,3.03,3.0565,3.0595,3.0687,3.0847,3.0794,3.0766,3.0251,2.958,2.9087,2.9037,2.8826,2.8558,2.8186,2.794,2.769,2.7284,2.7041,2.6727,2.634,2.5948,2.5564,2.5104,2.4778,2.439,2.3806,2.339,2.2909,2.2309,2.1949,2.1509,2.0862,2.0388,2.0042,3.3633,3.3633,3.3633,3.3671,3.3707,3.3725,3.3805,3.3928,3.4074,3.4124,3.4142,3.4245,3.434,3.4386,3.4473,3.4583,3.4727,3.4788,3.4868,3.4927,3.5075,3.5162,3.5226,3.5285,3.5388,3.5515,3.5589,3.5687,3.5784,3.5818,3.5833,3.5895,3.5965,3.6007,3.6016,3.6005,3.5991,3.5988,3.599,3.5981,3.5977,3.5929,3.5885,3.588,3.5897,3.5898,3.5872,3.5834,3.5773,3.5699,3.5523,3.5411,3.5415,3.5213,3.4796,3.4083,3.3947,3.358,3.2861,3.2781,3.2707,3.2616,3.2458,3.2276,3.1977,3.1804,3.1722,3.1659,3.1496,3.1399,3.1335,3.1311,3.1265,3.1092,3.0926,3.0962,3.1364,3.1345,3.1432,3.1638,3.1795,3.1601,3.1396,3.1336,3.124,3.1157,3.0986,3.0717,3.0274,2.9777,2.9435,2.9243,2.8998,2.8684,2.8348,2.8103,2.7806,2.7437,2.7144,2.6832,2.6379,2.6002,2.5605,2.5216,2.4835,2.4447,2.3936,2.345,2.2909,2.2309,2.1949,2.1498,2.0828,2.0518,2.014,3.4889,3.4918,3.4889,3.4918,3.4958,3.4997,3.5036,3.5092,3.5266,3.4855,3.4136,3.4173,3.4245,3.434,3.4409,3.4517,3.4645,3.4747,3.4849,3.4889,3.5057,3.5126,3.5209,3.527,3.5379,3.5495,3.5565,3.5646,3.5747,3.5779,3.584,3.5889,3.5974,3.6005,3.6016,3.6013,3.6005,3.601,3.602,3.6009,3.6005,3.5981,3.5934,3.589,3.5899,3.5883,3.5898,3.5872,3.5815,3.5745,3.5699,3.5629,3.5615,3.557,3.5367,3.495,3.4866,3.4666,3.4246,3.4189,3.4098,3.3987,3.3862,3.3771,3.3676,3.2669,3.2058,3.2032,3.2126,3.2231,3.2173,3.2375,3.2429,3.2249,3.2115,3.2079,3.2133,3.2125,3.2119,3.2144,3.2108,3.2018,3.1746,3.16,3.1411,3.123,3.0945,3.0576,3.0231,2.987,2.9576,2.9305,2.8998,2.87,2.846,2.8168,2.7855,2.7539,2.7284,2.6922,2.6472,2.6111,2.5729,2.5272,2.4892,2.4505,2.4008,2.3463,2.2909,2.242,2.1999,2.1486,2.0955,2.0388,1.9802,3.5908,3.5908,3.5908,3.589,3.5951,3.6024,3.6083,3.6083,3.6229,3.5689,3.467,3.4629,3.4705,3.4828,3.4918,3.503,3.5124,3.5084,3.5093,3.5135,3.5115,3.5127,3.5193,3.527,3.5383,3.5474,3.556,3.5623,3.5678,3.5756,3.585,3.5911,3.5955,3.6003,3.6014,3.6015,3.6014,3.6003,3.6013,3.6004,3.6013,3.6009,3.5986,3.5938,3.5909,3.5899,3.5891,3.5892,3.5864,3.5799,3.5756,3.5689,3.5618,3.5615,3.557,3.5528,3.5496,3.5457,3.5379,3.532,3.5245,3.511,3.502,3.4908,3.4695,3.3419,3.2542,3.259,3.2887,3.3044,3.3025,3.3303,3.3502,3.3327,3.3178,3.2921,3.2705,3.2606,3.2506,3.2284,3.2144,3.2037,3.1856,3.162,3.1432,3.1213,3.0814,3.0485,3.0258,3.0027,2.9677,2.9425,2.9075,2.8779,2.8493,2.825,2.8005,2.7675,2.7437,2.7063,2.6683,2.6326,2.5948,2.5439,2.5005,2.4607,2.4099,2.3569,2.3017,2.2543,2.2049,2.1561,2.0967,2.027,1.9539,3.5576,3.554,3.5612,3.562,3.5802,3.5957,3.6055,3.6085,3.6102,3.6098,3.6048,3.6251,3.6385,3.65,3.6503,3.6565,3.663,3.607,3.5859,3.5828,3.5344,3.5092,3.5223,3.5296,3.533,3.5484,3.5631,3.5763,3.5773,3.5834,3.5862,3.5903,3.5974,3.6052,3.6038,3.6013,3.6016,3.6015,3.6012,3.6003,3.601,3.602,3.5997,3.5978,3.5919,3.5885,3.5889,3.5879,3.5864,3.5818,3.5793,3.5757,3.5688,3.5618,3.5593,3.5584,3.5547,3.5443,3.533,3.5315,3.5258,3.511,3.4964,3.487,3.4809,3.4411,3.4184,3.4078,3.3963,3.382,3.3769,3.368,3.3509,3.3328,3.3201,3.3011,3.2787,3.269,3.2557,3.2388,3.2232,3.2037,3.1912,3.1696,3.1473,3.1213,3.0952,3.0651,3.0426,3.013,2.9837,2.9661,2.938,2.9045,2.8779,2.8556,2.8201,2.7855,2.7554,2.7233,2.6817,2.6394,2.6002,2.5619,2.5174,2.4721,2.4247,2.3793,2.3223,2.285,2.2282,2.167,2.0948,2.038,1.9809,3.6754,3.6789,3.6789,3.6892,3.7012,3.7192,3.7257,3.7257,3.7398,3.7491,3.7583,3.7768,3.7405,3.6663,3.6705,3.6807,3.6919,3.6719,3.6641,3.6732,3.6537,3.6502,3.6595,3.6663,3.6763,3.6865,3.6969,3.7045,3.7093,3.7269,3.7358,3.7313,3.6957,3.6711,3.6735,3.6257,3.6011,3.6016,3.6015,3.6011,3.6013,3.6007,3.6004,3.6001,3.597,3.5938,3.5904,3.5883,3.5892,3.5857,3.5826,3.5784,3.5718,3.5669,3.5646,3.5589,3.554,3.5463,3.5315,3.5315,3.5239,3.511,3.502,3.4927,3.4809,3.4583,3.445,3.4381,3.4148,3.3979,3.3899,3.3698,3.352,3.337,3.3214,3.3042,3.2884,3.2722,3.2557,3.2491,3.2284,3.2108,3.202,3.177,3.1493,3.1235,3.1072,3.0855,3.0551,3.0342,3.0113,2.9837,2.9633,2.938,2.9029,2.8652,2.8363,2.8103,2.774,2.7386,2.7003,2.6606,2.619,2.5784,2.5424,2.4916,2.435,2.3936,2.3394,2.3158,2.2891,2.2372,2.1784,2.1263,2.0777,3.7558,3.7595,3.7631,3.7739,3.7828,3.8002,3.8052,3.8101,3.8234,3.8382,3.8465,3.8578,3.8125,3.7285,3.7285,3.7426,3.7561,3.7454,3.7483,3.7599,3.748,3.7469,3.7585,3.7678,3.7766,3.7904,3.7943,3.804,3.8124,3.8287,3.838,3.8291,3.7845,3.7586,3.7558,3.6964,3.6687,3.6697,3.6699,3.6717,3.6708,3.6484,3.6245,3.6043,3.602,3.5974,3.5919,3.5919,3.5897,3.5898,3.583,3.5763,3.5727,3.5718,3.5667,3.5601,3.554,3.5463,3.5315,3.5315,3.5239,3.511,3.5038,3.4946,3.479,3.4645,3.4495,3.4404,3.4197,3.403,3.3917,3.3716,3.3549,3.3411,3.3244,3.3055,3.2948,3.2737,3.2623,3.2523,3.2371,3.2196,3.2054,3.1821,3.1582,3.1368,3.123,3.1112,3.0773,3.0609,3.0342,3.0027,2.9897,2.9589,2.9152,2.8795,2.8477,2.825,2.794,2.7539,2.7203,2.689,2.6676,2.6384,2.591,2.5592,2.5314,2.4726,2.3923,2.3726,2.3418,2.2989,2.2476,2.2036,2.1538,3.7297,3.7334,3.7503,3.7594,3.7613,3.781,3.7933,3.7984,3.8086,3.8186,3.8322,3.8465,3.8535,3.8517,3.8681,3.899,3.9111,3.8452,3.8263,3.8373,3.7802,3.7507,3.7585,3.7678,3.7823,3.8118,3.8212,3.8252,3.8322,3.8354,3.8336,3.8421,3.8461,3.8441,3.8438,3.8319,3.8358,3.8227,3.8259,3.8398,3.832,3.7628,3.6872,3.6245,3.6024,3.6001,3.5994,3.5929,3.5889,3.5889,3.584,3.5795,3.5791,3.5727,3.5678,3.5616,3.5528,3.5443,3.533,3.5315,3.5239,3.5127,3.5038,3.4946,3.4809,3.4666,3.4539,3.4427,3.4269,3.4124,3.3979,3.3762,3.3567,3.3495,3.3262,3.3104,3.2993,3.287,3.2722,3.2623,3.2491,3.2267,3.1962,3.1834,3.1709,3.1576,3.1363,3.119,3.1072,3.0773,3.0568,3.0384,3.007,2.9633,2.9198,2.8936,2.87,2.8616,2.8366,2.7825,2.7587,2.7398,2.7245,2.7046,2.6842,2.6594,2.6391,2.5844,2.4963,2.4471,2.3966,2.3447,2.3144,2.2376,2.1956,3.6987,3.7143,3.7334,3.741,3.7447,3.7631,3.7739,3.7739,3.7967,3.8086,3.8186,3.835,3.8528,3.8689,3.8851,3.9054,3.9165,3.901,3.9033,3.9105,3.8958,3.8956,3.9062,3.9184,3.928,3.9372,3.9495,3.9638,3.9773,3.9828,3.9896,3.9869,3.9457,3.9232,3.9214,3.8775,3.8506,3.8512,3.8522,3.8568,3.8632,3.83,3.7963,3.7616,3.6557,3.6004,3.602,3.5981,3.5948,3.5889,3.5872,3.583,3.5799,3.5737,3.5667,3.562,3.5572,3.5509,3.5379,3.5315,3.5239,3.511,3.5075,3.4983,3.4829,3.4727,3.4583,3.4427,3.4288,3.4148,3.4005,3.3815,3.3642,3.356,3.3376,3.3183,3.3073,3.2948,3.2838,3.274,3.2558,3.2319,3.2126,3.1965,3.1856,3.1709,3.1559,3.1406,3.123,3.1015,3.0855,3.0551,3.0342,3.007,2.9649,2.9243,2.903,2.915,2.9039,2.891,2.8727,2.8464,2.8303,2.7826,2.7631,2.7248,2.687,2.6269,2.5586,2.5099,2.4584,2.4186,2.3931,2.3183,2.2778,3.6766,3.6908,3.7105,3.722,3.722,3.7392,3.7558,3.7613,3.7774,3.7949,3.8086,3.8252,3.8433,3.8609,3.878,3.8892,3.9064,3.9275,3.9432,3.9526,3.9642,3.9758,3.9911,4.0055,4.0138,4.0215,4.036,4.0527,4.0626,4.0688,4.0761,4.0751,4.0267,4.006,4.0038,3.9578,3.9301,3.9306,3.9325,3.9379,3.9391,3.914,3.9023,3.8821,3.76,3.683,3.6843,3.6583,3.6372,3.6294,3.6053,3.5872,3.5799,3.5737,3.5678,3.5604,3.5616,3.5534,3.5441,3.535,3.5254,3.5126,3.5129,3.502,3.4868,3.4788,3.4645,3.4495,3.434,3.4203,3.4062,3.3876,3.3707,3.3619,3.3418,3.3274,3.3165,3.3011,3.2884,3.2773,3.2592,3.2422,3.2267,3.2091,3.1984,3.191,3.1783,3.1596,3.1445,3.1269,3.1112,3.079,3.0817,3.0764,3.0598,3.0419,2.9878,2.9878,2.984,2.9785,2.9735,2.9495,2.9141,2.8699,2.8201,2.7726,2.7225,2.6648,2.6149,2.5707,2.5245,2.4883,2.4482,2.407,2.3447,3.6702,3.6725,3.6908,3.6987,3.7009,3.722,3.741,3.754,3.7631,3.7792,3.8002,3.8068,3.8234,3.8433,3.864,3.8762,3.895,3.9221,3.9406,3.9521,3.9642,3.9758,3.987,4.0036,4.0118,4.0196,4.0408,4.0508,4.0519,4.0615,4.0694,4.0718,4.078,4.0723,4.0878,4.0758,4.0851,4.0791,4.0793,4.0932,4.0996,4.0249,3.9902,3.9824,3.9035,3.8595,3.8593,3.7764,3.7265,3.7136,3.6489,3.5957,3.5924,3.5766,3.5669,3.5607,3.5608,3.5566,3.5507,3.5379,3.5285,3.5209,3.5126,3.5057,3.4908,3.483,3.4747,3.4602,3.4473,3.434,3.4197,3.4023,3.3852,3.3613,3.3499,3.3382,3.3292,3.3122,3.2948,3.2805,3.2641,3.2473,3.2388,3.2267,3.2144,3.2073,3.1946,3.18,3.1743,3.1564,3.1336,3.1314,3.1508,3.1672,3.1737,3.1733,3.1144,3.0688,3.0573,3.0499,3.0463,3.0268,2.9984,2.9522,2.8947,2.8443,2.7749,2.7183,2.6716,2.6239,2.5873,2.5394,2.4838,2.4334,2.3824,3.6561,3.6602,3.6725,3.6846,3.6851,3.7027,3.722,3.741,3.7558,3.7739,3.7916,3.8052,3.8219,3.8415,3.8609,3.878,3.8892,3.9092,3.9283,3.9413,3.957,3.9689,3.9781,3.9954,4.0099,4.0177,4.0306,4.0408,4.0508,4.0549,4.0621,4.0694,4.073,4.0818,4.0898,4.0943,4.0957,4.1007,4.1031,4.1057,4.1088,4.0862,4.0715,4.07,4.0449,4.031,4.0251,3.891,3.8151,3.8096,3.7839,3.7404,3.674,3.6047,3.5699,3.5678,3.5623,3.5565,3.5522,3.5455,3.535,3.5242,3.5176,3.5072,3.4945,3.4908,3.481,3.4626,3.4561,3.445,3.4245,3.4148,3.4016,3.3771,3.3595,3.3452,3.3334,3.3152,3.2997,3.2884,3.2773,3.2674,3.2557,3.2422,3.2336,3.2267,3.2126,3.1965,3.1906,3.2135,3.2234,3.2083,3.2395,3.2696,3.2636,3.2714,3.2541,3.1935,3.1612,3.1347,3.1282,3.1016,3.0715,3.0145,2.9633,2.898,2.8287,2.7709,2.7188,2.6577,2.6094,2.5535,2.5028,2.4539,2.4043,3.6419,3.6461,3.6585,3.6643,3.6708,3.6869,3.7009,3.722,3.7392,3.7594,3.7828,3.7967,3.8119,3.8318,3.8496,3.867,3.884,3.8968,3.912,3.9309,3.9496,3.9599,3.9712,3.9911,4.0078,4.0196,4.0233,4.0306,4.0444,4.0492,4.0549,4.0635,4.0668,4.073,4.0828,4.0869,4.0924,4.0964,4.1,4.1031,4.1061,4.1081,4.1114,4.1101,4.1108,4.1112,4.1016,3.9995,3.9298,3.8982,3.8702,3.8189,3.7572,3.7025,3.6687,3.6589,3.6295,3.6064,3.5971,3.5707,3.5432,3.5273,3.5226,3.5141,3.5038,3.4983,3.4831,3.4751,3.4645,3.4517,3.4363,3.4245,3.4124,3.3972,3.3753,3.3549,3.3422,3.3214,3.3091,3.2979,3.2884,3.2787,3.2722,3.2539,3.2473,3.2422,3.2319,3.237,3.24,3.2686,3.2767,3.2974,3.3422,3.3532,3.3439,3.3603,3.3822,3.3356,3.2822,3.2447,3.2222,3.1764,3.1362,3.0408,2.9685,2.9121,2.843,2.7921,2.739,2.6769,2.6233,2.5734,2.5241,2.4694,2.42,3.6251,3.6301,3.6402,3.6502,3.6544,3.669,3.6908,3.7009,3.722,3.7447,3.7631,3.7846,3.7967,3.8153,3.8368,3.8546,3.8689,3.8859,3.9044,3.921,3.9401,3.9551,3.9735,3.9911,4.0038,4.0157,4.0196,4.0233,4.0325,4.0408,4.0489,4.0519,4.0615,4.07,4.0718,4.0848,4.0878,4.0906,4.0945,4.1,4.1019,4.1042,4.1104,4.1108,4.1111,4.1103,4.1073,4.0898,4.0563,3.9897,3.9117,3.8643,3.8486,3.8447,3.817,3.8064,3.7411,3.7027,3.6723,3.6331,3.5825,3.5752,3.556,3.5269,3.5353,3.5133,3.4945,3.487,3.473,3.4604,3.4539,3.4386,3.4245,3.4173,3.3921,3.3671,3.3433,3.3334,3.3244,3.3135,3.3011,3.2916,3.2916,3.2737,3.2659,3.2733,3.2685,3.2897,3.3298,3.3532,3.355,3.3905,3.4362,3.449,3.4459,3.4347,3.444,3.4056,3.3526,3.3108,3.2664,3.2135,3.1584,3.0628,2.9808,2.9261,2.8702,2.8183,2.759,2.7053,2.6577,2.6013,2.5453,2.4981,2.4478,3.6105,3.6251,3.6251,3.6377,3.6502,3.6684,3.6846,3.7027,3.722,3.741,3.7613,3.781,3.7985,3.8101,3.8318,3.8515,3.8658,3.8847,3.8987,3.9129,3.9317,3.957,3.9758,3.9889,3.9975,4.0058,4.0157,4.0196,4.0233,4.0323,4.0389,4.0504,4.0534,4.0607,4.0694,4.0738,4.0815,4.0888,4.0917,4.0937,4.0987,4.1006,4.1047,4.1105,4.1101,4.1111,4.1101,4.1112,4.1033,4.0759,3.9921,3.9435,3.9384,3.886,3.8538,3.8452,3.8161,3.7885,3.7769,3.7514,3.7338,3.7228,3.6612,3.6262,3.6126,3.5503,3.5131,3.4945,3.485,3.4809,3.4663,3.4539,3.4427,3.4197,3.3991,3.3753,3.3577,3.3452,3.3334,3.3304,3.3147,3.3073,3.3096,3.3037,3.3105,3.3484,3.3596,3.3653,3.4197,3.4629,3.4735,3.4933,3.5297,3.5403,3.5396,3.5215,3.4991,3.4577,3.4053,3.3463,3.2788,3.2048,3.1452,3.0687,3.0054,2.9498,2.8944,2.843,2.7908,2.7335,2.6782,2.622,2.5734,2.5253,2.4826,3.6036,3.6208,3.6208,3.6293,3.6461,3.6544,3.6725,3.6869,3.7066,3.7297,3.7466,3.7667,3.7881,3.8036,3.8186,3.8401,3.8578,3.8738,3.8899,3.9092,3.9309,3.9564,3.9754,3.9845,3.9911,3.9996,4.0077,4.0118,4.0196,4.0214,4.0323,4.0392,4.0444,4.0508,4.0593,4.0648,4.0694,4.0804,4.0839,4.0897,4.0957,4.0979,4.1007,4.1056,4.1081,4.1113,4.1111,4.111,4.1111,4.0996,4.0621,4.0345,4.0273,3.9831,3.9493,3.944,3.9093,3.8791,3.8686,3.8402,3.8099,3.7954,3.7454,3.7241,3.7028,3.6559,3.6172,3.6158,3.6008,3.572,3.5279,3.4891,3.4514,3.4269,3.4074,3.3913,3.3744,3.3605,3.352,3.3433,3.3364,3.3406,3.364,3.3589,3.3924,3.4396,3.4528,3.4835,3.5278,3.5661,3.591,3.5971,3.5918,3.595,3.5795,3.5633,3.5274,3.4883,3.425,3.3729,3.298,3.2104,3.1552,3.0925,3.0358,2.9732,2.9247,2.8688,2.8183,2.7656,2.704,2.6564,2.6082,2.5594,2.517,3.5905,3.6182,3.6165,3.6251,3.6318,3.6461,3.6602,3.6725,3.6926,3.7143,3.7334,3.7503,3.7739,3.7899,3.8086,3.8219,3.8415,3.8609,3.8822,3.9036,3.9301,3.9533,3.9665,3.9758,3.9848,3.9954,3.9975,4.0077,4.0157,4.0177,4.0233,4.0288,4.0362,4.043,4.0508,4.0564,4.0615,4.0681,4.0761,4.0828,4.0888,4.0943,4.0984,4.0981,4.1045,4.1081,4.1088,4.1108,4.1113,4.1119,4.1111,4.0992,4.0953,4.0961,4.0889,4.0671,4.0101,3.9723,3.958,3.9023,3.8549,3.8472,3.8334,3.8123,3.8005,3.7715,3.7441,3.7333,3.749,3.6937,3.6365,3.5484,3.5086,3.4927,3.4679,3.442,3.416,3.3963,3.3826,3.3761,3.3691,3.4087,3.4425,3.4645,3.4735,3.549,3.5554,3.5774,3.6096,3.6376,3.6597,3.6702,3.6528,3.635,3.6131,3.5915,3.5487,3.5088,3.4349,3.3694,3.3171,3.2413,3.1781,3.1146,3.0613,2.9993,2.9498,2.8931,2.843,2.7908,2.731,2.6892,2.6414,2.6,2.5511,3.5728,3.5905,3.5993,3.6122,3.6251,3.6419,3.6585,3.6684,3.6908,3.7105,3.7297,3.7521,3.7703,3.7899,3.8036,3.8219,3.8401,3.8609,3.8822,3.9073,3.9202,3.9388,3.9526,3.9647,3.9758,3.9848,3.9935,4.0017,4.0058,4.0099,4.0139,4.0215,4.0252,4.0307,4.0413,4.0473,4.0549,4.0626,4.0688,4.0742,4.0828,4.0869,4.0915,4.0929,4.0974,4.1047,4.1101,4.1114,4.1105,4.1113,4.1105,4.1091,4.1074,4.1042,4.1007,4.094,4.0768,4.0568,4.0548,4.0264,4.0181,3.9927,3.9393,3.9056,3.895,3.8381,3.7961,3.7764,3.7658,3.7623,3.7164,3.6871,3.6456,3.6287,3.625,3.6216,3.6024,3.5373,3.4871,3.4844,3.5143,3.5549,3.5672,3.5556,3.5842,3.6461,3.6672,3.6717,3.6881,3.7094,3.7104,3.7126,3.6891,3.665,3.6343,3.6045,3.5577,3.5182,3.4497,3.3864,3.3293,3.2703,3.2007,3.1437,3.0866,3.0312,2.9747,2.9261,2.8766,2.8235,2.7643,2.7175,2.6769,2.6346,2.5931,3.5667,3.5817,3.5932,3.6062,3.6208,3.6377,3.6502,3.6643,3.6806,3.6948,3.7182,3.7372,3.7558,3.7775,3.7933,3.8086,3.8285,3.8578,3.8792,3.9007,3.912,3.9237,3.9376,3.9526,3.9665,3.9758,3.9867,3.9933,3.9935,4.0017,4.0077,4.0138,4.0157,4.0215,4.0289,4.0341,4.0444,4.0539,4.0579,4.0642,4.0742,4.0776,4.0849,4.0887,4.0953,4.1025,4.1037,4.1074,4.1108,4.1103,4.1113,4.1108,4.1097,4.1055,4.1047,4.1039,4.0967,4.0941,4.0915,4.0878,4.077,4.0804,4.0261,4.0082,3.9899,3.9466,3.9204,3.9032,3.8965,3.8763,3.8117,3.7459,3.7335,3.7235,3.7186,3.7099,3.6887,3.6329,3.5853,3.5827,3.5984,3.6358,3.6527,3.6553,3.6875,3.7462,3.7416,3.748,3.7413,3.7542,3.7415,3.7317,3.7105,3.6851,3.655,3.6131,3.5667,3.5228,3.4707,3.4101,3.3591,3.2942,3.2287,3.1724,3.1161,3.0553,3.0054,2.9588,2.9099,2.8509,2.7973,2.751,2.704,2.6688,2.6346,3.5667,3.5773,3.5888,3.6036,3.6165,3.6233,3.636,3.6502,3.6661,3.6846,3.7027,3.722,3.7429,3.7613,3.781,3.7985,3.8238,3.8515,3.878,3.8892,3.9036,3.9129,3.9237,3.9376,3.9521,3.9642,3.9758,3.9804,3.9867,3.9927,3.9992,4.0057,4.0076,4.0118,4.0158,4.0215,4.0288,4.0425,4.0489,4.0545,4.0642,4.0681,4.0773,4.0869,4.0932,4.0999,4.1013,4.1042,4.1085,4.1104,4.1114,4.1111,4.1112,4.1116,4.1101,4.1111,4.1045,4.0993,4.0984,4.0952,4.0897,4.0898,4.0776,4.0711,4.0636,4.0494,4.0333,4.0296,4.014,3.9848,3.909,3.8534,3.8052,3.7896,3.7756,3.7637,3.7548,3.7317,3.7205,3.6856,3.7109,3.7488,3.7624,3.7672,3.8034,3.829,3.8227,3.8153,3.8068,3.7897,3.7739,3.7594,3.7372,3.697,3.6632,3.6259,3.5756,3.5321,3.4851,3.4399,3.3899,3.3366,3.278,3.2079,3.1509,3.0911,3.0372,2.9946,2.9449,2.883,2.8379,2.7921,2.751,2.704,2.6701,3.5622,3.5667,3.5773,3.5905,3.6019,3.6165,3.6335,3.6502,3.6643,3.6806,3.6987,3.722,3.741,3.7594,3.781,3.8036,3.8285,3.8546,3.8719,3.8803,3.895,3.9064,3.9129,3.9237,3.9362,3.9508,3.9637,3.9731,3.9754,3.9781,3.9867,3.9933,3.9994,4.0038,4.0099,4.0177,4.0215,4.0306,4.0389,4.0485,4.0549,4.0635,4.0725,4.0818,4.0878,4.0943,4.0984,4.1,4.105,4.1086,4.1097,4.1114,4.1107,4.1112,4.1099,4.1101,4.1086,4.1058,4.1026,4.1,4.0964,4.0924,4.0878,4.0839,4.0776,4.0718,4.0662,4.0579,4.0476,4.0266,4.0098,3.9624,3.9661,3.9583,3.9387,3.9286,3.9236,3.9029,3.8643,3.806,3.8324,3.8544,3.847,3.8422,3.8567,3.8626,3.8499,3.8428,3.8364,3.8168,3.7984,3.7828,3.7667,3.7203,3.6713,3.6301,3.5905,3.5503,3.5041,3.4643,3.4201,3.3848,3.3261,3.2563,3.1853,3.1278,3.0792,3.0312,2.9808,2.9247,2.8817,2.8379,2.7908,2.751,2.7188,3.5532,3.5622,3.5773,3.5844,3.6036,3.6122,3.6293,3.6419,3.6602,3.6742,3.6886,3.7087,3.7279,3.7484,3.7667,3.7933,3.8219,3.8465,3.8609,3.8732,3.8851,3.895,3.9017,3.9101,3.9229,3.9354,3.9464,3.9607,3.9722,3.9712,3.9758,3.9804,3.9867,3.9933,3.9996,4.0058,4.0139,4.0215,4.0306,4.0392,4.0457,4.0579,4.0675,4.075,4.0826,4.0878,4.0935,4.0941,4.0979,4.1039,4.1047,4.1061,4.1085,4.1105,4.1113,4.1107,4.1101,4.1096,4.1057,4.1047,4.1019,4.096,4.0941,4.0906,4.0859,4.0826,4.0769,4.0662,4.0554,4.0482,4.037,4.0356,4.0286,4.0196,4.0139,4.0059,3.9998,3.9954,3.9542,3.9044,3.9064,3.9107,3.9088,3.9044,3.9036,3.896,3.8815,3.8725,3.8646,3.8446,3.8219,3.8002,3.781,3.7392,3.6913,3.655,3.6105,3.5711,3.5321,3.4883,3.4448,3.4101,3.3591,3.3011,3.2342,3.1682,3.1161,3.0687,3.0176,2.967,2.9247,2.8803,2.843,2.8052,2.7723,3.552,3.5594,3.5684,3.5817,3.5993,3.614,3.6208,3.6318,3.6544,3.6702,3.6742,3.697,3.7164,3.7334,3.754,3.781,3.8101,3.8285,3.8465,3.864,3.875,3.8851,3.895,3.9017,3.9101,3.9229,3.9283,3.9469,3.9602,3.9637,3.9665,3.9712,3.9758,3.9804,3.9867,3.9954,4.0039,4.0099,4.0196,4.027,4.0372,4.05,4.0602,4.0655,4.0725,4.0804,4.0839,4.0888,4.0924,4.0972,4.1007,4.1025,4.1076,4.1094,4.1116,4.1112,4.1108,4.1099,4.1108,4.1094,4.1072,4.1025,4.1013,4.0976,4.0915,4.0898,4.0837,4.0738,4.0668,4.0607,4.0534,4.0481,4.0434,4.0375,4.0307,4.0252,4.0215,4.0177,4.008,3.9802,3.9743,3.9604,3.9483,3.9427,3.935,3.9219,3.9064,3.8998,3.8913,3.8695,3.8446,3.8204,3.7951,3.7577,3.7185,3.6816,3.6426,3.6062,3.5622,3.5228,3.4787,3.4349,3.3832,3.3382,3.2812,3.2206,3.1625,3.1043,3.0613,3.0176,2.967,2.9296,2.8944,2.8509,2.8118,3.5383,3.5537,3.552,3.5673,3.5817,3.5993,3.6122,3.6268,3.6419,3.6602,3.6702,3.6908,3.7105,3.7334,3.7577,3.7827,3.8034,3.8153,3.8285,3.8496,3.864,3.8732,3.8822,3.8892,3.8989,3.9073,3.9147,3.9301,3.9476,3.9514,3.9588,3.9674,3.9684,3.9712,3.9754,3.9845,3.9911,3.9975,4.0099,4.0234,4.0325,4.0441,4.0504,4.0545,4.0648,4.0725,4.0742,4.0809,4.0888,4.0906,4.0964,4.1,4.1,4.1075,4.1105,4.1116,4.1112,4.1111,4.1103,4.1114,4.1101,4.1061,4.1031,4.0987,4.096,4.0932,4.0888,4.0807,4.0781,4.072,4.0681,4.0615,4.0593,4.0519,4.0441,4.0411,4.0379,4.0344,4.0271,4.0196,4.004,3.9876,3.9743,3.9675,3.9623,3.9458,3.935,3.9298,3.9165,3.8942,3.8683,3.8433,3.8189,3.781,3.7485,3.7129,3.6776,3.6385,3.5975,3.5594,3.5118,3.4691,3.43,3.3797,3.3277,3.2718,3.215,3.1625,3.1087,3.0613,3.0176,2.9822,2.9526,2.9085,2.8573,3.5135,3.54,3.5492,3.5566,3.5711,3.5888,3.6079,3.6208,3.6419,3.6602,3.6684,3.6829,3.7027,3.7297,3.754,3.7739,3.788,3.8034,3.8135,3.8318,3.8446,3.859,3.8701,3.8762,3.8833,3.895,3.9007,3.9092,3.9275,3.9406,3.9502,3.9577,3.9607,3.9618,3.9661,3.9754,3.9845,3.9933,4.0038,4.0177,4.0233,4.0286,4.0392,4.0489,4.0564,4.0615,4.0694,4.0742,4.0828,4.0878,4.0915,4.0949,4.0953,4.1007,4.1037,4.1033,4.1091,4.1111,4.1112,4.111,4.1101,4.1108,4.1066,4.1033,4.1,4.0979,4.0952,4.0869,4.0859,4.0818,4.0761,4.0725,4.0694,4.0654,4.0579,4.0554,4.0527,4.0495,4.0463,4.0394,4.0342,4.0177,4.0021,3.9939,3.9851,3.9735,3.9623,3.9532,3.9401,3.9192,3.8931,3.867,3.8401,3.8119,3.7845,3.7504,3.715,3.6776,3.6326,3.5915,3.5487,3.5071,3.4691,3.43,3.3797,3.3224,3.2703,3.2094,3.1567,3.1102,3.0687,3.0326,2.996,2.9526,2.9022,3.4851,3.5135,3.5337,3.5503,3.5594,3.5844,3.6019,3.6165,3.6335,3.6502,3.6684,3.6788,3.7027,3.7259,3.7466,3.7595,3.7703,3.7897,3.8034,3.8135,3.8252,3.8415,3.8546,3.8609,3.8701,3.8833,3.8851,3.8939,3.9064,3.9193,3.932,3.9469,3.9483,3.9514,3.9583,3.9637,3.9712,3.9867,3.9975,4.0078,4.0139,4.0196,4.0288,4.0392,4.0473,4.0549,4.0629,4.0694,4.0781,4.0796,4.0849,4.0888,4.0924,4.0957,4.0993,4.1,4.1042,4.1091,4.1089,4.1113,4.1112,4.1103,4.1108,4.1074,4.1037,4.1033,4.1013,4.0929,4.0932,4.0897,4.0829,4.0828,4.0804,4.0769,4.072,4.0681,4.066,4.0612,4.0603,4.0558,4.0508,4.0457,4.0321,4.0196,4.0099,3.9996,3.9889,3.9785,3.958,3.9401,3.9137,3.8892,3.8683,3.8415,3.8153,3.7827,3.7487,3.715,3.6719,3.6326,3.5915,3.5487,3.5071,3.4643,3.425,3.3797,3.3261,3.2617,3.2038,3.1567,3.1102,3.0673,3.0312,2.9898,2.9401,3.4594,3.4787,3.5135,3.54,3.5537,3.5728,3.5905,3.6019,3.6165,3.6335,3.6544,3.6829,3.7009,3.7147,3.7317,3.7466,3.7631,3.7721,3.788,3.8018,3.8153,3.8234,3.8368,3.8465,3.8546,3.8689,3.8719,3.8762,3.8881,3.8939,3.9138,3.9346,3.9354,3.9399,3.9451,3.9521,3.9642,3.9758,3.9848,3.9954,4.0038,4.0118,4.0177,4.0251,4.0392,4.0504,4.0519,4.0635,4.0713,4.0738,4.0784,4.0828,4.0869,4.0906,4.0949,4.0986,4.1,4.1037,4.1069,4.1089,4.1113,4.1112,4.1105,4.1108,4.1085,4.1086,4.1064,4.1007,4.0986,4.0964,4.0913,4.0896,4.0898,4.0868,4.0807,4.0773,4.075,4.0725,4.072,4.07,4.064,4.0593,4.0564,4.0438,4.0286,4.0177,4.0058,3.9937,3.9785,3.9575,3.9376,3.9156,3.8979,3.8725,3.8446,3.8135,3.7879,3.7559,3.715,3.6719,3.6326,3.5898,3.5487,3.5071,3.4691,3.4284,3.3882,3.3245,3.2617,3.2079,3.1582,3.1161,3.0613,3.0083,2.9574,3.4349,3.4497,3.4883,3.5182,3.5383,3.5594,3.58,3.6019,3.6156,3.6301,3.6485,3.6788,3.693,3.7048,3.7147,3.7299,3.7466,3.7613,3.7739,3.7827,3.7966,3.8119,3.8219,3.8303,3.8419,3.8515,3.8515,3.8627,3.875,3.878,3.8899,3.9054,3.9166,3.9229,3.929,3.9376,3.9526,3.9623,3.9735,3.9826,3.9933,3.9996,4.008,4.0196,4.0252,4.0392,4.0489,4.0549,4.0621,4.0694,4.0725,4.0773,4.0818,4.0859,4.0906,4.0949,4.096,4.1,4.1033,4.1072,4.1108,4.1113,4.111,4.1099,4.1108,4.1117,4.1085,4.1072,4.105,4.1026,4.1025,4.0991,4.0957,4.0932,4.0906,4.0878,4.0829,4.0809,4.0826,4.0792,4.0769,4.0725,4.0688,4.0648,4.05,4.0339,4.0233,4.0099,3.9956,3.9804,3.9599,3.9427,3.9245,3.9045,3.8737,3.8523,3.8281,3.7913,3.7577,3.7167,3.6759,3.6326,3.5915,3.5515,3.5135,3.4739,3.4284,3.3764,3.3193,3.2563,3.2079,3.1625,3.1043,3.0387,2.9884,3.4101,3.43,3.4643,3.4947,3.5198,3.5475,3.5667,3.5871,3.6079,3.6308,3.6485,3.6667,3.6788,3.693,3.7048,3.7147,3.7299,3.7466,3.7559,3.7703,3.7845,3.7967,3.807,3.8138,3.8238,3.8303,3.8368,3.8483,3.8627,3.8627,3.867,3.8773,3.891,3.9007,3.9129,3.9272,3.9408,3.9477,3.9575,3.9689,3.9781,3.9889,3.9954,4.0099,4.0177,4.027,4.0392,4.0473,4.0569,4.0626,4.0681,4.0732,4.0781,4.0826,4.0878,4.0897,4.0941,4.0967,4.1,4.1046,4.1097,4.111,4.1113,4.1111,4.1105,4.1099,4.1091,4.1094,4.11,4.1106,4.1109,4.1058,4.1033,4.1013,4.0999,4.0964,4.0921,4.0904,4.0926,4.0917,4.0878,4.0809,4.0796,4.0761,4.0629,4.0481,4.0356,4.027,4.0196,4.0019,3.9848,3.967,3.9508,3.9279,3.9055,3.8873,3.8683,3.8281,3.7948,3.7577,3.7188,3.6846,3.6437,3.5941,3.556,3.5165,3.4787,3.4349,3.3713,3.3033,3.2492,3.191,3.1336,3.0747,3.0326,3.4,3.4151,3.4399,3.4643,3.4947,3.5325,3.5537,3.5667,3.5924,3.6182,3.6444,3.6502,3.6609,3.6771,3.693,3.7048,3.7147,3.7317,3.7466,3.7577,3.7685,3.7792,3.7898,3.7967,3.807,3.8138,3.8204,3.8289,3.8433,3.8401,3.8415,3.8478,3.8652,3.8822,3.891,3.9064,3.921,3.9376,3.9452,3.9551,3.9623,3.9781,3.9848,3.9975,4.008,4.0177,4.0288,4.0392,4.0492,4.0554,4.0626,4.0681,4.0732,4.0769,4.0826,4.0869,4.0888,4.0932,4.0986,4.1061,4.1085,4.1114,4.1107,4.1112,4.1113,4.1112,4.1107,4.1116,4.1108,4.1117,4.1105,4.11,4.1091,4.1086,4.1075,4.1058,4.1007,4.0993,4.0999,4.0996,4.0941,4.0876,4.0859,4.0839,4.0742,4.0629,4.0485,4.0408,4.0377,4.0234,4.0059,3.9935,3.9762,3.982,3.9612,3.9359,3.9081,3.8683,3.8569,3.8524,3.815,3.7771,3.7253,3.6558,3.6344,3.6327,3.5656,3.498,3.4234,3.3455,3.2656,3.2064,3.1552,3.1146,3.0732,3.3745,3.4,3.4151,3.4399,3.4659,3.5143,3.5455,3.5639,3.5975,3.6191,3.6293,3.6437,3.6502,3.6626,3.6788,3.693,3.7048,3.7147,3.7261,3.7466,3.7577,3.7685,3.7757,3.7881,3.7951,3.7969,3.8038,3.8122,3.8219,3.8219,3.8318,3.8382,3.8465,3.867,3.8862,3.9036,3.9137,3.9237,3.9343,3.9464,3.9526,3.9599,3.9735,3.9889,3.9975,4.0059,4.0177,4.0306,4.0375,4.0473,4.0549,4.0612,4.0681,4.0732,4.0781,4.0818,4.0868,4.0915,4.0984,4.1039,4.1052,4.1074,4.1111,4.1099,4.1103,4.1111,4.1113,4.1111,4.1108,4.1099,4.1104,4.1101,4.1097,4.1094,4.1085,4.1096,4.1067,4.1067,4.1061,4.1064,4.1046,4.1006,4.0976,4.0924,4.0849,4.0776,4.0649,4.0574,4.0519,4.0411,4.0252,4.0139,4.0076,4.0223,4.025,4.0209,4.0317,4.024,4.0147,4.0133,3.9625,3.8902,3.8571,3.8152,3.7802,3.7415,3.6586,3.5733,3.4726,3.3866,3.3266,3.2585,3.2007,3.1552,3.1146,3.2924,3.3108,3.3323,3.3665,3.4201,3.4868,3.5312,3.5639,3.5949,3.614,3.6225,3.6353,3.6461,3.6544,3.6626,3.6788,3.693,3.7048,3.7108,3.7299,3.7447,3.7503,3.7613,3.7721,3.781,3.7828,3.7899,3.7951,3.8036,3.8036,3.8119,3.8252,3.8368,3.8515,3.8713,3.8815,3.896,3.9064,3.9202,3.929,3.935,3.9458,3.9618,3.9758,3.987,3.9996,4.0099,4.0196,4.0251,4.0392,4.0473,4.0554,4.0626,4.0681,4.0732,4.0781,4.0867,4.0907,4.0952,4.1003,4.1026,4.105,4.1081,4.1097,4.1104,4.1099,4.1105,4.1111,4.1113,4.1112,4.1107,4.1105,4.1105,4.1103,4.1116,4.1111,4.1104,4.1085,4.1094,4.11,4.1106,4.107,4.1052,4.1032,4.0976,4.0897,4.0819,4.08,4.0771,4.0665,4.0713,4.0764,4.0807,4.1051,4.126,4.1364,4.1506,4.1707,4.1586,4.1388,4.0748,3.9967,3.9872,3.962,3.8923,3.8226,3.7439,3.6572,3.5727,3.492,3.421,3.3433,3.257,3.2007,3.1595,3.1453,3.163,3.1869,3.2543,3.3416,3.4308,3.5031,3.5577,3.5728,3.5949,3.6165,3.6165,3.6293,3.6461,3.6502,3.6626,3.6771,3.6908,3.7009,3.7126,3.7259,3.7317,3.7429,3.754,3.7594,3.7703,3.7775,3.7775,3.7881,3.7934,3.8002,3.8119,3.8204,3.8336,3.8465,3.8609,3.8762,3.891,3.9036,3.9129,3.9192,3.935,3.9502,3.9623,3.9781,3.9933,4.0058,4.0158,4.0234,4.0323,4.0408,4.0473,4.0534,4.0626,4.0681,4.0745,4.0846,4.0888,4.0927,4.0963,4.098,4.1018,4.1064,4.1091,4.1085,4.1101,4.1111,4.1116,4.1103,4.111,4.1112,4.1112,4.1111,4.1113,4.1113,4.1112,4.111,4.1105,4.1097,4.1108,4.1113,4.11,4.1086,4.107,4.1195,4.1383,4.1416,4.1538,4.1438,4.1107,4.1268,4.1774,4.1848,4.2029,4.2218,4.2449,4.2707,4.2937,4.2548,4.2262,4.1594,4.1217,4.1125,4.0789,3.9868,3.9083,3.8436,3.7729,3.695,3.6174,3.5321,3.4133,3.3192,3.2499,3.1992,3.1225,3.1485,3.1646,3.1998,3.2476,3.3106,3.4134,3.5424,3.5611,3.5756,3.5922,3.6122,3.6053,3.631,3.6419,3.6492,3.6609,3.6708,3.6869,3.6987,3.7066,3.7164,3.7279,3.7354,3.741,3.7447,3.7503,3.7631,3.7703,3.7793,3.7916,3.8018,3.8104,3.8171,3.8289,3.8405,3.8564,3.8732,3.8862,3.9007,3.9073,3.9219,3.9376,3.9526,3.9647,3.9826,3.9954,4.0077,4.0158,4.0233,4.036,4.0427,4.0504,4.0569,4.0646,4.0713,4.0781,4.0846,4.0888,4.0907,4.0945,4.0991,4.1011,4.102,4.1025,4.1052,4.1105,4.1094,4.1101,4.1114,4.1116,4.1116,4.1114,4.1101,4.1105,4.111,4.1112,4.1113,4.1112,4.1105,4.1099,4.1225,4.1214,4.1261,4.1427,4.1769,4.2058,4.2252,4.2235,4.1925,4.2034,4.2579,4.2834,4.3008,4.3368,4.3655,4.3907,4.4047,4.3617,4.3342,4.3152,4.2852,4.2567,4.1886,4.0913,4.0137,3.9534,3.8807,3.8094,3.7336,3.6486,3.5153,3.3948,3.3271,3.253,3.0321,3.0577,3.0672,3.0988,3.1635,3.234,3.3366,3.4308,3.46,3.4759,3.495,3.5028,3.5189,3.5179,3.5328,3.559,3.5959,3.6099,3.6359,3.6846,3.6886,3.7027,3.7105,3.7182,3.7259,3.7279,3.7317,3.7429,3.7558,3.7703,3.7828,3.788,3.7967,3.807,3.8189,3.8256,3.8372,3.8564,3.8701,3.8881,3.9007,3.9082,3.9272,3.9427,3.9551,3.9693,3.9848,3.9975,4.0058,4.0177,4.0289,4.036,4.0441,4.0539,4.0631,4.0688,4.0757,4.0812,4.0846,4.0888,4.0937,4.0956,4.0982,4.0996,4.1006,4.1039,4.1056,4.1067,4.1096,4.1105,4.1105,4.1105,4.1109,4.1113,4.1104,4.1111,4.1119,4.1103,4.1111,4.1113,4.1208,4.1359,4.1451,4.1523,4.1866,4.2541,4.3036,4.3295,4.3273,4.303,4.3208,4.3659,4.3827,4.397,4.4347,4.4611,4.471,4.4756,4.4596,4.4399,4.4448,4.4009,4.3375,4.265,4.1895,4.1184,4.0507,3.9917,3.9208,3.8434,3.7703,3.6612,3.5336,3.4238,3.3435,2.9029,2.9291,2.9305,2.9964,3.0891,3.1794,3.2314,3.2558,3.2914,3.3288,3.3575,3.3658,3.3843,3.4114,3.4237,3.4599,3.5018,3.5382,3.5885,3.6615,3.6684,3.6806,3.6908,3.697,3.7027,3.7182,3.7297,3.7317,3.7429,3.7577,3.7685,3.7703,3.7863,3.8002,3.807,3.8138,3.8256,3.8405,3.8564,3.8732,3.8862,3.9017,3.9165,3.935,3.9458,3.958,3.9781,3.9911,3.9975,4.0099,4.0215,4.0252,4.0411,4.075,4.0819,4.0893,4.1042,4.1098,4.1044,4.0981,4.0897,4.0917,4.0956,4.0954,4.0988,4.0999,4.1026,4.1033,4.1064,4.1064,4.107,4.1081,4.1067,4.1096,4.1085,4.1094,4.1101,4.1267,4.155,4.1637,4.1951,4.2109,4.2362,4.2517,4.2825,4.3481,4.3883,4.4188,4.4378,4.4196,4.4303,4.4665,4.4777,4.4892,4.5114,4.5337,4.5353,4.5361,4.5223,4.5049,4.4795,4.4411,4.3974,4.324,4.2517,4.2091,4.1498,4.0847,4.0181,3.9515,3.8756,3.805,3.6881,3.5567,3.439,2.8905,2.8997,2.9321,2.9688,3.0069,3.044,3.0816,3.1023,3.1141,3.2018,3.3204,3.3414,3.3447,3.3461,3.3567,3.3853,3.4151,3.4651,3.5249,3.578,3.6173,3.6516,3.6725,3.6806,3.6846,3.6908,3.7009,3.722,3.7354,3.7466,3.7559,3.7667,3.7774,3.7845,3.7984,3.807,3.8138,3.8307,3.8419,3.8578,3.8732,3.8939,3.9092,3.9237,3.9331,3.9483,3.967,3.9804,3.9911,4.0038,4.0158,4.0289,4.0466,4.1193,4.1542,4.1605,4.1666,4.1738,4.1659,4.1393,4.1194,4.1061,4.1053,4.0976,4.0945,4.0968,4.1011,4.105,4.1018,4.1025,4.1013,4.1026,4.1045,4.105,4.1159,4.1169,4.1202,4.1624,4.2045,4.2363,4.2698,4.298,4.3258,4.3573,4.3926,4.4238,4.4547,4.4913,4.5447,4.5499,4.53,4.5554,4.5656,4.5793,4.5905,4.5827,4.5718,4.561,4.5472,4.5304,4.5115,4.465,4.4125,4.3656,4.3087,4.2637,4.2151,4.1692,4.1039,4.0388,3.9759,3.8958,3.8228,3.7061,3.5712,2.8748,2.8967,2.9259,2.9486,2.9665,2.9826,3.0027,3.0274,3.0401,3.1016,3.1968,3.2261,3.2384,3.2483,3.2627,3.3048,3.3236,3.3693,3.4425,3.5074,3.5594,3.6074,3.6329,3.6585,3.6684,3.6748,3.693,3.7126,3.7279,3.7392,3.7503,3.7595,3.7631,3.7774,3.7915,3.8002,3.807,3.8241,3.8336,3.8465,3.8609,3.8822,3.9007,3.9156,3.929,3.9446,3.9551,3.975,4.011,4.0623,4.1129,4.1475,4.1756,4.2126,4.2379,4.2478,4.2541,4.2568,4.2467,4.2182,4.1819,4.1815,4.1962,4.2177,4.2237,4.2247,4.1604,4.1555,4.1081,4.0991,4.0991,4.1006,4.1006,4.1013,4.1559,4.1922,4.2276,4.2739,4.2943,4.3064,4.3365,4.3671,4.3952,4.4284,4.4679,4.5288,4.5545,4.5488,4.6031,4.6295,4.6249,4.6201,4.617,4.6119,4.6017,4.5964,4.5929,4.5822,4.5708,4.5436,4.5182,4.4726,4.426,4.3899,4.3493,4.305,4.2595,4.2151,4.1675,4.1007,4.0456,3.9851,3.9125,3.8394,3.7155,2.87,2.8904,2.9167,2.935,2.9502,2.9694,2.987,3.0017,3.0248,3.0417,3.0642,3.0931,3.0918,3.1055,3.119,3.1726,3.2264,3.2844,3.3618,3.4257,3.4888,3.5418,3.5956,3.6333,3.6485,3.6684,3.6869,3.697,3.7126,3.7279,3.7392,3.7449,3.7559,3.7757,3.7881,3.7969,3.8054,3.8207,3.8322,3.8382,3.8541,3.8713,3.8921,3.9092,3.9275,3.9469,3.9608,3.9943,4.0438,4.1203,4.2042,4.2355,4.2716,4.2939,4.3211,4.3331,4.3342,4.3405,4.3369,4.3176,4.3111,4.3194,4.3381,4.3404,4.3369,4.3061,4.2432,4.2072,4.1594,4.1396,4.1416,4.1377,4.1385,4.1482,4.2167,4.2695,4.3188,4.3713,4.3816,4.386,4.4148,4.4438,4.4735,4.5067,4.546,4.6088,4.6293,4.6303,4.6289,4.6288,4.6282,4.6248,4.6234,4.617,4.6107,4.6084,4.6066,4.5983,4.5822,4.5558,4.5245,4.4896,4.4557,4.421,4.3823,4.3389,4.2976,4.2516,4.2026,4.1542,4.1007,4.0414,3.9868,3.9072,3.8352,2.8685,2.8904,2.9075,2.9213,2.935,2.9576,2.9754,2.9853,3.0017,3.0162,3.0274,3.0468,3.0692,3.0912,3.1015,3.1314,3.1523,3.2055,3.244,3.2974,3.4114,3.477,3.5402,3.6027,3.6343,3.6544,3.6748,3.6891,3.7009,3.7203,3.7354,3.7411,3.754,3.7703,3.7864,3.7969,3.8038,3.8174,3.8322,3.8382,3.8478,3.8664,3.8862,3.9054,3.9221,3.9776,4.0244,4.061,4.1259,4.1954,4.261,4.2947,4.3311,4.3728,4.4045,4.4183,4.4191,4.4254,4.4206,4.3918,4.3834,4.3673,4.3737,4.3691,4.3664,4.3656,4.3303,4.3305,4.2986,4.2908,4.2869,4.2771,4.276,4.2886,4.335,4.3483,4.3778,4.4306,4.467,4.4896,4.5206,4.5431,4.5631,4.5831,4.5863,4.6277,4.63,4.6293,4.6297,4.6305,4.6289,4.6288,4.6262,4.6245,4.6192,4.6183,4.6154,4.6085,4.596,4.5703,4.5418,4.5135,4.4808,4.4467,4.4121,4.3726,4.3301,4.2846,4.2378,4.1899,4.1418,4.0896,4.0351,3.9749,3.8999]},{"header":{"parameterUnit":"m.s-1","parameterCategory":1,"la1":31.0,"la2":29.5877,"lo1":-88.7671,"lo2":-86.6584,"dy":0.0162,"dx":0.0185,"nx":115,"ny":88,"refTime":"2023-06-01T06:00:00:Z","depth":0,"parameterNumber":3,"parameterNumberName":"V-component_of_WINDS"},"data":[0.0,0.0,0.0,0.0,0.0,0.0,0.0,0.0,0.0,0.0,0.0,0.0,0.0,0.0,0.0,0.0,0.0,0.0,0.0,0.0,0.0,0.0,0.0,0.0,0.0,0.0,0.0,0.0,0.0,0.0,0.0,0.0,0.0,0.0,0.0,0.0,0.0,0.0,0.0,0.0,0.0,0.0,0.0,0.0,0.0,0.0,0.0,0.0,0.0,0.0,0.0,0.0,0.0,0.0,0.0,0.0,0.0,0.0,0.0,0.0,0.0,0.0,0.0,0.0,0.0,0.0,0.0,0.0,0.0,0.0,0.0,0.0,0.0,0.0,0.0,0.0,0.0,0.0,0.0,0.0,0.0,0.0,0.0,0.0,0.0,0.0,0.0,0.0,0.0,0.0,0.0,0.0,0.0,0.0,0.0,0.0,0.0,0.0,0.0,0.0,0.0,0.0,0.0,0.0,0.0,0.0,0.0,0.0,0.0,0.0,0.0,0.0,0.0,0.0,0.0,0.0,0.0,0.0,0.0,0.0,0.0,0.0,0.0,0.0,0.0,0.0,0.0,0.0,0.0,0.0,0.0,0.0,0.0,0.0,0.0,0.0,0.0,0.0,0.0,0.0,0.0,0.0,0.0,0.0,0.0,0.0,0.0,0.0,0.0,0.0,0.0,0.0,0.0,0.0,0.0,0.0,0.0,0.0,0.0,0.0,0.0,0.0,0.0,0.0,0.0,0.0,0.0,0.0,0.0,0.0,0.0,0.0,0.0,0.0,0.0,0.0,0.0,0.0,0.0,0.0,0.0,0.0,0.0,0.0,0.0,0.0,0.0,0.0,0.0,0.0,0.0,0.0,0.0,0.0,0.0,0.0,0.0,0.0,0.0,0.0,0.0,0.0,0.0,0.0,0.0,0.0,0.0,0.0,0.0,0.0,0.0,0.0,0.0,0.0,0.0,0.0,0.0,0.0,0.0,0.0,0.0,0.0,0.0,0.0,0.0,0.0,0.0,0.0,0.0,0.0,0.0,0.0,0.0,0.0,0.0,0.0,0.0,0.0,0.0,0.0,0.0,0.0,0.0,0.0,0.0,0.0,0.0,0.0,0.0,0.0,0.0,0.0,0.0,0.0,0.0,0.0,0.0,0.0,0.0,0.0,0.0,0.0,0.0,0.0,0.0,0.0,0.0,0.0,0.0,0.0,0.0,0.0,0.0,0.0,0.0,0.0,0.0,0.0,0.0,0.0,0.0,0.0,0.0,0.0,0.0,0.0,0.0,0.0,0.0,0.0,0.0,0.0,0.0,0.0,0.0,0.0,0.0,0.0,0.0,0.0,0.0,0.0,0.0,0.0,0.0,0.0,0.0,0.0,0.0,0.0,0.0,0.0,0.0,0.0,0.0,0.0,0.0,0.0,0.0,0.0,0.0,0.0,0.0,0.0,0.0,0.0,0.0,0.0,0.0,0.0,0.0,0.0,0.0,0.0,0.0,0.0,0.0,0.0,0.0,0.0,0.0,0.0,0.0,0.0,0.0,0.0,0.0,0.0,0.0,0.0,0.0,0.0,0.0,0.0,0.0,0.0,0.0,0.0,0.0,0.0,0.0,0.0,0.0,0.0,0.0,0.0,0.0,0.0,0.0,0.0,0.0,0.0,0.0,0.0,0.0,0.0,0.0,0.0,0.0,0.0,0.0,0.0,0.0,0.0,0.0,0.0,0.0,0.0,0.0,0.0,0.0,0.0,0.0,0.0,0.0,0.0,0.0,0.0,0.0,0.0,0.0,0.0,0.0,0.0,0.0,0.0,0.0,0.0,0.0,0.0,0.0,0.0,0.0,0.0,0.0,0.0,0.0,0.0,0.0,0.0,0.0,0.0,0.0,0.0,0.0,0.0,0.0,0.0,0.0,0.0,0.0,0.0,0.0,0.0,0.0,0.0,0.0,0.0,0.0,0.0,0.0,0.0,0.0,0.0,0.0,0.0,0.0,0.0,0.0,0.0,0.0,0.0,0.0,0.0,0.0,0.0,0.0,0.0,0.0,0.0,0.0,0.0,0.0,0.0,0.0,0.0,0.0,0.0,0.0,0.0,0.0,0.0,0.0,0.0,0.0,0.0,0.0,0.0,0.0,0.0,0.0,0.0,0.0,0.0,0.0,0.0,0.0,0.0,0.0,0.0,0.0,0.0,0.0,0.0,0.0,0.0,0.0,0.0,0.0,0.0,0.0,0.0,0.0,0.0,0.0,0.0,0.0,0.0,0.0,0.0,0.0,0.0,0.0,0.0,0.0,0.0,0.0,0.0,0.0,0.0,0.0,0.0,0.0,0.0,0.0,0.0,0.0,0.0,0.0,0.0,0.0,0.0,0.0,0.0,0.0,0.0,0.0,0.0,0.0,0.0,0.0,0.0,0.0,0.0,0.0,0.0,0.0,0.0,0.0,0.0,0.0,0.0,0.0,0.0,0.0,0.0,0.0,0.0,0.0,0.0,0.0,0.0,0.0,0.0,0.0,0.0,0.0,0.0,0.0,0.0,0.0,0.0,0.0,0.0,0.0,0.0,0.0,0.0,0.0,0.0,0.0,0.0,0.0,0.0,0.0,0.0,0.0,0.0,0.0,0.0,0.0,0.0,0.0,0.0,0.0,0.0,0.0,0.0,0.0,0.0,0.0,0.0,0.0,0.0,0.0,0.0,0.0,0.0,0.0,0.0,0.0,0.0,0.0,0.0,0.0,0.0,0.0,0.0,0.0,0.0,0.0,0.0,0.0,0.0,0.0,0.0,0.0,0.0,0.0,0.0,0.0,0.0,0.0,0.0,0.0,0.0,0.0,0.0,0.0,0.0,0.0,0.0,0.0,0.0,0.0,0.0,0.0,0.0,0.0,0.0,0.0,0.0,0.0,0.0,0.0,0.0,0.0,0.0,0.0,0.0,0.0,0.0,0.0,0.0,0.0,0.0,0.0,0.0,0.0,0.0,0.0,0.0,0.0,0.0,0.0,0.0,0.0,0.0,0.0,0.0,0.0,0.0,0.0,0.0,0.0,0.0,0.0,0.0,0.0,0.0,0.0,0.0,0.0,0.0,0.0,0.0,0.0,0.0,0.0,0.0,0.0,0.0,0.0,0.0,0.0,0.0,0.0,0.0,0.0,0.0,0.0,0.0,0.0,0.0,0.0,0.0,0.0,0.0,0.0,0.0,0.0,0.0,0.0,0.0,0.0,0.0,0.0,0.0,0.0,0.0,0.0,0.0,0.0,0.0,0.0,0.0,0.0,0.0,0.0,0.0,0.0,0.0,0.0,0.0,0.0,0.0,0.0,0.0,0.0,0.0,0.0,0.0,0.0,0.0,0.0,0.0,0.0,0.0,0.0,0.0,0.0,0.0,0.0,0.0,0.0,0.0,0.0,0.0,0.0,0.0,0.0,0.0,0.0,0.0,0.0,0.0,0.0,0.0,0.0,0.0,0.0,0.0,0.0,0.0,0.0,0.0,0.0,0.0,0.0,0.0,0.0,0.0,0.0,0.0,0.0,0.0,0.0,0.0,0.0,0.0,0.0,0.0,0.0,0.0,0.0,0.0,0.0,0.0,0.0,0.0,0.0,0.0,0.0,0.0,0.0,0.0,0.0,0.0,0.0,0.0,0.0,0.0,0.0,0.0,0.0,0.0,0.0,0.0,0.0,0.0,0.0,0.0,0.0,0.0,0.0,0.0,0.0,0.0,0.0,0.0,0.0,0.0,0.0,0.0,0.0,0.0,0.0,0.0,0.0,0.0,0.0,0.0,0.0,0.0,0.0,0.0,0.0,0.0,0.0,0.0,0.0,0.0,0.0,0.0,0.0,0.0,0.0,0.0,0.0,0.0,0.0,0.0,0.0,0.0,0.0,0.0,0.0,0.0,0.0,0.0,0.0,0.0,0.0,0.0,0.0,0.0,0.0,0.0,0.0,0.0,0.0,0.0,0.0,0.0,0.0,0.0,0.0,0.0,0.0,0.0,0.0,0.0,0.0,0.0,0.0,0.0,0.0,0.0,0.0,0.0,0.0,0.0,0.0,0.0,0.0,0.0,0.0,0.0,0.0,0.0,0.0,0.0,0.0,0.0,0.0,0.0,0.0,0.0,0.0,0.0,0.0,0.0,0.0,0.0,0.0,0.0,0.0,0.0,0.0,0.0,0.0,0.0,0.0,0.0,0.0,0.0,0.0,0.0,0.0,0.0,0.0,0.0,0.0,0.0,0.0,0.0,0.0,0.0,0.0,0.0,0.0,0.0,0.0,0.0,0.0,0.0,0.2109,0.0,0.0,0.0,0.0,0.0,0.0,0.0,0.0,0.0,0.0,0.0,0.0,0.0,0.0,0.0,0.0,0.0,0.0,0.0,0.0,0.0,0.0,0.0,0.0,0.0,0.0,0.0,0.0,0.0,0.0,0.0,0.0,0.0,0.0,0.0,0.0,0.0,0.0,0.0,0.0,0.0,0.0,0.0,0.0,0.0,0.0,0.0,0.0,0.0,0.0,0.0,0.0,0.0,0.0,0.0,0.0,0.0,0.0,0.0,0.0,0.0,0.0,0.0,0.0,0.0,0.0,0.0,0.0,0.0,0.0,0.0,0.0,0.0,0.0,0.0,0.0,0.0,0.0,0.0,0.0,0.0,0.0,0.0,0.0,0.0,0.0,0.0,0.0,0.0,0.0,0.0,0.0,0.0,0.0,0.0,0.0,0.0,0.0,0.0,0.0,0.0,0.0,0.0,0.0,0.0,0.0,0.0,0.0,0.0,0.0,0.0674,0.1299,0.1569,0.1882,0.2194,0.0,0.0,0.0,0.0,0.0,0.0,0.0,0.0,0.0,0.0,0.0,0.0,0.0,0.0,0.0,0.0,0.0,0.0,0.0,0.0,0.0,0.0,0.0,0.0,0.0,0.0,0.0,0.0,0.0,0.0,0.0,0.0,0.0,0.0,0.0,0.0,0.0,0.0,0.0,0.0,0.0,0.0,0.0,0.0,0.0,0.0,0.0,0.0,0.0,0.0,0.0,0.0,0.0,0.0,0.0,0.0,0.0,0.0,0.0,0.0,0.0,0.0,0.0,0.0,0.0,0.0,0.0,0.0,0.0,0.0,0.0,0.0,0.0,0.0,0.0,0.0,0.0,0.0,0.0,0.0,0.0,0.0,0.0,0.0,0.0,0.0,0.0,0.0,0.0,0.0,0.0,0.0,0.0,0.0,0.0,0.0,0.0,0.0,0.0,0.0,0.0,0.0,0.0,0.0,0.0,0.0,0.0,0.0,0.0,0.0,0.0,0.0,0.1773,0.2078,0.2457,0.0,0.0,0.0,0.0,0.0,0.0,0.0,0.0,0.0,0.0,0.0,0.0,0.0,0.0,0.0,0.0,0.0,0.0,0.0,0.0,0.0,0.0,0.0,0.0,0.0,0.0,0.0,0.0,0.0,0.0,0.0,0.0,0.0,0.0,0.0,0.0,0.0,0.0,0.0,0.0,0.0,0.0,0.0,0.0,0.0,0.0,0.0,0.0,0.0,0.0,0.0,0.0,0.0,0.0,0.0,0.0,0.0,0.0,0.0,0.0,0.0,0.0,0.0,0.0,0.0,0.0,0.0,0.0,0.0,0.0,0.0,0.0,0.0,0.0,0.0,0.0,0.0,0.0,0.0,0.0,0.0,0.0,0.0,0.0,0.0,0.0,0.0,0.0,0.0,0.0,0.0,0.0,0.0,0.0,0.0,0.0,0.0,0.0,0.0,0.0,0.0,0.0,0.0,0.0,0.0,0.0,0.0,0.0,0.0,0.0,0.1611,0.1754,0.2082,0.0,0.2909,0.0,0.0,0.0,0.0,0.0,0.0,0.0,0.0,0.0,0.0,0.0,0.0,0.0,0.0,0.0,0.0,0.0,0.0,0.0,0.0,0.0,0.0,0.0,0.0,0.0,0.0,0.0,0.0,0.0,0.0,0.0,0.0,0.0,0.0,0.0,0.0,0.0,0.0,0.0,0.0,0.0,0.0,0.0,0.0,0.0,0.0,0.0,0.0,0.0,0.0,0.0,0.0,0.0,0.0,0.0,0.0,0.0,0.0,0.0,0.0,0.0,0.0,0.0,0.0,0.0,0.0,0.0,0.0,0.0,0.0,0.0,0.0,0.0,0.0,0.0,0.0,0.0,0.0,0.0,0.0,0.0,0.0,0.0,0.0,0.0,0.0,0.0,0.0,0.0,0.0,0.0,0.0,0.0,0.0,0.0,0.0,0.0,0.0,0.0,0.0,0.0,0.0,0.0,0.0,0.0,0.0,0.0,0.0,0.0,0.0,0.1783,0.2068,0.2498,0.2965,0.0,0.0,0.0,0.0,0.0,0.0,0.0,0.0,0.0,0.0,0.0,0.0,0.0,0.0,0.0,0.0,0.0,0.0,0.0,0.0,0.0,0.0,0.0,0.0,0.0,0.0,0.0,0.0,0.0,0.0,0.0,0.0,0.0,0.0,0.0,0.0,0.0,0.0,0.0,0.0,0.0,0.0,0.0,0.0,0.0,0.0,0.0,0.0,0.0,0.0,0.0,0.0,0.0,0.0,0.0,0.0,0.0,0.0,0.0,0.0,0.0,0.0,0.0,0.0,0.0,0.0,0.0,0.0,0.0,0.0,0.0,0.0,0.0,0.0,0.0,0.0,0.0,0.0,0.0,0.0,0.0,0.0,0.0,0.0,0.0,0.0,0.0,0.0,0.0,0.0,0.0,0.0,0.0,0.0,0.0,0.0,0.0,0.0,0.0,0.0,0.0,0.0,0.0,0.0,0.0,0.0,0.0,0.0,0.0,0.0,0.1654,0.2041,0.26,0.3082,0.3492,0.3792,0.0,0.0,0.0,0.0,0.0,0.0,0.0,0.0,0.0,0.0,0.0,0.0,0.0,0.0,0.0,0.0,0.0,0.0,0.0,0.0,0.0,0.0,0.0,0.0,0.0,0.0,0.0,0.0,0.0,0.0,0.0,0.0,0.0,0.0,0.0,0.0,0.0,0.0,0.0,0.0,0.0,0.0,0.0,0.0,0.0,0.0,0.0,0.0,0.0,0.0,0.0,0.0,0.0,0.0,0.0,0.0,0.0,0.0,0.0,0.0,0.0,0.0,0.0,0.0,0.0,0.0,0.0,0.0,0.0,0.0,0.0,0.0,0.0,0.0,0.0,0.0,0.0,0.0,0.0,0.0,0.0,0.0,0.0,0.0,0.0,0.0,0.0,0.0,0.0,0.0,0.0,0.0,0.0,0.0,0.0,0.0,0.0,0.0,0.0,0.0,0.0,0.0,0.0,0.0,0.0,0.0,0.0,0.0,0.1578,0.1993,0.2542,0.334,0.3859,0.404,0.0,0.0,0.0,0.0,0.0,0.0,0.0,0.0,0.0,0.0,0.0,0.0,0.0,0.0,0.0,0.0,0.0,0.0,0.0,0.0,0.0,0.0,0.0,0.0,0.0,0.0,0.0,0.0,0.0,0.0,0.0,0.0,0.0,0.0,0.0,0.0,0.0,0.0,0.0,0.0,0.0,0.0,0.0,0.0,0.0,0.0,0.0,0.0,0.0,0.0,0.0,0.0,0.0,0.0,0.0,0.0,0.0,0.0,0.0,0.0,0.0,0.0,0.0,0.0,0.0,0.0,0.0,0.0,0.0,0.0,0.0,0.0,0.0,0.0,0.0,0.0,0.0,0.0,0.0,0.0,0.0,0.0,0.0,0.0,0.0,0.0,0.0,0.0,0.0,0.0,0.0,0.0,0.0,0.0,0.0,0.0,0.0,0.0,0.0,0.0,0.0,0.0,0.0,0.0,0.0,0.0,0.0,0.0,0.0,0.184,0.2574,0.3185,0.3675,0.4028,0.4199,0.0,0.0,0.0,0.0,0.0,0.0,0.0,0.0,0.0,0.0,0.0,0.0,0.0,0.0,0.0,0.0,0.0,0.0,0.0,0.0,0.0,0.0,0.0,0.0,0.0,0.0,0.0,0.0,0.0,0.0,0.0,0.0,0.0,0.0,0.0,0.0,0.0,0.0,0.0,0.0,0.0,0.0,0.0,0.0,0.0,0.0,0.0,0.0,0.0,0.0,0.0,0.0,0.0,0.0,0.0,0.0,0.0,0.0,0.0,0.0,0.0,0.0,0.0,0.0,0.0,0.0,0.0,0.0,0.0,0.0,0.0,0.0,0.0,0.0,0.0,0.0,0.0,0.0,0.0,0.0,0.0,0.0,0.0,0.0,0.0,0.0,0.0,0.0,0.0,0.0,0.0,0.0,0.0,0.0,0.0,0.0,0.0,0.0,0.0,0.0,0.0,0.0,0.0,0.0,0.0,0.0,0.0,0.0,0.0,0.2212,0.0,0.358,0.3907,0.426,0.4505,0.0,0.0,0.0,0.0,0.0,0.0,0.0,0.0,0.0,0.0,0.0,0.0,0.0,0.0,0.0,0.0,0.0,0.0,0.0,0.0,0.0,0.0,0.0,0.0,0.0,0.0,0.0,0.0,0.0,0.0,0.0,0.0,0.0,0.0,0.0,0.0,0.0,0.0,0.0,0.0,0.0,0.0,0.0,0.0,0.0,0.0,0.0,0.0,0.0,0.0,0.0,0.0,0.0,0.0,0.0,0.0,0.0,0.0,0.0,0.0,0.0,0.0,0.0,0.0,0.0,0.0,0.0,0.0,0.0,0.0,0.0,0.0,0.0,0.0,0.0,0.0,0.0,0.0,0.0,0.0,0.0,0.0,0.0,0.0,0.0,0.0,0.0,0.0,0.0,0.0,0.0,0.0,0.0,0.0,0.0,0.0,0.0,0.0,0.0,0.0,0.0,0.0,0.0,0.0,0.0,0.0,0.0,0.0,0.1777,0.2681,0.3249,0.3805,0.4193,0.4622,0.4981,0.0,0.0,0.0,0.0,0.0,0.0,0.0,0.0,0.0,0.0,0.0,0.0,0.0,0.0,0.0,0.0,0.0,0.0,0.0,0.0,0.0,0.0,0.0,0.0,0.0,0.0,0.0,0.0,0.0,0.0,0.0,0.0,0.0,0.0,0.0,0.0,0.0,0.0,0.0,0.0,0.0,0.0,0.0,0.0,0.0,0.0,0.0,0.0,0.0,0.0,0.0,0.0,0.0,0.0,0.0,0.0,0.0,0.0,0.0,0.0,0.0,0.0,0.0,0.0,0.0,0.0,0.0,0.0,0.0,0.0,0.0,0.0,0.0,0.0,0.0,0.0,0.0,0.0,0.0,0.0,0.0,0.0,0.0,0.0,0.0,0.0,0.0,0.0,0.0,0.0,0.0,0.0,0.0,0.0,0.0,0.0,0.0,0.0,0.0,0.0,0.0,0.0,0.0,0.0,0.0,0.0,0.0,0.0,0.0,0.2689,0.3307,0.3808,0.4193,0.4743,0.5046,0.0,0.0,0.0,0.0,0.0,0.0,0.0,0.0,0.0,0.0,0.0,0.0,0.0,0.0,0.0,0.0,0.0,0.0,0.0,0.0,0.0,0.0,0.0,0.0,0.0,0.0,0.0,0.0,0.0,0.0,0.0,0.0,0.0,0.0,0.0,0.0,0.0,0.0,0.0,0.0,0.0,0.0,0.0,0.0,0.0,0.0,0.0,0.0,0.0,0.0,0.0,0.0,0.0,0.0,0.0,0.0,0.0,0.0,0.0,0.0,0.0,0.0,0.0,0.0,0.0,0.0,0.0,0.0,0.0,0.0,0.0,0.0,0.0,0.0,0.0,0.0,0.0,0.0,0.0,0.0,0.0,0.0,0.0,0.0,0.0,0.0,0.0,0.0,0.0,0.0,0.0,0.0,0.0,0.0,0.0,0.0,0.0,0.0,0.0,0.0,0.0,0.0,0.0,0.0,0.0,0.0,0.0,0.0,0.0,0.2792,0.3362,0.3874,0.4326,0.4885,0.5254,0.5451,0.0,0.0,0.0,0.0,0.0,0.0,0.0,0.0,0.0,0.0,0.0,0.0,0.0,0.0,0.0,0.0,0.0,0.0,0.0,0.0,0.0,0.0,0.0,0.0,0.0,0.0,0.0,0.0,0.0,0.0,0.0,0.0,0.0,0.0,0.0,0.0,0.0,0.0,0.0,0.0,0.0,0.0,0.0,0.0,0.0,0.0,0.0,0.0,0.0,0.0,0.0,0.0,0.0,0.0,0.0,0.0,0.0,0.0,0.0,0.0,0.0,0.0,0.0,0.0,0.0,0.0,0.0,0.0,0.0,0.0,0.0,0.0,0.0,0.0,0.0,0.0,0.0,0.0,0.0,0.0,0.0,0.0,0.0,0.0,0.0,0.0,0.0,0.0,0.0,0.0,0.0,0.0,0.0,0.0,0.0,0.0,0.0,0.0,0.0,0.0,0.0,0.0,0.0,0.0,0.0,0.0,0.0,0.0,0.2882,0.3536,0.4063,0.4571,0.5093,0.5531,0.0,0.0,0.0,0.0,0.0,0.0,0.0,0.0,0.0,0.0,0.0,0.0,0.0,0.0,0.0,0.0,0.0,0.0,0.0,0.0,0.0,0.0,0.0,0.0,0.0,0.0,0.0,0.0,0.0,0.0,0.0,0.0,0.0,0.0,0.0,0.0,0.0,0.0,0.0,0.0,0.0,0.0,0.0,0.0,0.0,0.0,0.0,0.0,0.0,0.0,0.0,0.0,0.0,0.0,0.0,0.0,0.0,0.0,0.0,0.0,0.0,0.0,0.0,0.0,0.0,0.0,0.0,0.0,0.0,0.0,0.0,0.0,0.0,0.0,0.0,0.0,0.0,0.0,0.0,0.0,0.0,0.0,0.0,0.0,0.0,0.0,0.0,0.0,0.0,0.0,0.0,0.0,0.0,0.0,0.0,0.0,0.0,0.0,0.0,0.0,0.0,0.0,0.0,0.0,0.0,0.0,0.0,0.0,0.0,0.3162,0.3791,0.4241,0.4581,0.5208,0.5701,0.0,0.0,0.0,0.0,0.0,0.0,0.0,0.0,0.0,0.0,0.0,0.0,0.0,0.0,0.0,0.0,0.0,0.0,0.0,0.0,0.0,0.0,0.0,0.0,0.0,0.0,0.0,0.0,0.0,0.0,0.0,0.0,0.0,0.0,0.0,0.0,0.0,0.0,0.0,0.0,0.0,0.0,0.0,0.0,0.0,0.0,0.0,0.0,0.0,0.0,0.0,0.0,0.0,0.0,0.0,0.0,0.0,0.0,0.0,0.0,0.0,0.0,0.0,0.0,0.0,0.0,0.0,0.0,0.0,0.0,0.0,0.0,0.0,0.0,0.0,0.0,0.0,0.0,0.0,0.0,0.0,0.0,0.0,0.0,0.0,0.0,0.0,0.0,0.0,0.0,0.0,0.0,0.0,0.0,0.0,0.0,0.0,0.0,0.0,0.0,0.0,0.0,0.0,0.0,0.0,0.0,0.0,0.0,0.2388,0.3077,0.3673,0.4173,0.4578,0.5288,0.5834,0.0,0.0,0.0,0.0,0.0,0.0,0.0,0.0,0.0,0.0,0.0,0.0,0.0,0.0,0.0,0.0,0.0,0.0,0.0,0.0,0.0,0.0,0.0,0.0,0.0,0.0,0.0,0.0,0.0,0.0,0.0,0.0,0.0,0.0,0.0,0.0,0.0,0.0,0.0,0.0,0.0,0.0,0.0,0.0,0.0,0.0,0.0,0.0,0.0,0.0,0.0,0.0,0.0,0.0,0.0,0.0,0.0,0.0,0.0,0.0,0.0,0.0,0.0,0.0,0.0,0.0,0.0,0.0,0.0,0.0,0.0,0.0,0.0,0.0,0.0,0.0,0.0,0.0,0.0,0.0,0.0,0.0,0.0,0.0,0.0,0.0,0.0,0.0,0.0,0.0,0.0,0.0,0.0,0.0,0.0,0.0,0.0,0.0,0.0,0.0,0.0,0.0,0.0,0.0,0.0,0.0,0.0,0.0,0.2216,0.2766,0.3366,0.3931,0.4556,0.5359,0.5893,0.0,0.0,0.0,0.0,0.0,0.0,0.0,0.0,0.0,0.0,0.0,0.0,0.0,0.0,0.0,0.0,0.0,0.0,0.0,0.0,0.0,0.0,0.0,0.0,0.0,0.0,0.0,0.0,0.0,0.0,0.0,0.0,0.0,0.0,0.0,0.0,0.0,0.0,0.0,0.0,0.0,0.0,0.0,0.0,0.0,0.0,0.0,0.0,0.0,0.0,0.0,0.0,0.0,0.0,0.0,0.0,0.0,0.0,0.0,0.0,0.0,0.0,0.0,0.0,0.0,0.0,0.0,0.0,0.0,0.0,0.0,0.0,0.0,0.0,0.0,0.0,0.0,0.0,0.0,0.0,0.0,0.0,0.0,0.0,0.0,0.0,0.0,0.0,0.0,0.0,0.0,0.0,0.0,0.0,0.0,0.0,0.0,0.0,0.0,0.0,0.0,0.0,0.0,0.0,0.0,0.0,0.0,0.0,0.2081,0.2653,0.337,0.4012,0.4565,0.5232,0.5774,0.0,0.0,0.0,0.0,0.0,0.0,0.0,0.0,0.0,0.0,0.0,0.0,0.0,0.0,0.0,0.0,0.0,0.0,0.0,0.0,0.0,0.0,0.0,0.0,0.0,0.0,0.0,0.0,0.0,0.0,0.0,0.0,0.0,0.0,0.0,0.0,0.0,0.0,0.0,0.0,0.0,0.0,0.0,0.0,0.0,0.0,0.0,0.0,1.6774,0.0,0.0,0.0,0.0,0.0,0.0,0.0,0.0,0.0,0.0,0.0,0.0,0.0,0.0,0.0,0.0,0.0,0.0,0.0,0.0,0.0,0.0,0.0,0.0,0.0,0.0,0.0,0.0,0.0,0.0,0.0,0.0,0.0,0.0,0.0,0.0,0.0,0.0,0.0,0.0,0.0,0.0,0.0,0.0,0.0,0.0,0.0,0.0,0.0,0.0,0.0,0.0,0.0,0.0,0.0,0.0,0.0,0.0,0.0,0.191,0.2472,0.3132,0.3799,0.4452,0.4954,0.5553,0.0,0.0,0.0,0.0,0.0,0.0,0.0,0.0,0.0,0.0,0.0,0.0,0.0,0.0,0.0,0.0,0.0,0.0,0.0,0.0,0.0,0.0,0.0,0.0,0.0,0.0,0.0,0.0,0.0,0.0,0.0,0.0,0.0,0.0,0.0,0.0,0.0,0.0,0.0,0.0,0.0,0.0,0.0,0.0,0.0,0.0,0.0,0.0,0.0,0.0,0.0,0.0,0.0,0.0,0.0,0.0,0.0,0.0,0.0,0.0,0.0,0.0,0.0,0.0,0.0,0.0,0.0,0.0,0.0,0.0,0.0,0.0,0.0,0.0,0.0,0.0,0.0,0.0,0.0,0.0,0.0,0.0,0.0,0.0,0.0,0.0,0.0,0.0,0.0,0.0,0.0,0.0,0.0,0.0,0.0,0.0,0.0,0.0,0.0,0.0,0.0,0.0,0.0,0.0,0.0,0.0,0.0,0.1254,0.1724,0.2224,0.2873,0.3491,0.4151,0.4684,0.5325,0.6116,0.0,0.0,0.0,0.0,0.0,0.0,0.0,0.0,0.0,0.0,0.0,0.0,0.0,0.0,0.0,0.0,0.0,0.0,0.0,0.0,0.0,0.0,0.0,0.0,0.0,0.0,0.0,0.0,0.0,0.0,0.0,0.0,0.0,0.0,0.0,0.0,0.0,0.0,1.5166,1.6081,0.0,0.0,0.0,0.0,0.0,0.0,0.0,0.0,1.7929,0.0,0.0,0.0,0.0,0.0,0.0,0.0,0.0,0.0,0.0,0.0,0.0,0.0,0.0,0.0,0.0,0.0,0.0,0.0,0.0,0.0,0.0,0.0,0.0,0.0,0.0,0.0,0.0,0.0,0.0,0.0,0.0,0.0,0.0,0.0,0.0,0.0,0.0,0.0,0.0,0.0,0.0,0.0,0.0,0.0,0.0,0.0,0.0,0.0,0.0,0.0,0.0,0.0,0.0,0.0,0.0,0.0897,0.1017,0.1358,0.1851,0.261,0.3224,0.3751,0.4436,0.5204,0.5922,0.0,0.0,0.0,0.0,0.0,0.0,0.0,0.0,0.0,0.0,0.0,0.0,0.0,0.0,0.0,0.0,0.0,0.0,0.0,0.0,0.0,0.0,0.0,0.0,0.0,0.0,0.0,0.0,0.0,0.0,0.0,0.0,0.0,0.0,0.0,0.0,0.0,0.0,0.0,1.6268,1.6552,0.0,0.0,0.0,0.0,0.0,0.0,0.0,0.0,1.7813,0.0,0.0,0.0,0.0,0.0,0.0,0.0,0.0,0.0,0.0,0.0,0.0,0.0,0.0,0.0,0.0,0.0,0.0,0.0,0.0,0.0,0.0,0.0,0.0,0.0,0.0,0.0,0.0,0.0,0.0,0.0,0.0,0.0,0.0,0.0,0.0,0.0,0.0,0.0,0.0,0.0,0.0,0.0,0.0,0.0,0.0,0.0,0.0,0.0,0.0,0.0,0.0,0.0,0.0,0.0,0.0617,0.0898,0.1296,0.1789,0.2479,0.3157,0.382,0.4376,0.509,0.0,0.0,0.0,0.0,0.0,0.0,0.0,0.0,0.0,0.0,0.0,0.0,0.0,0.0,0.0,0.0,0.0,0.0,0.0,0.0,0.0,0.0,0.0,0.0,0.0,0.0,0.0,0.0,0.0,0.0,0.0,0.0,0.0,0.0,0.0,0.0,0.0,0.0,0.0,0.0,1.6175,1.6293,1.6436,0.0,0.0,0.0,0.0,0.0,0.0,1.757,1.7624,0.0,0.0,0.0,0.0,0.0,0.0,0.0,0.0,0.0,0.0,0.0,0.0,0.0,0.0,0.0,0.0,0.0,0.0,0.0,0.0,0.0,0.0,0.0,0.0,0.0,0.0,0.0,0.0,0.0,0.0,0.0,0.0,0.0,0.0,0.0,0.0,0.0,0.0,0.0,0.0,0.0,0.0,0.0,0.0,0.0,0.0,0.0,0.0,0.0,0.0,0.0,0.0,0.0,0.0,0.0,0.0396,0.084,0.1301,0.1744,0.2355,0.3088,0.3889,0.4376,0.5029,0.0,0.0,0.0,0.0,0.0,0.0,0.0,0.0,0.0,0.0,0.0,0.0,0.0,0.0,0.0,0.0,0.0,0.0,0.0,0.0,0.0,0.0,0.0,0.0,0.0,0.0,0.0,0.0,0.0,0.0,0.0,0.0,0.0,0.0,0.0,0.0,0.0,0.0,0.0,0.0,0.0,1.6088,1.6306,1.6392,0.0,0.0,0.0,0.0,1.6931,1.7199,0.0,0.0,0.0,0.0,0.0,0.0,0.0,0.0,0.0,0.0,0.0,0.0,0.0,0.0,0.0,0.0,0.0,0.0,0.0,0.0,0.0,0.0,0.0,0.0,0.0,0.0,0.0,0.0,0.0,0.0,0.0,0.0,0.0,0.0,0.0,0.0,0.0,0.0,0.0,0.0,0.0,0.0,0.0,0.0,0.0,0.0,0.0,0.0,0.0,0.0,0.0,0.0,0.0,0.0,0.0,0.0,0.0526,0.1093,0.1439,0.1666,0.2312,0.3021,0.362,0.4247,0.509,0.0,0.0,0.0,0.0,0.0,0.0,0.0,0.0,0.0,0.0,0.0,0.0,0.0,0.0,0.0,0.0,0.0,0.0,0.0,0.0,0.0,0.0,0.0,0.0,0.0,0.0,0.0,0.0,0.0,0.0,0.0,0.0,0.0,0.0,0.0,0.0,0.0,0.0,0.0,0.0,0.0,1.6032,1.6044,1.6144,1.6275,0.0,0.0,1.6534,1.6718,1.6918,0.0,0.0,0.0,0.0,0.0,0.0,0.0,0.0,0.0,0.0,0.0,0.0,0.0,0.0,0.0,0.0,0.0,0.0,0.0,0.0,0.0,0.0,0.0,0.0,0.0,0.0,0.0,0.0,0.0,0.0,0.0,0.0,0.0,0.0,0.0,0.0,0.0,0.0,0.0,0.0,0.0,0.0,0.0,0.0,0.0,0.0,0.0,0.0,0.0,0.0,0.0,0.0,0.0,0.0,0.0,0.0851,0.0823,0.1217,0.1504,0.1739,0.2383,0.3088,0.3825,0.4313,0.5032,0.0,0.0,0.0,0.0,0.0,0.0,0.0,0.0,0.0,0.0,0.0,0.0,0.0,0.0,0.0,0.0,0.0,0.0,0.0,0.0,0.0,0.0,0.0,0.0,0.0,0.0,0.0,0.0,0.0,0.0,0.0,0.0,0.0,0.0,0.0,0.0,0.0,0.0,0.0,0.0,0.0,0.0,1.5824,1.5881,0.0,0.0,0.0,1.6262,1.6491,0.0,0.0,0.0,0.0,0.0,0.0,0.0,0.0,0.0,0.0,0.0,0.0,0.0,0.0,0.0,0.0,0.0,0.0,0.0,0.0,0.0,0.0,0.0,0.0,0.0,0.0,0.0,0.0,0.0,0.0,0.0,0.0,0.0,0.0,0.0,0.0,0.0,0.0,0.0,0.0,0.0,0.0,0.0,0.0,0.0,0.0,0.0,0.0,0.0,0.0,0.0,0.0,0.0,0.0,0.0,0.0,0.0,0.1012,0.1281,0.1572,0.1823,0.2458,0.3157,0.3892,0.4345,0.0,0.0,0.0,0.0,0.0,0.0,0.0,0.0,0.0,0.0,0.0,0.0,0.0,0.0,0.0,0.0,0.0,0.0,0.0,0.0,0.0,0.0,0.0,0.0,0.0,0.0,0.0,1.0381,0.0,0.0,0.0,0.0,0.0,0.0,0.0,0.0,0.0,0.0,0.0,0.0,0.0,0.0,1.5718,1.5804,1.5816,1.5861,0.0,0.0,1.6146,1.6244,1.6448,1.6791,0.0,0.0,0.0,0.0,0.0,0.0,0.0,0.0,0.0,0.0,0.0,0.0,0.0,0.0,0.0,0.0,0.0,0.0,0.0,0.0,0.0,0.0,0.0,0.0,0.0,0.0,0.0,0.0,0.0,0.0,0.0,0.0,0.0,0.0,0.0,0.0,0.0,0.0,0.0,0.0,0.0,0.0,0.0,0.0,0.0,0.0,0.0,0.0,0.0,0.0,0.0,0.0,0.0,0.0,0.0949,0.1043,0.1293,0.1648,0.1873,0.2618,0.3224,0.3823,0.4296,0.4803,0.0,0.0,0.0,0.0,0.0,0.0,0.0,0.0,0.0,0.0,0.0,0.0,0.0,0.0,0.0,0.0,0.0,0.0,0.0,0.0,0.0,0.0,0.0,0.0,0.0,0.0,0.0,0.0,0.0,0.0,0.0,0.0,0.0,0.0,0.0,0.0,0.0,0.0,0.0,0.0,0.0,1.5645,1.6138,1.615,1.615,0.0,1.6279,1.624,1.5909,1.6175,1.6577,1.6876,0.0,0.0,0.0,0.0,0.0,0.0,0.0,0.0,0.0,0.0,0.0,0.0,0.0,0.0,0.0,0.0,0.0,0.0,0.0,0.0,0.0,0.0,0.0,0.0,0.0,0.0,0.0,0.0,0.0,0.0,0.0,0.0,0.0,0.0,0.0,0.0,0.0,0.0,0.0,0.0,0.0,0.0,0.0,0.0,0.0,0.0,0.0,0.0,0.0,0.0,0.0,0.0,0.0,0.1009,0.1234,0.1418,0.1712,0.2214,0.2757,0.3291,0.3894,0.437,0.4813,0.0,0.0,0.0,0.0,0.0,0.0,0.0,0.0,0.0,0.0,0.0,0.0,0.0,0.0,0.0,0.0,0.0,0.0,0.0,0.0,0.0,0.0,0.0,0.0,0.0,0.0,0.0,0.0,1.2279,1.2662,1.3521,0.0,0.0,0.0,0.0,0.0,0.0,0.0,0.0,0.0,0.0,1.5636,1.5843,1.613,0.0,0.0,1.615,1.6161,1.5864,1.6132,1.6491,1.6833,1.7008,0.0,0.0,0.0,0.0,0.0,0.0,0.0,0.0,0.0,0.0,0.0,0.0,0.0,0.0,0.0,0.0,0.0,0.0,0.0,0.0,0.0,0.0,0.0,0.0,0.0,0.0,0.0,0.0,0.0,0.0,0.0,0.0,0.0,0.0,0.0,0.0,0.0,0.0,0.0,0.0,0.0,0.0,0.0,0.0,0.0,0.0,0.0,0.0,0.0,0.0,0.0,0.0,0.1145,0.142,0.1556,0.1856,0.2354,0.2824,0.3291,0.3959,0.4341,0.475,0.0,0.0,0.0,0.0,0.0,0.0,0.0,0.0,0.0,0.0,0.0,0.0,0.0,0.0,0.0,0.0,0.0,0.0,0.0,0.0,0.0,0.0,0.0,0.0,0.0,0.0,0.0,0.0,1.2394,1.2728,1.3494,0.0,0.0,0.0,0.0,0.0,0.0,0.0,0.0,0.0,0.0,1.568,1.5962,1.63,1.6407,1.6018,1.6192,1.6197,1.5754,1.6044,1.6448,1.6735,0.0,0.0,0.0,0.0,0.0,0.0,0.0,0.0,0.0,0.0,0.0,0.0,0.0,0.0,0.0,0.0,0.0,0.0,0.0,0.0,0.0,0.0,0.0,0.0,0.0,0.0,0.0,-0.4536,0.0,0.0,-0.3707,0.0,0.0,0.0,0.0,0.0,0.0,0.0,0.0,0.0,0.0,0.0,0.0,0.0,0.0,0.0,0.0,0.0,0.0,0.0,0.0,0.0,0.0,0.1434,0.1483,0.1713,0.1958,0.2421,0.2757,0.3291,0.3825,0.4289,0.4692,0.4814,0.0,0.0,0.0,0.0,0.0,0.0,0.0,0.0,0.0,0.0,0.0,0.0,0.0,0.0,0.0,0.0,0.0,0.0,0.0,0.0,0.0,0.0,0.0,0.0,0.0,0.0,1.2044,1.2551,1.3045,0.0,0.0,0.0,0.0,0.0,0.0,0.0,0.0,0.0,0.0,1.5519,1.5829,1.6696,1.6905,1.6748,1.6457,1.6623,1.6474,1.5645,1.5937,1.6275,0.0,0.0,0.0,0.0,0.0,0.0,0.0,0.0,0.0,0.0,0.0,0.0,0.0,0.0,0.0,0.0,0.0,0.0,0.0,0.0,0.0,0.0,0.0,0.0,0.0,0.0,0.0,-0.5211,-0.5154,0.0,0.0,0.0,0.0,0.0,0.0,0.0,0.0,0.0,0.0,0.0,-0.3698,-0.3266,0.0,0.0,0.0,0.0,0.0,0.0,0.0,0.0,0.0,0.0,0.0,0.0,0.1497,0.1602,0.1714,0.2026,0.2552,0.2753,0.3088,0.3758,0.4095,0.4563,0.5325,0.0,0.0,0.0,0.0,0.0,0.0,0.0,0.0,0.0,0.0,0.0,0.0,0.0,0.0,0.0,0.0,0.0,0.0,0.0,0.0,0.0,0.0,0.0,0.0,0.0,1.0902,0.0,0.0,0.0,0.0,0.0,0.0,0.0,0.0,0.0,0.0,0.0,1.4919,1.5121,1.5589,1.6059,1.6428,1.6863,1.7059,0.0,0.0,0.0,0.0,0.0,0.0,0.0,0.0,0.0,0.0,0.0,0.0,0.0,0.0,1.9459,1.8939,1.8793,1.8786,1.8947,0.0,0.0,0.0,0.0,0.0,0.0,0.0,0.0,0.0,0.0,0.0,0.0,0.0,0.0,-0.5821,-0.5752,-0.5313,0.0,0.0,0.0,0.0,0.0,0.0,0.0,0.0,-0.4253,-0.4162,-0.4058,-0.3569,-0.3202,0.0,-0.2219,-0.1595,0.0,0.0,0.0,0.0,0.0,0.0,0.0,0.0,0.1701,0.1815,0.1934,0.2244,0.2683,0.2753,0.3088,0.3694,0.3961,0.4501,0.5389,0.5616,0.5919,0.0,0.0,0.0,0.0,0.0,0.0,0.0,0.0,0.0,0.0,0.0,0.0,0.0,0.0,0.0,0.0,0.0,0.0,0.0,0.0,0.0,0.0,0.0,1.0739,0.0,0.0,0.0,0.0,0.0,0.0,0.0,0.0,0.0,1.4382,1.4757,1.511,1.5322,1.5764,1.6223,1.6493,0.0,0.0,0.0,0.0,0.0,0.0,0.0,1.7066,1.6983,1.7638,1.8286,1.8658,1.9374,1.9998,2.0185,0.0,0.0,1.9982,1.9834,1.9858,2.0041,2.0193,2.0483,2.0973,2.2117,2.2995,0.0,0.0,0.0,0.0,0.0,0.0,0.0,0.0,-0.6804,-0.6455,0.0,-0.5784,0.0,0.0,0.0,0.0,-0.4764,-0.4862,0.0,0.0,-0.4738,-0.4562,-0.4206,-0.3899,-0.3525,-0.3219,-0.2544,-0.192,-0.1295,-0.0719,0.0,0.0,0.0,0.0,0.0,0.0,0.2005,0.2065,0.2324,0.2493,0.2696,0.29,0.3169,0.3509,0.4041,0.4581,0.5091,0.5385,0.5674,0.5827,0.6262,0.0,0.0,0.0,0.0,0.0,0.0,0.0,0.0,0.0,0.0,0.0,0.0,0.0,0.0,0.0,0.0,0.0,0.0,0.0,0.0,0.9907,0.0,0.0,0.0,0.0,0.0,0.0,0.0,0.0,0.0,0.0,1.4637,1.5129,1.5563,1.5977,0.0,0.0,0.0,0.0,1.6905,1.6741,1.6919,1.7053,1.6854,1.7265,1.769,1.7917,0.0,0.0,1.9264,1.9548,1.9785,2.0037,2.0815,2.1264,2.1138,2.1307,2.1555,2.1786,2.1774,2.2022,2.2755,2.3542,2.4067,-0.821,0.0,0.0,0.0,0.0,-0.7623,-0.7677,-0.7671,-0.7486,-0.7365,-0.7186,-0.683,0.0,0.0,0.0,0.0,0.0,0.0,-0.5175,-0.5199,-0.4948,-0.4803,-0.4724,-0.4453,-0.4021,-0.3615,-0.3003,-0.2366,-0.162,-0.1161,-0.0436,0.0488,0.0,0.0,0.0,0.0,0.2131,0.2195,0.239,0.2654,0.2848,0.3063,0.3349,0.3701,0.4119,0.454,0.5042,0.5178,0.5468,0.5994,0.6237,0.0,0.0,0.0,0.0,0.0,0.0,0.0,0.0,0.0,0.0,0.0,0.0,0.0,0.0,0.0,0.0,0.0,0.0,0.0,0.9395,1.0077,1.0608,0.0,0.0,0.0,0.0,0.0,0.0,0.0,0.0,0.0,1.5029,1.5195,1.5308,0.0,0.0,1.6254,1.6662,1.6797,1.6978,1.7225,1.7433,0.0,1.7541,1.7814,1.7994,1.7872,1.8649,1.9573,2.0377,2.0636,2.086,2.1189,2.1827,2.2412,2.2698,2.2294,2.2081,2.2323,2.2626,2.2964,2.3465,2.4302,2.5126,-0.886,-0.835,-0.8115,-0.8081,-0.8148,-0.8259,-0.8265,-0.8254,-0.8226,-0.8061,-0.7814,-0.7485,-0.726,-0.7076,-0.6902,0.0,0.0,0.0,-0.5616,-0.5581,-0.5442,-0.53,-0.5176,-0.4897,-0.4438,-0.3996,-0.3369,-0.2632,-0.1992,-0.1517,-0.074,0.0264,0.0,0.0,0.1598,0.1952,0.2207,0.2223,0.2541,0.2795,0.2913,0.3205,0.3495,0.3783,0.4153,0.4448,0.4743,0.5001,0.5383,0.5832,0.6109,0.6328,0.0,0.0,0.0,0.0,0.0,0.0,0.0,0.0,0.0,0.0,0.0,0.7962,0.8263,0.0,0.0,0.0,0.8947,0.9302,0.9737,1.0318,0.0,0.0,0.0,0.0,0.0,0.0,0.0,1.3965,1.4508,1.4919,1.5143,1.5219,1.5379,1.565,1.594,1.6228,1.657,0.0,1.6931,1.7368,1.7645,1.7818,1.8002,1.835,1.8602,1.8747,1.9645,2.0544,2.1199,2.1716,2.2115,2.2468,2.2928,2.3427,2.3883,2.3554,2.3348,2.3702,2.4031,2.4394,2.4914,2.5775,2.6567,-0.9408,-0.9466,-0.9171,-0.9079,-0.9079,-0.9085,-0.9079,-0.9062,-0.8908,-0.8618,-0.8278,-0.8066,-0.7793,-0.7486,-0.7179,0.0,-0.6273,-0.6384,-0.6206,-0.588,-0.6029,-0.5888,-0.5535,-0.518,-0.482,-0.4385,-0.3582,-0.2921,-0.2335,-0.1823,-0.0947,0.0218,0.1123,0.1609,0.1689,0.2032,0.2225,0.2339,0.2704,0.2924,0.2931,0.3298,0.3591,0.381,0.3946,0.4188,0.4434,0.4978,0.5332,0.5385,0.5871,0.622,0.6518,0.0,0.0,0.0,0.0,0.0,0.0,0.0,0.0,0.0,0.0,0.0,0.0,0.0,0.0,0.0,0.9337,0.0,1.0031,1.0546,0.0,0.0,0.0,1.1865,1.2385,1.2764,1.3257,1.3882,0.0,0.0,1.5157,1.5313,1.5536,1.5999,1.6056,1.6228,1.6513,1.6694,1.6931,1.7278,1.7645,1.8041,1.848,1.9,1.9621,2.0233,2.1017,2.1642,2.194,2.2638,2.3278,2.3482,2.3914,2.4289,2.4704,2.4956,2.5305,2.5672,2.5712,2.5922,2.662,2.736,2.7856,-1.0033,-1.0087,-1.0027,-0.9804,-0.9599,-0.9736,-0.9742,-0.9599,-0.9746,-0.9649,-0.9372,-0.9181,-0.895,-0.8607,-0.8059,-0.7742,-0.7587,-0.7081,-0.6776,-0.6679,-0.6294,-0.6016,-0.5828,-0.5461,-0.5064,-0.4609,-0.3931,-0.322,-0.2471,-0.184,-0.1166,-0.0218,0.0498,0.1201,0.1717,0.1934,0.2182,0.2399,0.2624,0.2949,0.3388,0.3623,0.3776,0.3774,0.3936,0.4108,0.4449,0.4801,0.5109,0.5491,0.6019,0.6276,0.6224,0.6723,0.0,0.0,0.0,0.0,0.0,0.0,0.0,0.0,0.0,0.7702,0.7973,0.0,0.8404,0.0,0.9167,0.9616,0.9909,1.0515,0.0,0.0,1.1228,1.1793,1.2398,1.2777,1.3318,1.4227,1.4449,1.4672,1.5137,1.5205,1.5439,1.5846,1.5972,1.6077,1.6513,1.6694,1.6987,1.739,1.7723,1.821,1.9057,2.0072,2.0944,2.1393,2.19,2.2272,2.2565,2.2975,2.3371,2.3592,2.4277,2.4855,2.5322,2.6039,2.6802,2.7233,2.6779,2.6317,2.6792,2.7291,2.7805,-1.0608,-1.0713,-1.0713,-1.0645,-1.0527,-1.0295,-1.0124,-1.0061,-1.013,-1.0061,-0.9921,-0.9642,-0.9362,-0.9076,-0.8579,-0.8297,-0.8089,-0.7605,-0.7287,-0.7078,-0.6636,-0.635,-0.628,-0.5749,-0.5331,-0.4929,-0.425,-0.3457,-0.2763,-0.2047,-0.128,-0.0603,0.0226,0.0905,0.1508,0.1865,0.2178,0.2459,0.2614,0.3018,0.3446,0.3604,0.3684,0.3841,0.3949,0.4128,0.4382,0.4696,0.5044,0.548,0.5828,0.6116,0.6322,0.6544,0.6728,0.0,0.0,0.0,0.0,0.0,0.0,0.0,0.0,0.0,0.0,0.0,0.8287,0.8636,0.9168,0.9689,0.9932,1.059,1.0974,1.1019,1.1501,1.2,1.2541,1.2923,1.3415,1.4213,1.441,1.4721,1.5276,1.5425,1.5741,1.6347,1.6497,1.6605,1.6869,1.699,1.7352,1.8076,1.8453,1.8987,1.9948,2.0846,2.1493,2.1869,2.2515,2.3027,2.3217,2.3825,2.4352,2.4565,2.5096,2.5706,2.6139,2.6748,2.7473,2.7819,2.767,2.7534,2.7895,2.8204,2.8667,-1.1128,-1.135,-1.1344,-1.1345,-1.1372,-1.0765,-1.0429,-1.0429,-1.0429,-1.0295,-1.0155,-0.9808,-0.952,-0.9373,-0.9024,-0.8593,-0.8246,-0.8061,-0.7694,-0.7343,-0.7106,-0.6868,-0.6641,-0.6022,-0.5556,-0.524,-0.4467,-0.3763,-0.3054,-0.2193,-0.149,-0.0864,-0.0079,0.0629,0.1256,0.1769,0.2153,0.2508,0.2746,0.2981,0.337,0.3446,0.3528,0.3684,0.3921,0.4039,0.4183,0.4553,0.4949,0.5409,0.5499,0.5839,0.6429,0.628,0.6361,0.0,0.6798,0.0,0.0,0.0,0.0,0.0,0.0,0.0,0.0,0.806,0.8272,0.8717,0.9363,0.982,1.0113,1.0719,1.1185,1.1498,1.1872,1.2321,1.28,1.3169,1.3544,1.4091,1.4394,1.4893,1.5605,1.5785,1.6185,1.6976,1.7161,1.7236,1.7465,1.7567,1.7889,1.8884,1.9451,2.003,2.0913,2.1455,2.1813,2.2176,2.3014,2.379,2.379,2.4721,2.5508,2.5646,2.5932,2.6418,2.6899,2.7233,2.7604,2.8122,2.8367,2.8654,2.9073,2.9374,2.9786,-1.1586,-1.163,-1.1624,-1.1662,-1.162,-1.1365,-1.1175,-1.0966,-1.0966,-1.0813,-1.0672,-1.0376,-1.0228,-1.001,-0.9638,-0.927,-0.9045,-0.8703,-0.8344,-0.7897,-0.7544,-0.7173,-0.6788,-0.6412,-0.587,-0.5321,-0.4618,-0.3915,-0.3132,-0.2429,-0.1804,-0.1179,-0.055,0.0157,0.0864,0.0,0.0,0.0,0.2668,0.2824,0.2904,0.3061,0.3219,0.3219,0.345,0.0,0.3895,0.4438,0.477,0.4958,0.5516,0.0,0.0,0.0,0.0,0.0,0.0,0.0,0.0,0.0,0.0,0.0,0.7064,0.7172,0.7584,0.8221,0.8719,0.9172,0.9623,1.0034,1.0223,1.0773,1.1122,1.1185,1.1747,1.2352,1.298,1.3345,1.3903,1.4868,1.5032,1.536,1.5933,1.6132,1.6432,1.7126,1.7232,1.7593,1.848,1.8286,1.8348,1.907,2.0021,2.0902,2.1589,2.2228,2.2664,2.3262,2.3741,2.4178,2.4446,2.498,2.555,2.5688,2.6002,2.6447,2.6884,2.7284,2.7725,2.8235,2.8541,2.8873,2.9213,2.9502,2.9814,-1.2003,-1.2003,-1.2003,-1.1929,0.0,-1.1861,-1.1706,-1.1403,-1.1174,-1.1025,-1.0962,-1.0738,-1.0519,-1.0368,-0.9922,-0.9544,-0.9246,-0.8856,-0.8479,-0.8102,-0.771,-0.7249,-0.6865,-0.6486,-0.6025,-0.5479,-0.4854,-0.4229,-0.3604,-0.2823,-0.2118,-0.1491,-0.0864,-0.0236,0.0393,0.1022,0.1649,0.2352,0.2431,0.2588,0.2824,0.2904,0.2982,0.3061,0.3215,0.0,0.0,0.0,0.0,0.0,0.0,0.0,0.0,0.606,0.0,0.646,0.6517,0.6639,0.6819,0.6788,0.6911,0.727,0.7412,0.755,0.7741,0.8389,0.8891,0.9134,0.9845,1.0257,1.0393,1.1098,1.1579,1.1717,1.223,1.2825,1.3421,1.3713,1.4241,1.4997,1.518,1.5512,1.643,1.6523,1.6934,1.7715,1.781,1.8206,1.9029,1.8839,1.8916,1.9975,2.078,2.1533,2.2164,2.2577,2.303,2.3509,2.3923,2.4261,2.4563,2.5018,2.5411,2.5729,2.6056,2.6447,2.6974,2.7372,2.776,2.825,2.8604,2.892,2.9321,2.9576,2.9842,-1.2378,-1.2378,-1.2372,-1.2305,-1.215,-1.2244,-1.209,-1.1706,-1.1316,0.0,0.0,-1.0887,-1.0663,-1.0443,-1.0143,-0.9771,-0.9322,-0.9013,-0.8556,-0.8178,-0.7795,-0.7407,-0.7019,-0.6563,-0.6099,-0.5637,-0.509,-0.4545,-0.4079,-0.3295,-0.251,-0.1803,-0.1177,-0.055,0.0,0.0864,0.1571,0.204,0.2118,0.2276,0.2669,0.2668,0.2746,0.2982,0.2982,0.3217,0.3686,0.3763,0.4151,0.4846,0.4838,0.5165,0.5839,0.5802,0.594,0.6201,0.6425,0.6626,0.6809,0.6948,0.7229,0.7451,0.7797,0.8072,0.8129,0.8635,0.8963,0.9154,1.0007,1.0543,1.0536,1.1411,1.2126,1.2398,1.2811,1.3289,1.3872,1.4089,1.4521,1.5235,1.5429,1.5773,1.6769,1.6959,1.7274,1.817,1.8412,1.8761,1.9365,1.9394,1.9712,2.0808,2.133,2.1913,2.242,2.2726,2.303,2.3509,2.3819,2.4171,2.4563,2.4948,2.5342,2.577,2.6111,2.65,2.7026,2.7386,2.779,2.8299,2.8604,2.8936,2.9382,2.9665,2.9853,-1.2826,-1.2826,-1.2826,-1.2673,-1.2519,-1.2358,-1.2137,-1.1848,-1.1484,-1.1335,-1.1341,-1.0962,-1.0663,-1.0513,-1.0293,-0.9916,-0.9549,-0.9322,-0.9018,-0.8627,-0.8178,-0.7795,-0.7407,-0.7019,-0.6479,-0.5864,-0.5398,-0.4857,-0.4077,-0.337,-0.2741,-0.2117,-0.1492,-0.0786,-0.0,0.0864,0.1335,0.1414,0.1807,0.1964,0.2043,0.2198,0.2273,0.2352,0.2668,0.2904,0.3217,0.3608,0.3997,0.4462,0.4756,0.5134,0.5372,0.5656,0.5901,0.601,0.6215,0.6375,0.6388,0.6595,0.6952,0.7455,0.7868,0.8197,0.8568,0.912,0.9472,0.9679,1.0386,1.0735,1.056,1.1396,1.2237,1.272,1.2968,1.3382,1.4211,1.4533,1.4992,1.5947,1.6113,1.6363,1.6958,1.7192,1.7406,1.7988,1.8434,1.8916,1.9473,2.0085,2.0515,2.0955,2.136,2.1812,2.2247,2.2555,2.2921,2.333,2.37,2.4054,2.4492,2.4892,2.5272,2.566,2.6056,2.6447,2.6937,2.7335,2.779,2.8299,2.8604,2.892,2.9335,2.9576,2.9858,-1.348,-1.3404,-1.348,-1.3404,-1.3244,-1.3085,-1.2925,-1.2772,-1.2402,-1.1917,-1.1422,-1.1186,-1.0962,-1.0663,-1.0438,-1.0143,-0.9771,-0.9473,-0.9094,-0.8699,-0.8255,-0.7868,-0.7484,-0.7096,-0.6637,-0.6099,-0.5553,-0.501,-0.4389,-0.3761,-0.3136,-0.251,-0.1728,-0.0864,-0.0,0.0393,0.0864,0.1336,0.1573,0.1808,0.1887,0.1964,0.2119,0.2195,0.2353,0.2588,0.2904,0.3217,0.3606,0.4073,0.4462,0.4849,0.5085,0.5395,0.5681,0.5927,0.6069,0.6191,0.6424,0.6723,0.717,0.7768,0.813,0.8498,0.8945,0.9291,0.9572,0.9793,1.0594,1.1019,1.0765,1.1784,1.2692,1.3194,1.3467,1.3948,1.4644,1.4895,1.532,1.6026,1.6272,1.6491,1.6968,1.7157,1.7501,1.794,1.8502,1.9106,1.9539,2.0053,2.0518,2.0903,2.136,2.1824,2.2135,2.2506,2.286,2.321,2.3509,2.3923,2.4363,2.4778,2.5174,2.5605,2.6002,2.6394,2.6899,2.735,2.779,2.8186,2.8541,2.8905,2.9243,2.9665,3.006,-1.4145,-1.4145,-1.4145,-1.4137,-1.3981,-1.3738,-1.3581,-1.3581,-1.3186,-1.2551,-1.1853,-1.1671,-1.1444,-1.1065,-1.0842,-1.0543,-1.0155,-0.9647,-0.9239,-0.8923,-0.8349,-0.7949,-0.7561,-0.7096,-0.6718,-0.6335,-0.5712,-0.5165,-0.4776,-0.4153,-0.3452,-0.2747,-0.1727,-0.0943,-0.0314,-0.0079,0.0314,0.0943,0.1258,0.1493,0.173,0.1808,0.1886,0.2041,0.2196,0.2353,0.2746,0.2982,0.3295,0.3763,0.4153,0.454,0.4927,0.5085,0.5395,0.5786,0.586,0.6093,0.6637,0.6945,0.7411,0.8025,0.8327,0.8703,0.9216,0.9583,0.9794,1.0041,1.0844,1.1297,1.1291,1.2204,1.3112,1.355,1.3912,1.4314,1.4991,1.5204,1.5417,1.5921,1.6202,1.6412,1.676,1.7079,1.7423,1.793,1.8607,1.9142,1.9462,1.9781,2.0302,2.07,2.1221,2.1686,2.2061,2.2371,2.2678,2.3017,2.333,2.3734,2.4131,2.4549,2.4948,2.5439,2.5893,2.6272,2.6765,2.7233,2.7675,2.8088,2.8477,2.8873,2.9259,2.977,3.0231,-1.501,-1.4995,-1.5025,-1.4754,-1.4465,-1.4073,-1.393,-1.3852,-1.3588,-1.3317,-1.2942,-1.2482,-1.2086,-1.186,-1.1597,-1.1266,-1.085,-1.0258,-0.9776,-0.9516,-0.8567,-0.8102,-0.797,-0.7261,-0.6788,-0.6497,-0.5883,-0.5425,-0.4948,-0.4321,-0.3532,-0.2589,-0.1728,-0.1259,-0.1101,-0.0393,0.0,0.0157,0.0471,0.0943,0.1336,0.1573,0.165,0.1649,0.204,0.2273,0.251,0.2902,0.3295,0.3765,0.3999,0.4311,0.4698,0.4927,0.524,0.5556,0.5789,0.617,0.6788,0.6865,0.7253,0.8025,0.8475,0.8856,0.9246,0.9948,1.037,1.0582,1.1199,1.1563,1.171,1.2425,1.32,1.3805,1.4008,1.4353,1.4856,1.507,1.5355,1.5797,1.607,1.6412,1.6612,1.6853,1.7267,1.793,1.8414,1.8875,1.9198,1.966,2.0031,2.0291,2.0764,2.1296,2.1686,2.2011,2.2432,2.286,2.3223,2.3569,2.4041,2.4505,2.4892,2.5286,2.5729,2.6165,2.6578,2.7011,2.7554,2.8091,2.8519,2.8889,2.9369,2.9932,3.0359,-1.5981,-1.5901,-1.5901,-1.566,-1.5425,-1.4932,-1.477,-1.477,-1.4356,-1.4111,-1.3865,-1.3467,-1.2971,-1.2178,-1.1926,-1.1605,-1.1111,-1.0616,-1.0248,-0.9842,-0.9194,-0.8679,-0.8365,-0.7877,-0.7396,-0.7082,-0.6519,-0.595,-0.5378,-0.4494,-0.3679,-0.2855,-0.2341,-0.1844,-0.1283,-0.0949,-0.055,-0.0,0.0157,0.055,0.1258,0.1415,0.1493,0.1572,0.1806,0.2041,0.2275,0.2588,0.2982,0.3374,0.3686,0.4077,0.4465,0.4696,0.501,0.5398,0.5709,0.6173,0.6865,0.6865,0.7249,0.8025,0.8327,0.8708,0.9246,0.9916,1.0368,1.0594,1.126,1.17,1.1755,1.2432,1.3119,1.3652,1.3928,1.4281,1.4641,1.4999,1.5355,1.5584,1.5921,1.6272,1.6403,1.6715,1.7189,1.7852,1.8212,1.8539,1.8998,1.933,1.9649,2.0031,2.0366,2.0764,2.1285,2.1886,2.2259,2.2555,2.2969,2.339,2.3891,2.4274,2.4637,2.5118,2.5647,2.6141,2.6457,2.6937,2.7512,2.8218,2.9431,3.0096,3.026,3.0794,3.1242,-1.682,-1.664,-1.6558,-1.6409,-1.6252,-1.5741,-1.5567,-1.5394,-1.5061,-1.4734,-1.4573,-1.4328,-1.3688,-1.2838,-1.2475,-1.198,-1.1484,-1.1094,-1.0571,-1.0075,-0.9606,-0.9169,-0.8677,-0.8267,-0.7855,-0.7368,-0.6947,-0.628,-0.5613,-0.4701,-0.3865,-0.335,-0.2812,-0.2299,-0.1722,-0.1452,-0.0961,-0.04,-0.016,0.032,0.0881,0.1194,0.1345,0.1495,0.1573,0.1728,0.204,0.2354,0.2668,0.2904,0.345,0.3917,0.4229,0.4465,0.4854,0.5321,0.5709,0.6173,0.6865,0.6865,0.7249,0.8025,0.825,0.8632,0.9241,0.9771,1.0218,1.0519,1.1111,1.1552,1.1761,1.2439,1.3046,1.3499,1.3855,1.4201,1.4497,1.4919,1.5213,1.5426,1.5788,1.614,1.6421,1.6742,1.7148,1.7657,1.794,1.8144,1.8674,1.8942,1.933,1.9781,1.9977,2.0431,2.1083,2.16,2.2049,2.2371,2.2726,2.321,2.3752,2.4106,2.466,2.5368,2.5797,2.6386,2.7028,2.7461,2.801,2.904,3.0109,3.0927,3.0795,3.147,3.1931,-1.7392,-1.731,-1.6894,-1.6738,-1.6648,-1.6245,-1.5906,-1.5733,-1.5484,-1.5235,-1.4999,-1.4573,-1.4216,-1.3924,-1.3224,-1.2668,-1.1958,-1.1573,-1.0972,-1.0282,-0.9688,-0.9178,-0.8677,-0.8267,-0.7867,-0.7496,-0.6996,-0.6315,-0.5471,-0.4794,-0.4283,-0.4038,-0.3196,-0.2688,-0.2435,-0.1757,-0.1256,-0.1084,-0.0417,-0.0,0.0084,0.0821,0.1288,0.1345,0.1494,0.1572,0.1729,0.2198,0.251,0.251,0.3136,0.3604,0.3841,0.4229,0.4776,0.5482,0.5786,0.617,0.6788,0.6865,0.7249,0.7949,0.825,0.8632,0.9246,0.9695,1.0067,1.0443,1.0887,1.1335,1.17,1.2372,1.3053,1.3448,1.3863,1.4137,1.4346,1.4721,1.4999,1.5213,1.5584,1.6087,1.6727,1.6927,1.7038,1.7323,1.7745,1.8008,1.8212,1.8674,1.9008,1.9264,1.9715,2.0366,2.1019,2.1411,2.1726,2.2157,2.2665,2.3142,2.3666,2.424,2.4965,2.5778,2.6493,2.7181,2.7811,2.8452,2.9099,2.9818,3.04,3.0974,3.1565,3.1661,3.2095,-1.804,-1.7716,-1.731,-1.7147,-1.7066,-1.6656,-1.6409,-1.6312,-1.5824,-1.5484,-1.5235,-1.4817,-1.4405,-1.4082,-1.3568,-1.2973,-1.2443,-1.202,-1.147,-1.0937,-1.0439,-0.9984,-0.9558,-0.9046,-0.8618,-0.8189,-0.7677,-0.69,-0.5944,-0.542,-0.4899,-0.4278,-0.3886,-0.3346,-0.2828,-0.2372,-0.1934,-0.1345,-0.1009,-0.0673,-0.0169,0.0251,0.0663,0.1231,0.1356,0.1493,0.1573,0.1964,0.2199,0.251,0.2981,0.345,0.3763,0.4309,0.4854,0.5323,0.5634,0.6022,0.6637,0.6865,0.7249,0.8025,0.8178,0.856,0.917,0.9549,0.9916,1.0443,1.0893,1.126,1.1626,1.2224,1.2914,1.3389,1.374,1.4,1.4209,1.4497,1.4792,1.5007,1.5443,1.5938,1.6281,1.6551,1.676,1.7038,1.7314,1.7588,1.794,1.8269,1.8539,1.8998,1.933,1.9715,2.0377,2.0955,2.1481,2.2166,2.279,2.3515,2.4104,2.4743,2.5484,2.6062,2.6917,2.7607,2.8191,2.9174,2.9826,3.0313,3.0907,3.1663,3.2489,3.2501,3.2834,-1.8531,-1.8201,-1.7797,-1.7554,-1.7554,-1.7139,-1.682,-1.6648,-1.6229,-1.5816,-1.5484,-1.5068,-1.4657,-1.4243,-1.3828,-1.3392,-1.2881,-1.2289,-1.1774,-1.1241,-1.0901,-1.0467,-0.9951,-0.9524,-0.9082,-0.8548,-0.7937,-0.7146,-0.6435,-0.5899,-0.5366,-0.4823,-0.441,-0.3946,-0.3327,-0.2941,-0.2404,-0.1974,-0.1545,-0.1117,-0.0516,-0.0256,0.017,0.0762,0.1149,0.1367,0.1528,0.1677,0.1986,0.2299,0.2679,0.3217,0.3763,0.4309,0.4776,0.5162,0.5482,0.5867,0.6409,0.6791,0.7173,0.7868,0.803,0.8408,0.9018,0.9322,0.9771,1.0218,1.0663,1.1031,1.1397,1.1996,1.2686,1.3243,1.3587,1.3783,1.3992,1.4353,1.4641,1.4935,1.5371,1.5726,1.6,1.6263,1.6473,1.67,1.6899,1.7245,1.752,1.7872,1.8144,1.8684,1.9163,1.9504,2.0157,2.0809,2.1411,2.2108,2.3001,2.3798,2.4511,2.5191,2.5895,2.6413,2.7114,2.7848,2.8689,2.9726,3.0347,3.0773,3.1454,3.2137,3.2786,3.3282,3.3486,-1.87,-1.8612,-1.8201,-1.804,-1.7951,-1.7554,-1.7147,-1.6812,-1.6656,-1.6237,-1.5741,-1.5477,-1.5061,-1.4657,-1.4159,-1.3822,-1.3222,-1.246,-1.186,-1.1332,-1.0901,-1.0467,-1.0033,-0.9519,-0.9078,-0.8544,-0.758,-0.7143,-0.6962,-0.6251,-0.5719,-0.5542,-0.4736,-0.437,-0.4206,-0.3387,-0.2946,-0.2674,-0.1959,-0.1429,-0.1253,-0.0615,-0.0174,0.0,0.0767,0.1179,0.1263,0.1484,0.1709,0.1946,0.2312,0.2909,0.3696,0.4233,0.4538,0.5004,0.5401,0.5792,0.6261,0.6637,0.7019,0.7484,0.7868,0.8255,0.8703,0.9089,0.9473,0.9922,1.0293,1.0663,1.1111,1.1632,1.2238,1.2987,1.328,1.3572,1.379,1.4145,1.4497,1.4864,1.5221,1.5576,1.5797,1.6,1.6202,1.6342,1.663,1.6908,1.7056,1.7586,1.791,1.8262,1.8932,1.9599,2.0121,2.0706,2.1305,2.1991,2.3038,2.3935,2.4669,2.5398,2.618,2.6816,2.7832,2.8567,2.9242,3.019,3.0734,3.127,3.1951,3.2358,3.2812,3.3187,3.3555,-1.8931,-1.8851,-1.8612,-1.8371,-1.8273,-1.7959,-1.7554,-1.7147,-1.682,-1.6409,-1.5997,-1.5567,-1.5151,-1.465,-1.4243,-1.3828,-1.3392,-1.2796,-1.2198,-1.1768,-1.116,-1.0727,-1.0381,-0.9777,-0.9165,-0.8632,-0.8109,-0.758,-0.7143,-0.6786,-0.6343,-0.5719,-0.5453,-0.4921,-0.4389,-0.3942,-0.3583,-0.2957,-0.2599,-0.2152,-0.1435,-0.1159,-0.08,-0.0533,0.0088,0.044,0.0439,0.1104,0.1582,0.1913,0.2314,0.2944,0.378,0.4187,0.4462,0.4776,0.5165,0.5553,0.5944,0.6331,0.6791,0.733,0.7638,0.8016,0.8551,0.8784,0.9165,0.9765,0.9992,1.0368,1.0962,1.126,1.1713,1.2459,1.298,1.3346,1.3637,1.4072,1.4433,1.4641,1.4935,1.515,1.5355,1.5638,1.5859,1.6,1.6281,1.6551,1.6875,1.7357,1.7868,1.8337,1.9082,1.9646,2.0195,2.0841,2.1538,2.2257,2.3179,2.4053,2.4772,2.5567,2.6349,2.7262,2.8244,2.9107,2.9808,3.0372,3.0866,3.1394,3.1796,3.2247,3.2617,3.3011,3.3398,-1.9161,-1.9082,-1.8843,-1.8772,-1.8603,-1.8282,-1.7951,-1.7554,-1.7139,-1.6738,-1.6252,-1.5824,-1.5401,-1.4901,-1.4489,-1.4075,-1.3659,-1.3228,-1.2711,-1.2112,-1.1419,-1.0982,-1.0641,-0.9951,-0.9253,-0.8727,-0.846,-0.8109,-0.7496,-0.7231,-0.6786,-0.6254,-0.5897,-0.5453,-0.4832,-0.4476,-0.3941,-0.3494,-0.3047,-0.2599,-0.2062,-0.1614,-0.1256,-0.0987,-0.0628,-0.0359,-0.0,0.0611,0.1201,0.1787,0.2282,0.2922,0.3701,0.4055,0.4423,0.4736,0.502,0.539,0.5858,0.6136,0.6567,0.7176,0.7407,0.771,0.825,0.8479,0.9008,0.9311,0.9771,1.0143,1.0588,1.0962,1.1335,1.1781,1.2452,1.3046,1.3419,1.3928,1.4217,1.4425,1.4641,1.4856,1.4999,1.5346,1.5576,1.5726,1.5938,1.6316,1.6687,1.7197,1.7791,1.8466,1.9102,1.9653,2.0192,2.0896,2.1755,2.2499,2.3304,2.4119,2.4837,2.5607,2.6433,2.7379,2.8417,2.8994,2.9699,3.0205,3.0687,3.1204,3.1682,3.2064,3.2453,3.292,3.3309,-1.9478,-1.9301,-1.9152,-1.9002,-1.8922,-1.8594,-1.8201,-1.7951,-1.7554,-1.7066,-1.6656,-1.6162,-1.5824,-1.5318,-1.4824,-1.4412,-1.4082,-1.3665,-1.3064,-1.2363,-1.1671,-1.1154,-1.0554,-0.9951,-0.9428,-0.8995,-0.8727,-0.846,-0.8113,-0.758,-0.7139,-0.6962,-0.6251,-0.5811,-0.5542,-0.4835,-0.4387,-0.4119,-0.3492,-0.3047,-0.2778,-0.2061,-0.1525,-0.1436,-0.1346,-0.0897,-0.0358,0.0,0.0531,0.1393,0.2221,0.2872,0.3367,0.3787,0.418,0.4589,0.4925,0.5286,0.5734,0.608,0.6478,0.6869,0.7235,0.7577,0.7837,0.8273,0.8551,0.8856,0.9387,0.9841,1.0067,1.0513,1.0962,1.1186,1.1929,1.2673,1.3339,1.3637,1.3855,1.4065,1.4353,1.4569,1.4569,1.4919,1.5229,1.5438,1.5677,1.6045,1.6602,1.7178,1.7651,1.8313,1.9145,1.9713,2.0197,2.0842,2.173,2.2328,2.315,2.3944,2.4838,2.5676,2.6502,2.7456,2.8287,2.8881,2.9463,2.996,3.0507,3.0984,3.1394,3.1838,3.2287,3.2703,3.3081,-1.9706,-1.9478,-1.9478,-1.924,-1.9002,-1.8692,-1.8371,-1.7959,-1.7554,-1.7147,-1.6648,-1.6245,-1.5831,-1.5394,-1.4901,-1.4496,-1.4166,-1.3756,-1.3234,-1.2619,-1.202,-1.116,-1.0467,-1.0038,-0.9689,-0.934,-0.8995,-0.8727,-0.846,-0.8021,-0.7577,-0.7051,-0.6874,-0.6432,-0.5991,-0.5544,-0.5102,-0.4659,-0.421,-0.3582,-0.2956,-0.2688,-0.2331,-0.1974,-0.1615,-0.1346,-0.0987,-0.0359,0.0448,0.1334,0.218,0.2758,0.2927,0.3571,0.405,0.4296,0.4601,0.5072,0.5476,0.5858,0.6332,0.6732,0.6951,0.7213,0.7679,0.779,0.8111,0.8551,0.8932,0.9246,0.9776,1.0067,1.0443,1.1111,1.1787,1.2452,1.2973,1.3346,1.3637,1.371,1.3985,1.4209,1.4305,1.4537,1.4913,1.5259,1.5577,1.5961,1.6587,1.7171,1.7698,1.8379,1.9065,1.9725,2.0333,2.0951,2.1548,2.2134,2.2861,2.3649,2.4707,2.5721,2.6508,2.739,2.8026,2.861,2.9198,2.9699,3.019,3.0762,3.1219,3.1667,3.2064,3.2468,3.2796,-1.9872,-1.9557,-1.9557,-1.9399,-1.9082,-1.8922,-1.8612,-1.8282,-1.7878,-1.7392,-1.6976,-1.6574,-1.6079,-1.5658,-1.5235,-1.4741,-1.4328,-1.4004,-1.3489,-1.2796,-1.2112,-1.1251,-1.0559,-1.0212,-0.9951,-0.9602,-0.9345,-0.9078,-0.8727,-0.8456,-0.8021,-0.7669,-0.7496,-0.7143,-0.652,-0.6166,-0.5719,-0.5191,-0.4743,-0.4208,-0.3583,-0.3315,-0.2957,-0.2511,-0.2063,-0.1795,-0.1346,-0.0538,0.0448,0.1253,0.1862,0.2291,0.2816,0.3222,0.3716,0.4058,0.4368,0.4763,0.5265,0.5739,0.6034,0.6436,0.6688,0.6986,0.7365,0.7521,0.8019,0.8348,0.8728,0.9155,0.9453,0.9758,1.0223,1.0887,1.1484,1.2009,1.2532,1.29,1.3119,1.3339,1.3564,1.3923,1.402,1.4344,1.4751,1.5134,1.5463,1.5967,1.6544,1.7105,1.7709,1.8328,1.8897,1.9418,1.9944,2.0469,2.1195,2.1797,2.2777,2.3508,2.4515,2.5652,2.6358,2.7121,2.7696,2.8338,2.8867,2.9449,2.996,3.0447,3.097,3.1379,3.1781,3.2176,3.2508,-2.0108,-1.9645,-1.9636,-1.9478,-1.9311,-1.9082,-1.8851,-1.8612,-1.821,-1.7716,-1.731,-1.6894,-1.6409,-1.6087,-1.5484,-1.5151,-1.465,-1.4243,-1.3652,-1.2966,-1.2203,-1.1429,-1.0814,-1.0467,-1.012,-0.9777,-0.9689,-0.9345,-0.8995,-0.8723,-0.846,-0.8197,-0.8028,-0.7676,-0.7143,-0.6697,-0.6251,-0.5808,-0.5366,-0.4832,-0.4297,-0.3942,-0.3496,-0.3045,-0.269,-0.2063,-0.1435,-0.0628,0.0179,0.1077,0.1346,0.1879,0.2594,0.2774,0.3218,0.3916,0.4126,0.4526,0.5211,0.5398,0.5675,0.6179,0.6415,0.6722,0.7044,0.7417,0.7788,0.8106,0.8742,0.9039,0.9236,0.9591,1.0144,1.0678,1.1017,1.1433,1.2013,1.2446,1.2647,1.2875,1.3271,1.3599,1.3909,1.4351,1.4744,1.5064,1.5459,1.5928,1.645,1.6962,1.7456,1.8,1.8612,1.9125,1.9618,2.001,2.0799,2.1502,2.2628,2.3593,2.4322,2.5324,2.6082,2.6837,2.7443,2.8091,2.861,2.9184,2.9699,3.019,3.0732,3.1073,3.148,3.1823,3.2216,-2.042,-2.0108,-1.9951,-1.9715,-1.9478,-1.9161,-1.8843,-1.8692,-1.8201,-1.7797,-1.7392,-1.6902,-1.6492,-1.6087,-1.5658,-1.5151,-1.4741,-1.4243,-1.3652,-1.279,-1.2454,-1.1854,-1.1241,-1.0809,-1.0467,-1.012,-0.9772,-0.9515,-0.934,-0.9074,-0.8807,-0.8548,-0.8464,-0.8201,-0.7764,-0.7228,-0.6786,-0.6435,-0.5899,-0.5364,-0.4832,-0.4476,-0.403,-0.3671,-0.3135,-0.2331,-0.1615,-0.1256,-0.0807,-0.009,0.0807,0.1345,0.1793,0.242,0.2957,0.3312,0.3926,0.4353,0.453,0.4944,0.529,0.57,0.5975,0.6361,0.6868,0.694,0.7379,0.7769,0.8176,0.86,0.918,0.9621,1.011,1.0491,1.0824,1.1072,1.1618,1.2093,1.252,1.2768,1.314,1.3557,1.3783,1.4185,1.4572,1.4917,1.5378,1.587,1.6324,1.6709,1.7203,1.7708,1.8193,1.8674,1.9222,1.9775,2.0644,2.1349,2.2402,2.3383,2.4189,2.4981,2.5804,2.6496,2.7188,2.7776,2.8352,2.8881,2.9401,2.9884,3.0433,3.0851,3.1204,3.1537,3.1879,-2.0489,-2.0264,-2.002,-1.9784,-1.9557,-1.924,-1.9002,-1.8772,-1.8451,-1.8121,-1.7635,-1.7229,-1.682,-1.6327,-1.5906,-1.5484,-1.4985,-1.4328,-1.3737,-1.3052,-1.2711,-1.2277,-1.1757,-1.1241,-1.0814,-1.0467,-1.0125,-0.9864,-0.9772,-0.9515,-0.9345,-0.899,-0.8995,-0.8732,-0.8288,-0.7933,-0.7496,-0.6966,-0.6609,-0.6074,-0.5364,-0.5097,-0.4654,-0.4117,-0.3403,-0.2689,-0.2151,-0.1793,-0.1436,-0.0897,-0.0179,0.0628,0.1166,0.1792,0.2331,0.278,0.3224,0.3762,0.403,0.4387,0.4825,0.5191,0.5569,0.599,0.6409,0.6516,0.7001,0.7499,0.7839,0.8239,0.9063,0.9688,1.0004,1.0151,1.04,1.0638,1.1014,1.1629,1.2258,1.2511,1.2831,1.3233,1.3566,1.394,1.4247,1.4568,1.5212,1.5621,1.5881,1.6324,1.6756,1.7302,1.7797,1.8273,1.8825,1.9618,2.0489,2.1272,2.2111,2.3001,2.374,2.4599,2.5453,2.6151,2.685,2.751,2.8026,2.8573,2.9099,2.9651,3.0129,3.0553,3.097,3.1248,3.1537,-2.0489,-2.0342,-2.0098,-1.9872,-1.9636,-1.9469,-1.9231,-1.9002,-1.878,-1.8371,-1.7959,-1.7554,-1.7057,-1.6648,-1.6245,-1.5831,-1.5159,-1.4496,-1.3828,-1.3392,-1.2966,-1.2619,-1.2277,-1.1757,-1.1332,-1.0901,-1.0467,-1.0294,-1.0125,-1.0047,-0.9786,-0.9432,-0.9437,-0.917,-0.8811,-0.8548,-0.8197,-0.7492,-0.7139,-0.6694,-0.6074,-0.5808,-0.5277,-0.4476,-0.3851,-0.3317,-0.2868,-0.242,-0.1973,-0.1525,-0.1256,-0.0448,0.0359,0.1166,0.1615,0.2244,0.269,0.3136,0.3496,0.3853,0.4208,0.4569,0.5097,0.545,0.5711,0.6142,0.6659,0.7105,0.753,0.8107,0.8756,0.9251,0.9576,0.9712,0.994,1.0085,1.0413,1.1142,1.1642,1.2153,1.2507,1.2908,1.3231,1.3619,1.3937,1.4316,1.4866,1.5318,1.5477,1.5891,1.6312,1.6738,1.7229,1.8031,1.8665,1.9381,2.0333,2.1118,2.1883,2.2553,2.3298,2.402,2.4814,2.5746,2.644,2.7108,2.7709,2.817,2.8688,2.9338,2.9775,3.0205,3.0553,3.097,3.1263,-2.0566,-2.0489,-2.0342,-2.0108,-1.9863,-1.9636,-1.932,-1.9002,-1.8772,-1.8451,-1.804,-1.7554,-1.7147,-1.6738,-1.6245,-1.5658,-1.4985,-1.4412,-1.3997,-1.3646,-1.3222,-1.2881,-1.2619,-1.2277,-1.194,-1.1516,-1.0992,-1.0646,-1.0559,-1.0381,-1.0125,-0.9864,-0.9694,-0.9428,-0.9165,-0.8815,-0.8548,-0.8109,-0.7577,-0.7048,-0.6786,-0.6254,-0.5633,-0.4921,-0.4387,-0.3942,-0.3496,-0.3047,-0.2601,-0.2333,-0.1705,-0.1256,-0.0718,0.0269,0.1076,0.1615,0.2333,0.2781,0.2959,0.3047,0.3494,0.3941,0.4387,0.4743,0.5097,0.5542,0.6077,0.6609,0.7319,0.8009,0.8249,0.8603,0.8974,0.9229,0.9547,0.9795,1.0147,1.0549,1.099,1.1455,1.1992,1.2524,1.2872,1.3136,1.3374,1.3678,1.4203,1.4559,1.4727,1.5228,1.5733,1.6154,1.6574,1.7546,1.8505,1.9301,2.0108,2.0809,2.1578,2.2176,2.2852,2.3372,2.4166,2.5099,2.6025,2.6714,2.7242,2.7776,2.8287,2.8867,2.9324,2.9775,3.019,3.0553,3.0866,-2.0722,-2.0566,-2.0342,-2.0177,-1.9872,-1.9715,-1.9399,-1.9161,-1.8851,-1.862,-1.829,-1.7789,-1.7383,-1.6984,-1.6574,-1.5906,-1.5151,-1.4573,-1.4243,-1.3906,-1.3568,-1.3222,-1.296,-1.2705,-1.2369,-1.2032,-1.1596,-1.117,-1.0829,-1.0641,-1.0467,-1.0294,-1.0125,-0.9864,-0.9602,-0.934,-0.8899,-0.8548,-0.8109,-0.7669,-0.7316,-0.6609,-0.5988,-0.5455,-0.5013,-0.4567,-0.4032,-0.3762,-0.3315,-0.278,-0.2331,-0.2062,-0.1524,-0.0807,0.0,0.0718,0.1615,0.2154,0.2152,0.2331,0.2778,0.3314,0.3762,0.4119,0.4565,0.5013,0.5458,0.6077,0.6877,0.7503,0.7573,0.7753,0.8105,0.8636,0.8899,0.9248,0.951,0.9777,1.0134,1.0645,1.1294,1.177,1.2231,1.2498,1.2778,1.313,1.3555,1.3808,1.3971,1.4566,1.5151,1.5741,1.6245,1.7139,1.8103,1.8825,1.9706,2.0411,2.1118,2.1797,2.2478,2.3001,2.374,2.4539,2.5382,2.6233,2.685,2.739,2.7894,2.8403,2.8867,2.931,2.9699,3.0083,3.0387,-2.0819,-2.0654,-2.0498,-2.0264,-1.9951,-1.9724,-1.9557,-1.9311,-1.8922,-1.87,-1.862,-1.8031,-1.7627,-1.731,-1.6812,-1.6147,-1.5394,-1.4985,-1.4573,-1.4159,-1.3913,-1.3568,-1.3222,-1.296,-1.2705,-1.2369,-1.2198,-1.1785,-1.1262,-1.0992,-1.0814,-1.0641,-1.0467,-1.0294,-1.0125,-0.9777,-0.9336,-0.9074,-0.8636,-0.8285,-0.7665,-0.6959,-0.634,-0.5985,-0.5633,-0.5191,-0.4743,-0.4297,-0.3941,-0.3405,-0.2957,-0.2689,-0.2153,-0.1794,-0.1166,-0.0359,0.0628,0.1076,0.1436,0.1794,0.2242,0.2689,0.3138,0.3585,0.403,0.4389,0.4924,0.5544,0.6169,0.6795,0.6874,0.6956,0.7221,0.7757,0.8201,0.8464,0.8732,0.8907,0.9161,0.974,1.0371,1.089,1.1322,1.1585,1.1843,1.2272,1.2693,1.2954,1.3209,1.3893,1.4566,1.5242,1.5914,1.673,1.7538,1.8256,1.9063,1.9784,2.0566,2.1272,2.1949,2.2628,2.3361,2.4032,2.4838,2.5618,2.6302,2.6985,2.7443,2.7894,2.8403,2.8789,2.9198,2.9651,3.0021,-2.1051,-2.0829,-2.0819,-2.0596,-2.0264,-1.9951,-1.9715,-1.9487,-1.9161,-1.8851,-1.87,-1.8201,-1.7797,-1.731,-1.673,-1.6057,-1.556,-1.5318,-1.4985,-1.4489,-1.4159,-1.3906,-1.3652,-1.3392,-1.3045,-1.279,-1.2625,-1.2203,-1.1693,-1.1424,-1.1165,-1.1003,-1.0819,-1.0641,-1.0559,-1.0212,-0.9951,-0.9689,-0.9165,-0.8644,-0.8113,-0.7404,-0.7051,-0.6694,-0.6166,-0.5633,-0.5364,-0.483,-0.4297,-0.4119,-0.3494,-0.3047,-0.2777,-0.2512,-0.1974,-0.1166,-0.0359,0.0448,0.0897,0.1256,0.1615,0.2062,0.2599,0.2956,0.3314,0.3851,0.4478,0.501,0.5369,0.5813,0.608,0.6251,0.652,0.6962,0.7404,0.7672,0.794,0.8116,0.8376,0.8636,0.9244,0.985,1.0371,1.0631,1.0895,1.1408,1.1843,1.2015,1.2443,1.3124,1.3984,1.4657,1.5333,1.6147,1.6886,1.761,1.8336,1.9143,1.9942,2.0654,2.1415,2.2101,2.2703,2.3446,2.4177,2.4992,2.5688,2.6302,2.6905,2.7443,2.7894,2.83,2.8638,2.9085,2.9588,-2.1425,-2.1061,-2.0906,-2.0741,-2.0411,-2.0098,-1.9794,-1.9557,-1.9161,-1.8851,-1.8692,-1.8362,-1.7959,-1.7392,-1.6812,-1.6312,-1.5982,-1.556,-1.5311,-1.4901,-1.4566,-1.4237,-1.399,-1.3822,-1.3561,-1.3222,-1.3052,-1.2796,-1.2289,-1.186,-1.1607,-1.1348,-1.117,-1.0987,-1.0906,-1.0559,-1.0212,-0.9864,-0.9428,-0.8907,-0.846,-0.8105,-0.7669,-0.7139,-0.6697,-0.6251,-0.5719,-0.5364,-0.4832,-0.4567,-0.403,-0.3673,-0.3403,-0.2957,-0.251,-0.224,-0.1345,-0.0448,0.0269,0.0538,0.0987,0.1436,0.1973,0.224,0.2777,0.3315,0.3853,0.4295,0.4565,0.4921,0.5366,0.5633,0.5991,0.6257,0.6609,0.6877,0.7146,0.7323,0.7499,0.776,0.8025,0.8632,0.924,0.9589,1.0028,1.0554,1.0895,1.1149,1.1671,1.2357,1.3215,1.4075,1.4741,1.5401,1.6064,1.6796,1.7521,1.8336,1.9213,2.001,2.0799,2.1492,2.2101,2.2703,2.3446,2.425,2.4981,2.5758,2.6371,2.6918,2.739,2.7789,2.8183,2.8638,2.9149,-2.1883,-2.1425,-2.1128,-2.0809,-2.0654,-2.0177,-1.9863,-1.9636,-1.932,-1.9002,-1.8692,-1.8442,-1.7959,-1.7473,-1.6976,-1.664,-1.6394,-1.5891,-1.556,-1.5311,-1.5068,-1.465,-1.4412,-1.4243,-1.399,-1.3561,-1.3568,-1.3313,-1.2881,-1.2546,-1.2209,-1.1785,-1.1602,-1.1424,-1.1257,-1.0992,-1.0641,-1.0125,-0.9689,-0.9253,-0.8899,-0.8636,-0.8197,-0.7669,-0.7228,-0.6786,-0.6163,-0.5719,-0.5369,-0.5099,-0.4654,-0.4297,-0.3941,-0.3583,-0.3136,-0.2777,-0.2061,-0.1345,-0.0628,-0.009,0.0359,0.0897,0.1436,0.1793,0.251,0.2869,0.3138,0.3671,0.3851,0.4208,0.4652,0.4832,0.5191,0.5458,0.5813,0.608,0.6349,0.6523,0.6704,0.6969,0.7143,0.7316,0.7929,0.8544,0.9074,0.9602,1.0038,1.0289,1.0977,1.1671,1.2528,1.3392,1.3984,1.465,1.5318,1.6057,1.6788,1.7521,1.8407,1.9213,2.001,2.0799,2.1492,2.2176,2.2777,2.3446,2.4166,2.5028,2.5828,2.6371,2.6918,2.7377,2.7776,2.8249,2.8766,-2.2252,-2.1949,-2.1425,-2.1061,-2.0829,-2.042,-2.0108,-1.9863,-1.9636,-1.932,-1.8922,-1.8362,-1.7951,-1.7619,-1.7302,-1.6976,-1.6656,-1.6402,-1.5982,-1.565,-1.5318,-1.5061,-1.4824,-1.4573,-1.4412,-1.4082,-1.3997,-1.3822,-1.3483,-1.3313,-1.2717,-1.2123,-1.2032,-1.1952,-1.178,-1.1332,-1.0901,-1.0467,-1.012,-0.9777,-0.9428,-0.9078,-0.8632,-0.8281,-0.7669,-0.7051,-0.6962,-0.6254,-0.5722,-0.5544,-0.5188,-0.4832,-0.4476,-0.4119,-0.3673,-0.3226,-0.2777,-0.2151,-0.1434,-0.0628,-0.009,0.0269,0.0807,0.1436,0.1973,0.2333,0.2691,0.2957,0.3226,0.3494,0.3849,0.4028,0.4389,0.4656,0.501,0.5277,0.5455,0.5633,0.5813,0.6083,0.6346,0.652,0.6697,0.7312,0.8105,0.8723,0.934,0.968,1.0289,1.1068,1.1757,1.2534,1.3137,1.3808,1.4566,1.5311,1.5884,1.6624,1.7521,1.8407,1.9213,2.0001,2.0799,2.1492,2.2101,2.2692,2.3287,2.4154,2.5028,2.5746,2.6383,2.685,2.7443,2.8052,2.856,-2.2628,-2.2402,-2.1797,-2.1349,-2.1051,-2.0654,-2.0255,-1.9863,-1.9529,-1.9301,-1.8993,-1.8442,-1.8112,-1.787,-1.7619,-1.7294,-1.6976,-1.6648,-1.6312,-1.6057,-1.5726,-1.5401,-1.5151,-1.4992,-1.4748,-1.4496,-1.4496,-1.425,-1.3913,-1.3828,-1.3489,-1.2973,-1.2631,-1.2369,-1.2106,-1.1757,-1.1241,-1.0895,-1.0554,-1.0207,-0.9864,-0.9602,-0.9161,-0.8544,-0.8372,-0.7669,-0.7139,-0.6786,-0.6343,-0.5991,-0.5633,-0.5277,-0.4921,-0.4565,-0.4119,-0.3673,-0.3314,-0.2777,-0.224,-0.1345,-0.0628,0.0,0.0538,0.1076,0.1436,0.1705,0.1973,0.2242,0.2601,0.2959,0.3229,0.3406,0.3583,0.3851,0.4119,0.4387,0.4652,0.483,0.5013,0.528,0.5458,0.5633,0.5899,0.6166,0.6959,0.7841,0.846,0.9074,0.9685,1.0294,1.0982,1.1585,1.2186,1.2875,1.3717,1.4307,1.4887,1.5801,1.6632,1.7529,1.8327,1.9213,2.001,2.0712,2.1425,2.2025,2.2692,2.3423,2.4227,2.5099,2.5746,2.6302,2.6985,2.7723,2.8235,-2.3001,-2.2703,-2.2176,-2.1731,-2.1359,-2.0896,-2.0489,-2.0089,-1.959,-1.9204,-1.8993,-1.8683,-1.8442,-1.8112,-1.787,-1.7619,-1.7294,-1.6976,-1.6722,-1.6394,-1.6064,-1.5824,-1.5575,-1.5409,-1.5159,-1.4992,-1.4824,-1.458,-1.425,-1.425,-1.4075,-1.373,-1.3398,-1.3052,-1.2619,-1.21,-1.158,-1.1413,-1.1068,-1.0727,-1.0381,-1.0038,-0.9777,-0.9074,-0.8723,-0.8285,-0.7669,-0.7228,-0.6789,-0.6435,-0.608,-0.5725,-0.5369,-0.5013,-0.4567,-0.4208,-0.3762,-0.3224,-0.2777,-0.1972,-0.1166,-0.0538,-0.009,0.0448,0.0807,0.1076,0.1345,0.1794,0.2064,0.2334,0.2604,0.2781,0.2869,0.3138,0.3317,0.3494,0.376,0.3939,0.4121,0.4391,0.4567,0.483,0.5099,0.5366,0.6163,0.6956,0.7753,0.8285,0.8727,0.9423,1.012,1.0722,1.1235,1.2009,1.2784,1.3385,1.3984,1.4887,1.5718,1.6632,1.744,1.8371,1.917,1.9923,2.0634,2.1339,2.1949,2.2628,2.3497,2.4443,2.5158,2.5955,2.6645,2.7323,2.7789,-2.315,-2.2927,-2.2553,-2.2176,-2.1731,-2.1225,-2.0829,-2.0489,-1.9913,-1.9441,-1.9073,-1.9002,-1.8754,-1.8434,-1.8112,-1.787,-1.7619,-1.7302,-1.6976,-1.673,-1.6484,-1.6237,-1.5989,-1.5824,-1.5575,-1.5409,-1.5242,-1.5082,-1.4657,-1.4741,-1.465,-1.4482,-1.4068,-1.3652,-1.3398,-1.2881,-1.2363,-1.1757,-1.1499,-1.1154,-1.0895,-1.0381,-1.012,-0.9689,-0.9161,-0.8723,-0.8197,-0.7669,-0.7231,-0.6877,-0.6435,-0.608,-0.5725,-0.5458,-0.5013,-0.4476,-0.4297,-0.3851,-0.3226,-0.2062,-0.1524,-0.1256,-0.0718,-0.0359,0.0,0.0359,0.0718,0.1166,0.1436,0.1705,0.1974,0.2064,0.2243,0.2333,0.2512,0.2781,0.2957,0.3136,0.3317,0.3587,0.3762,0.4026,0.4385,0.4743,0.5364,0.6163,0.7048,0.758,0.7848,0.8552,0.9248,0.9772,1.0376,1.1137,1.1922,1.241,1.3076,1.3984,1.4902,1.5859,1.6786,1.7714,1.8473,1.9234,2.0042,2.0868,2.1318,2.1752,2.2767,2.3863,2.4945,2.5734,2.6358,2.6837,2.731,-2.3519,-2.315,-2.2927,-2.2553,-2.2187,-2.1747,-2.1198,-2.0576,-1.9942,-1.9548,-1.9399,-1.917,-1.9002,-1.8763,-1.8442,-1.8112,-1.787,-1.7619,-1.7375,-1.6976,-1.673,-1.6484,-1.6319,-1.6079,-1.5914,-1.5922,-1.5756,-1.5499,-1.5151,-1.5151,-1.4901,-1.4734,-1.4573,-1.4075,-1.3476,-1.2966,-1.2528,-1.2277,-1.1935,-1.1596,-1.1241,-1.0982,-1.0554,-1.0038,-0.9689,-0.9248,-0.8723,-0.8109,-0.7757,-0.7228,-0.6786,-0.6523,-0.608,-0.5725,-0.5369,-0.4921,-0.4656,-0.403,-0.3496,-0.278,-0.2241,-0.1793,-0.1346,-0.1076,-0.0897,-0.0448,0.0,0.0448,0.0628,0.1076,0.1525,0.1615,0.1705,0.1794,0.1973,0.2154,0.2332,0.2332,0.2422,0.2691,0.296,0.3227,0.3585,0.3941,0.4474,0.5097,0.5894,0.6517,0.6962,0.7672,0.8372,0.8899,0.9437,1.0309,1.0973,1.1625,1.2422,1.3367,1.4414,1.5406,1.6312,1.7016,1.7986,1.8815,1.9678,2.0527,2.1123,2.1683,2.2336,2.3276,2.4391,2.523,2.5804,2.6358,2.6837,-2.3161,-2.2861,-2.2582,-2.2388,-2.2105,-2.1894,-2.1322,-2.0576,-2.0029,-1.9724,-1.9566,-1.9329,-1.9082,-1.8922,-1.8763,-1.8442,-1.8112,-1.787,-1.77,-1.7294,-1.7066,-1.6894,-1.6648,-1.6402,-1.6245,-1.6252,-1.6087,-1.5914,-1.5658,-1.5658,-1.5401,-1.5068,-1.4824,-1.4496,-1.3899,-1.3555,-1.313,-1.2881,-1.2454,-1.2106,-1.1843,-1.1408,-1.0987,-1.0467,-1.0033,-0.9602,-0.9074,-0.8636,-0.8281,-0.7669,-0.7228,-0.6877,-0.6435,-0.608,-0.5725,-0.5369,-0.4837,-0.43,-0.3853,-0.3497,-0.2959,-0.2601,-0.2063,-0.1705,-0.1525,-0.1076,-0.0807,-0.0448,-0.009,0.0269,0.0718,0.0807,0.0807,0.0897,0.1166,0.1346,0.1525,0.1524,0.1794,0.2064,0.2334,0.2602,0.2871,0.3139,0.3585,0.4208,0.4741,0.5371,0.6002,0.6805,0.7546,0.8108,0.8581,0.9383,1.0192,1.089,1.1706,1.2751,1.3713,1.4656,1.5438,1.6148,1.7234,1.837,1.9195,2.0005,2.0967,2.165,2.2325,2.3004,2.3843,2.4626,2.5218,2.5804,2.6277,-2.2332,-2.2045,-2.1699,-2.1642,-2.17,-2.1647,-2.1257,-2.0644,-2.042,-2.0029,-1.9636,-1.9636,-1.9399,-1.9082,-1.9002,-1.8763,-1.8434,-1.8201,-1.7951,-1.7708,-1.7473,-1.7302,-1.7057,-1.6812,-1.6738,-1.6492,-1.6327,-1.6327,-1.6079,-1.6004,-1.5741,-1.5401,-1.5242,-1.4908,-1.4573,-1.4243,-1.3822,-1.3398,-1.2966,-1.2619,-1.2357,-1.1843,-1.1327,-1.0895,-1.0381,-0.9864,-0.934,-0.8903,-0.8552,-0.8021,-0.758,-0.7228,-0.6874,-0.6435,-0.608,-0.5636,-0.5015,-0.4659,-0.4302,-0.3944,-0.3765,-0.3318,-0.2691,-0.2243,-0.1973,-0.1615,-0.1346,-0.1166,-0.0897,-0.0538,-0.0269,-0.0359,-0.0448,-0.0179,0.009,0.0269,0.0538,0.0807,0.1166,0.1436,0.1795,0.2064,0.2333,0.2602,0.279,0.3166,0.3714,0.4274,0.4996,0.5869,0.6629,0.7272,0.7851,0.8551,0.9263,1.0093,1.0846,1.1807,1.2603,1.3528,1.4423,1.541,1.6511,1.7524,1.8485,1.9486,2.0652,2.1564,2.2312,2.2935,2.3601,2.4123,2.4786,2.5277,2.5791,-2.2582,-2.2252,-2.2056,-2.1787,-2.1495,-2.0989,-2.0815,-2.0867,-2.0664,-2.0333,-2.0117,-1.9715,-1.9474,-1.9408,-1.9161,-1.8895,-1.8754,-1.8603,-1.8282,-1.804,-1.7878,-1.7627,-1.7383,-1.7221,-1.7147,-1.7066,-1.6894,-1.6656,-1.6492,-1.6335,-1.5997,-1.565,-1.5492,-1.5325,-1.5082,-1.4838,-1.4419,-1.3906,-1.3476,-1.3052,-1.279,-1.2272,-1.1757,-1.1241,-1.0809,-1.0207,-0.9777,-0.9345,-0.8903,-0.846,-0.7937,-0.7584,-0.7051,-0.6789,-0.6438,-0.5722,-0.5369,-0.5015,-0.4659,-0.43,-0.4123,-0.3857,-0.3408,-0.3048,-0.2689,-0.2241,-0.1974,-0.1794,-0.1615,-0.1256,-0.1166,-0.1166,-0.1256,-0.0987,-0.0807,-0.0538,-0.0269,-0.0,0.0359,0.0807,0.1076,0.144,0.1709,0.1982,0.2171,0.2372,0.2757,0.3325,0.3974,0.4869,0.5721,0.6459,0.6976,0.7584,0.843,0.918,1.0036,1.088,1.1687,1.2531,1.3502,1.4546,1.5704,1.6923,1.8216,1.9468,2.058,2.14,2.2105,2.2656,2.3244,2.3711,2.4215,2.4844,2.5301,-2.2131,-2.181,-2.1677,-2.1497,-2.1138,-2.0702,-2.0648,-2.0717,-2.0381,-2.0068,-1.9774,-1.9516,-1.9305,-1.92,-1.8883,-1.8725,-1.8819,-1.8592,-1.8426,-1.8371,-1.829,-1.7959,-1.7797,-1.7635,-1.7473,-1.7383,-1.7302,-1.7057,-1.682,-1.6492,-1.6154,-1.5982,-1.5824,-1.5575,-1.5333,-1.5166,-1.4922,-1.4419,-1.399,-1.3483,-1.3052,-1.2699,-1.21,-1.1585,-1.1154,-1.0636,-1.012,-0.9689,-0.934,-0.8815,-0.8288,-0.7937,-0.7404,-0.6966,-0.6526,-0.5899,-0.5547,-0.5282,-0.5015,-0.4659,-0.4393,-0.4214,-0.3946,-0.3587,-0.3227,-0.278,-0.2511,-0.2332,-0.2154,-0.1974,-0.1974,-0.1974,-0.1885,-0.1795,-0.1525,-0.1346,-0.1077,-0.0897,-0.0448,0.009,0.045,0.0812,0.1085,0.1269,0.1553,0.1764,0.2067,0.2364,0.3026,0.3859,0.4827,0.5651,0.6159,0.6669,0.7521,0.8268,0.8995,0.982,1.0604,1.1482,1.264,1.3771,1.4829,1.6479,1.8216,1.9314,2.0307,2.1112,2.1845,2.2414,2.2991,2.3663,2.4172,2.4648,2.5081,-2.1285,-2.099,-2.0903,-2.0884,-2.0739,-2.0647,-2.0488,-2.0246,-1.9777,-1.9413,-1.919,-1.9043,-1.8953,-1.8909,-1.8686,-1.8591,-1.8718,-1.8615,-1.8581,-1.8656,-1.8692,-1.8451,-1.8201,-1.8031,-1.7959,-1.7635,-1.7392,-1.7302,-1.7057,-1.673,-1.6484,-1.6394,-1.6072,-1.5741,-1.5575,-1.5409,-1.5166,-1.4838,-1.4419,-1.3906,-1.3476,-1.296,-1.2443,-1.1843,-1.1408,-1.0977,-1.0381,-0.9951,-0.9689,-0.9165,-0.864,-0.8372,-0.7672,-0.7002,-0.6465,-0.6112,-0.5768,-0.5502,-0.5313,-0.5032,-0.475,-0.4572,-0.4214,-0.4034,-0.3676,-0.3317,-0.2959,-0.2869,-0.2691,-0.2691,-0.2602,-0.2423,-0.2332,-0.2154,-0.1973,-0.1794,-0.1615,-0.1351,-0.0997,-0.0545,-0.0366,-0.0,0.0277,0.0464,0.0748,0.1139,0.1437,0.164,0.2229,0.2994,0.3876,0.4793,0.5201,0.5711,0.6541,0.7282,0.7895,0.8612,0.9406,1.0297,1.1272,1.263,1.4076,1.5738,1.7394,1.874,1.9793,2.0588,2.1365,2.2016,2.2715,2.3546,2.4181,2.4559,2.4871,-2.1486,-2.1262,-2.0914,-2.0596,-2.0282,-2.0148,-1.9822,-1.9385,-1.927,-1.9333,-1.9364,-1.9195,-1.902,-1.8835,-1.8606,-1.8573,-1.8639,-1.8618,-1.8742,-1.8825,-1.8831,-1.8807,-1.8612,-1.8451,-1.8371,-1.8201,-1.7951,-1.7554,-1.7221,-1.6976,-1.6722,-1.6476,-1.6229,-1.6064,-1.5733,-1.5575,-1.5409,-1.509,-1.4748,-1.4328,-1.3906,-1.3313,-1.2796,-1.2277,-1.1837,-1.1322,-1.0722,-1.0294,-0.9951,-0.9428,-0.8903,-0.8288,-0.7591,-0.7078,-0.6766,-0.6497,-0.6227,-0.5866,-0.5577,-0.5358,-0.5058,-0.486,-0.4587,-0.4397,-0.4123,-0.3674,-0.3408,-0.3411,-0.3318,-0.3229,-0.3138,-0.2959,-0.269,-0.2601,-0.2427,-0.2248,-0.1979,-0.1726,-0.1468,-0.1294,-0.1211,-0.0844,-0.0566,-0.0285,-0.0096,0.0193,0.0583,0.0882,0.1389,0.2086,0.287,0.3685,0.4095,0.4712,0.5636,0.6237,0.6731,0.7428,0.812,0.9011,1.0002,1.1755,1.3596,1.5032,1.6539,1.777,1.8988,1.9886,2.0685,2.1475,2.238,2.3293,2.3888,2.4298,2.4659,-2.1663,-2.1336,-2.0967,-2.0646,-2.0388,-2.0118,-1.9781,-1.9473,-1.9274,-1.9287,-1.9303,-1.9003,-1.8791,-1.866,-1.8366,-1.8413,-1.8518,-1.858,-1.8789,-1.8945,-1.8926,-1.8979,-1.8912,-1.8843,-1.8692,-1.8523,-1.8112,-1.7708,-1.7383,-1.7139,-1.6894,-1.664,-1.6558,-1.6229,-1.5899,-1.5741,-1.5575,-1.5257,-1.4908,-1.4573,-1.4243,-1.3652,-1.3052,-1.2534,-1.2106,-1.1591,-1.1154,-1.0651,-1.028,-0.9753,-0.9212,-0.8627,-0.8022,-0.7523,-0.7092,-0.6728,-0.6453,-0.6267,-0.5874,-0.5647,-0.5413,-0.5134,-0.5059,-0.4899,-0.4719,-0.4254,-0.4006,-0.391,-0.3504,-0.3406,-0.3406,-0.3227,-0.3227,-0.3138,-0.2906,-0.2748,-0.2401,-0.2146,-0.1969,-0.188,-0.1704,-0.1334,-0.1055,-0.1063,-0.0877,-0.0692,-0.0397,0.0099,0.0603,0.1111,0.1918,0.2522,0.3026,0.3731,0.4634,0.5135,0.5436,0.6134,0.6933,0.8319,0.9604,1.1463,1.3216,1.437,1.5615,1.685,1.7971,1.8988,2.0102,2.1007,2.1966,2.3008,2.3509,2.3991,2.4476,-2.1726,-2.1388,-2.1094,-2.0839,-2.0658,-2.0313,-2.0053,-1.9868,-1.955,-1.9285,-1.9147,-1.8677,-1.8395,-1.8202,-1.8008,-1.8133,-1.8254,-1.8299,-1.8635,-1.8892,-1.9041,-1.913,-1.9118,-1.9116,-1.8993,-1.8692,-1.8282,-1.8031,-1.7708,-1.7383,-1.7139,-1.6968,-1.6722,-1.6319,-1.6079,-1.5922,-1.5665,-1.534,-1.4999,-1.4734,-1.4314,-1.3899,-1.3307,-1.2796,-1.2289,-1.1785,-1.1451,-1.0983,-1.0647,-1.0178,-0.9513,-0.881,-0.8303,-0.7861,-0.7328,-0.696,-0.6768,-0.6487,-0.6192,-0.5876,-0.5771,-0.5591,-0.5519,-0.5329,-0.5133,-0.4906,-0.4553,-0.4236,-0.3913,-0.3713,-0.3714,-0.3711,-0.3621,-0.3629,-0.3411,-0.3173,-0.2831,-0.2578,-0.2488,-0.2395,-0.2121,-0.1746,-0.166,-0.1672,-0.1588,-0.1509,-0.1212,-0.0707,-0.0202,0.0303,0.0808,0.1413,0.1817,0.2723,0.3629,0.4133,0.4334,0.5138,0.6134,0.7624,0.9205,1.0779,1.2252,1.3516,1.4663,1.59,1.7037,1.8156,1.9263,2.0374,2.1347,2.2287,2.3134,2.371,2.4315,-2.1714,-2.1388,-2.1221,-2.1031,-2.0839,-2.0518,-2.0259,-2.0042,-1.9868,-1.9681,-1.9473,-1.9131,-1.8808,-1.8482,-1.8269,-1.8262,-1.8291,-1.8228,-1.826,-1.8466,-1.8909,-1.9174,-1.9322,-1.9358,-1.9222,-1.8922,-1.8523,-1.8193,-1.7951,-1.7546,-1.7221,-1.7049,-1.6812,-1.6492,-1.617,-1.5922,-1.5756,-1.5423,-1.4999,-1.4734,-1.4482,-1.3977,-1.3476,-1.2973,-1.246,-1.2256,-1.1921,-1.1357,-1.1055,-1.0557,-0.9837,-0.9031,-0.8517,-0.8104,-0.7667,-0.7196,-0.69,-0.6614,-0.641,-0.6075,-0.5966,-0.5847,-0.5661,-0.5558,-0.5458,-0.536,-0.5029,-0.4838,-0.4518,-0.4321,-0.4317,-0.4118,-0.4023,-0.3941,-0.3793,-0.3613,-0.3349,-0.3098,-0.2928,-0.2746,-0.2468,-0.2282,-0.2192,-0.2101,-0.1802,-0.1717,-0.1617,-0.1212,-0.101,-0.0606,-0.0101,0.0303,0.0808,0.1514,0.232,0.3128,0.3531,0.4336,0.5338,0.683,0.8418,1.0006,1.138,1.2646,1.3806,1.4949,1.6082,1.7311,1.8427,1.9538,2.0538,2.1516,2.2482,2.3414,2.4016]}]]